[[{"header":{"parameterUnit":"m.s-1","parameterCategory":1,"la1":31.0,"la2":29.5877,"lo1":-88.7671,"lo2":-86.6584,"dy":0.0162,"dx":0.0185,"nx":115,"ny":88,"refTime":"2026-03-23T00:00:00:Z","depth":0,"parameterNumber":2,"parameterNumberName":"U-component_of_WINDS"},"data":[0.0,0.0,0.0,0.0,0.0,0.0,0.0,0.0,0.0,0.0,0.0,0.0,0.0,0.0,0.0,0.0,0.0,0.0,0.0,0.0,0.0,0.0,0.0,0.0,0.0,0.0,0.0,0.0,0.0,0.0,0.0,0.0,0.0,0.0,0.0,0.0,0.0,0.0,0.0,0.0,0.0,-3.2275,-3.2306,-3.0914,-3.0638,-3.005,-2.8991,0.0,0.0,0.0,0.0,0.0,0.0,0.0,0.0,0.0,0.0,0.0,0.0,0.0,0.0,0.0,0.0,0.0,0.0,0.0,0.0,0.0,0.0,0.0,0.0,0.0,0.0,0.0,0.0,0.0,0.0,0.0,0.0,0.0,0.0,0.0,0.0,0.0,0.0,0.0,0.0,0.0,0.0,0.0,0.0,0.0,0.0,0.0,0.0,0.0,0.0,0.0,0.0,0.0,0.0,0.0,0.0,0.0,0.0,0.0,0.0,0.0,0.0,0.0,0.0,0.0,0.0,0.0,0.0,0.0,0.0,0.0,0.0,0.0,0.0,0.0,0.0,0.0,0.0,0.0,0.0,0.0,0.0,0.0,0.0,0.0,0.0,0.0,0.0,0.0,0.0,0.0,0.0,0.0,0.0,0.0,0.0,0.0,0.0,0.0,0.0,0.0,0.0,0.0,0.0,0.0,0.0,0.0,0.0,0.0,0.0,-3.2465,-3.1631,-3.1295,-3.0529,-2.9246,0.0,0.0,0.0,0.0,0.0,0.0,0.0,0.0,0.0,0.0,0.0,0.0,0.0,0.0,0.0,0.0,0.0,0.0,0.0,0.0,0.0,0.0,0.0,0.0,0.0,0.0,0.0,0.0,0.0,0.0,0.0,0.0,0.0,0.0,0.0,0.0,0.0,0.0,0.0,0.0,0.0,0.0,0.0,0.0,0.0,0.0,0.0,0.0,0.0,0.0,0.0,0.0,0.0,0.0,0.0,0.0,0.0,0.0,0.0,0.0,0.0,0.0,0.0,0.0,0.0,0.0,0.0,0.0,0.0,0.0,0.0,0.0,0.0,0.0,0.0,0.0,0.0,0.0,0.0,0.0,0.0,0.0,0.0,0.0,0.0,0.0,0.0,0.0,0.0,0.0,0.0,0.0,0.0,0.0,0.0,0.0,0.0,0.0,0.0,0.0,0.0,0.0,0.0,0.0,0.0,0.0,0.0,0.0,0.0,0.0,-3.2518,-3.2158,-3.141,-3.0886,-3.0599,0.0,0.0,0.0,0.0,0.0,0.0,0.0,0.0,0.0,0.0,0.0,0.0,0.0,0.0,0.0,0.0,0.0,0.0,0.0,0.0,0.0,0.0,0.0,0.0,0.0,0.0,0.0,0.0,0.0,0.0,0.0,0.0,0.0,0.0,0.0,0.0,0.0,0.0,0.0,0.0,0.0,0.0,0.0,0.0,0.0,0.0,0.0,0.0,0.0,0.0,0.0,0.0,0.0,0.0,0.0,0.0,0.0,0.0,0.0,0.0,0.0,0.0,0.0,0.0,0.0,0.0,0.0,0.0,0.0,0.0,0.0,0.0,0.0,0.0,0.0,0.0,0.0,0.0,0.0,0.0,0.0,0.0,0.0,0.0,0.0,0.0,0.0,0.0,0.0,0.0,0.0,0.0,0.0,0.0,0.0,0.0,0.0,0.0,0.0,0.0,0.0,0.0,0.0,0.0,0.0,0.0,0.0,0.0,0.0,0.0,-3.2473,-3.2353,-3.1777,-3.1236,-3.0783,-2.9925,0.0,0.0,0.0,0.0,0.0,0.0,0.0,0.0,0.0,0.0,0.0,0.0,0.0,0.0,0.0,0.0,0.0,0.0,0.0,0.0,0.0,0.0,0.0,0.0,0.0,0.0,0.0,0.0,0.0,0.0,0.0,0.0,0.0,0.0,0.0,0.0,0.0,0.0,0.0,0.0,0.0,0.0,0.0,0.0,0.0,0.0,0.0,0.0,0.0,0.0,0.0,0.0,0.0,0.0,0.0,0.0,0.0,0.0,0.0,0.0,0.0,0.0,0.0,0.0,0.0,0.0,0.0,0.0,0.0,0.0,0.0,0.0,0.0,0.0,0.0,0.0,0.0,0.0,0.0,0.0,0.0,0.0,0.0,0.0,0.0,0.0,0.0,0.0,0.0,0.0,0.0,0.0,0.0,0.0,0.0,0.0,0.0,0.0,0.0,0.0,0.0,0.0,0.0,0.0,0.0,0.0,0.0,0.0,0.0,-3.2353,-3.2301,-3.2161,-3.1567,-3.047,-3.0309,0.0,0.0,0.0,0.0,0.0,0.0,0.0,0.0,0.0,0.0,0.0,0.0,0.0,0.0,0.0,0.0,0.0,0.0,0.0,0.0,0.0,0.0,0.0,0.0,0.0,0.0,0.0,0.0,0.0,0.0,0.0,0.0,0.0,0.0,0.0,0.0,0.0,0.0,0.0,0.0,0.0,0.0,0.0,0.0,0.0,0.0,0.0,0.0,0.0,0.0,0.0,0.0,0.0,0.0,0.0,0.0,0.0,0.0,0.0,0.0,0.0,0.0,0.0,0.0,0.0,0.0,0.0,0.0,0.0,0.0,0.0,0.0,0.0,0.0,0.0,0.0,0.0,0.0,0.0,0.0,0.0,0.0,0.0,0.0,0.0,0.0,0.0,0.0,0.0,0.0,0.0,0.0,0.0,0.0,0.0,0.0,0.0,0.0,0.0,0.0,0.0,0.0,0.0,0.0,0.0,0.0,0.0,0.0,0.0,-3.2284,-3.2353,-3.2196,-3.1812,-3.1213,-3.067,0.0,0.0,0.0,0.0,0.0,0.0,0.0,0.0,0.0,0.0,0.0,0.0,0.0,0.0,0.0,0.0,0.0,0.0,0.0,0.0,0.0,0.0,0.0,0.0,0.0,0.0,0.0,0.0,0.0,0.0,0.0,0.0,0.0,0.0,0.0,0.0,0.0,0.0,0.0,0.0,0.0,0.0,0.0,0.0,0.0,0.0,0.0,0.0,0.0,0.0,0.0,0.0,0.0,0.0,0.0,0.0,0.0,0.0,0.0,0.0,0.0,0.0,0.0,0.0,0.0,0.0,0.0,0.0,0.0,0.0,0.0,0.0,0.0,0.0,0.0,0.0,0.0,0.0,0.0,0.0,0.0,0.0,0.0,0.0,0.0,0.0,0.0,0.0,0.0,0.0,0.0,0.0,0.0,0.0,0.0,0.0,0.0,0.0,0.0,0.0,0.0,0.0,0.0,0.0,0.0,0.0,0.0,0.0,0.0,-3.2249,-3.2405,-3.2319,-3.1876,-3.1164,-3.0814,0.0,0.0,0.0,0.0,0.0,0.0,0.0,0.0,0.0,0.0,0.0,0.0,0.0,0.0,0.0,0.0,0.0,0.0,0.0,0.0,0.0,0.0,0.0,0.0,0.0,0.0,0.0,0.0,0.0,0.0,0.0,0.0,0.0,0.0,0.0,0.0,0.0,0.0,0.0,0.0,0.0,0.0,0.0,0.0,0.0,0.0,0.0,0.0,0.0,0.0,0.0,0.0,0.0,0.0,0.0,0.0,0.0,0.0,0.0,0.0,0.0,0.0,0.0,0.0,0.0,0.0,0.0,0.0,0.0,0.0,0.0,0.0,0.0,0.0,0.0,0.0,0.0,0.0,0.0,0.0,0.0,0.0,0.0,0.0,0.0,0.0,0.0,0.0,0.0,0.0,0.0,0.0,0.0,0.0,0.0,0.0,0.0,0.0,0.0,0.0,0.0,0.0,0.0,0.0,0.0,0.0,0.0,0.0,-3.1847,-3.2074,-3.2312,-3.2437,-3.2014,-3.0894,-3.0953,0.0,0.0,0.0,0.0,0.0,0.0,0.0,0.0,0.0,0.0,0.0,0.0,0.0,0.0,0.0,0.0,0.0,0.0,0.0,0.0,0.0,0.0,0.0,0.0,0.0,0.0,0.0,0.0,0.0,0.0,0.0,0.0,0.0,0.0,0.0,0.0,0.0,0.0,0.0,0.0,0.0,0.0,0.0,0.0,0.0,0.0,0.0,0.0,0.0,0.0,0.0,0.0,0.0,0.0,0.0,0.0,0.0,0.0,0.0,0.0,0.0,0.0,0.0,0.0,0.0,0.0,0.0,0.0,0.0,0.0,0.0,0.0,0.0,0.0,0.0,0.0,0.0,0.0,0.0,0.0,0.0,0.0,0.0,0.0,0.0,0.0,0.0,0.0,0.0,0.0,0.0,0.0,0.0,0.0,0.0,0.0,0.0,0.0,0.0,0.0,0.0,0.0,0.0,0.0,0.0,0.0,0.0,-3.0426,-3.0968,-3.1419,-3.165,-3.2462,-3.2331,-3.1134,-3.1234,0.0,0.0,0.0,0.0,0.0,0.0,0.0,0.0,0.0,0.0,0.0,0.0,0.0,0.0,0.0,0.0,0.0,0.0,0.0,0.0,0.0,0.0,0.0,0.0,0.0,0.0,0.0,0.0,0.0,0.0,0.0,0.0,0.0,0.0,0.0,0.0,0.0,0.0,0.0,0.0,0.0,0.0,0.0,0.0,0.0,0.0,0.0,0.0,0.0,0.0,0.0,0.0,0.0,0.0,0.0,0.0,0.0,0.0,0.0,0.0,0.0,0.0,0.0,0.0,0.0,0.0,0.0,0.0,0.0,0.0,0.0,0.0,0.0,0.0,0.0,0.0,0.0,0.0,0.0,0.0,0.0,0.0,0.0,0.0,0.0,0.0,0.0,0.0,0.0,0.0,0.0,0.0,0.0,0.0,0.0,0.0,0.0,0.0,0.0,0.0,0.0,0.0,0.0,0.0,0.0,0.0,-3.0175,-3.0699,-3.1067,-3.1421,-3.1765,-3.2283,-3.2196,-3.1409,-3.069,0.0,0.0,0.0,0.0,0.0,0.0,0.0,0.0,0.0,0.0,0.0,0.0,0.0,0.0,0.0,0.0,0.0,0.0,0.0,0.0,0.0,0.0,0.0,0.0,0.0,0.0,0.0,0.0,0.0,0.0,0.0,0.0,0.0,0.0,0.0,0.0,0.0,0.0,0.0,0.0,0.0,0.0,0.0,0.0,0.0,0.0,0.0,0.0,0.0,0.0,0.0,0.0,0.0,0.0,0.0,0.0,0.0,0.0,0.0,0.0,0.0,0.0,0.0,0.0,0.0,0.0,0.0,0.0,0.0,0.0,0.0,0.0,0.0,0.0,0.0,0.0,0.0,0.0,0.0,0.0,0.0,0.0,0.0,0.0,0.0,0.0,0.0,0.0,0.0,0.0,0.0,0.0,0.0,0.0,0.0,0.0,0.0,0.0,0.0,0.0,0.0,0.0,0.0,0.0,0.0,0.0,-2.9992,-3.1528,-3.1508,-3.1602,-3.2068,-3.2587,-3.2554,-3.1918,0.0,0.0,0.0,0.0,0.0,0.0,0.0,0.0,0.0,0.0,0.0,0.0,0.0,0.0,0.0,0.0,0.0,0.0,0.0,0.0,0.0,0.0,0.0,0.0,0.0,0.0,0.0,0.0,0.0,0.0,0.0,0.0,0.0,0.0,0.0,0.0,0.0,0.0,0.0,0.0,0.0,0.0,0.0,0.0,0.0,0.0,0.0,0.0,0.0,0.0,0.0,0.0,0.0,0.0,0.0,0.0,0.0,0.0,0.0,0.0,0.0,0.0,0.0,0.0,0.0,0.0,0.0,0.0,0.0,0.0,0.0,0.0,0.0,0.0,0.0,0.0,0.0,0.0,0.0,0.0,0.0,0.0,0.0,0.0,0.0,0.0,0.0,0.0,0.0,0.0,0.0,0.0,0.0,0.0,0.0,0.0,0.0,0.0,0.0,0.0,0.0,0.0,0.0,0.0,0.0,0.0,0.0,-3.0871,-3.2599,-3.2148,-3.1946,-3.2374,-3.3959,-3.426,-3.3033,0.0,0.0,0.0,0.0,0.0,0.0,0.0,0.0,0.0,0.0,0.0,0.0,0.0,0.0,0.0,0.0,0.0,0.0,0.0,0.0,0.0,0.0,0.0,0.0,0.0,0.0,0.0,0.0,0.0,0.0,0.0,0.0,0.0,0.0,0.0,0.0,0.0,0.0,0.0,0.0,0.0,0.0,0.0,0.0,0.0,0.0,0.0,0.0,0.0,0.0,0.0,0.0,0.0,0.0,0.0,0.0,0.0,0.0,0.0,0.0,0.0,0.0,0.0,0.0,0.0,0.0,0.0,0.0,0.0,0.0,0.0,0.0,0.0,0.0,0.0,0.0,0.0,0.0,0.0,0.0,0.0,0.0,0.0,0.0,0.0,0.0,0.0,0.0,0.0,0.0,0.0,0.0,0.0,0.0,0.0,0.0,0.0,0.0,0.0,0.0,0.0,0.0,0.0,0.0,0.0,0.0,-2.9799,-3.0432,-3.2355,-3.2661,-3.295,-3.3319,-3.3747,-3.3484,-3.2411,0.0,0.0,0.0,0.0,0.0,0.0,0.0,0.0,0.0,0.0,0.0,0.0,0.0,0.0,0.0,0.0,0.0,0.0,0.0,0.0,0.0,0.0,0.0,0.0,0.0,0.0,0.0,0.0,0.0,0.0,0.0,0.0,0.0,0.0,0.0,0.0,0.0,0.0,0.0,0.0,0.0,0.0,0.0,0.0,0.0,0.0,0.0,0.0,0.0,0.0,0.0,0.0,0.0,0.0,0.0,0.0,0.0,0.0,0.0,0.0,0.0,0.0,0.0,0.0,0.0,0.0,0.0,0.0,0.0,0.0,0.0,0.0,0.0,0.0,0.0,0.0,0.0,0.0,0.0,0.0,0.0,0.0,0.0,0.0,0.0,0.0,0.0,0.0,0.0,0.0,0.0,0.0,0.0,0.0,0.0,0.0,0.0,0.0,0.0,0.0,0.0,0.0,0.0,0.0,0.0,-2.998,-2.9677,-3.0591,-3.2784,-3.3502,-3.4115,-3.4683,-3.4176,-3.3325,-3.2218,0.0,0.0,0.0,0.0,0.0,0.0,0.0,0.0,0.0,0.0,0.0,0.0,0.0,0.0,0.0,0.0,0.0,0.0,0.0,0.0,0.0,0.0,0.0,0.0,0.0,0.0,0.0,0.0,0.0,0.0,0.0,0.0,0.0,0.0,0.0,0.0,0.0,0.0,0.0,0.0,0.0,0.0,0.0,0.0,0.0,0.0,0.0,0.0,0.0,0.0,0.0,0.0,0.0,0.0,0.0,0.0,0.0,0.0,0.0,0.0,0.0,0.0,0.0,0.0,0.0,0.0,0.0,0.0,0.0,0.0,0.0,0.0,0.0,0.0,0.0,0.0,0.0,0.0,0.0,0.0,0.0,0.0,0.0,0.0,0.0,0.0,0.0,0.0,0.0,0.0,0.0,0.0,0.0,0.0,0.0,0.0,0.0,0.0,0.0,0.0,0.0,0.0,0.0,0.0,0.0,0.0,-3.0104,-3.1953,-3.4752,-3.4885,-3.5477,-3.6583,-3.5913,-3.4648,-3.2968,0.0,0.0,0.0,0.0,0.0,0.0,0.0,0.0,0.0,0.0,0.0,0.0,0.0,0.0,0.0,0.0,0.0,0.0,0.0,0.0,0.0,0.0,0.0,0.0,0.0,0.0,0.0,0.0,0.0,0.0,0.0,0.0,0.0,0.0,0.0,0.0,0.0,0.0,0.0,0.0,0.0,0.0,0.0,0.0,0.0,0.0,0.0,0.0,0.0,0.0,0.0,0.0,0.0,0.0,0.0,0.0,0.0,0.0,0.0,0.0,0.0,0.0,0.0,0.0,0.0,0.0,0.0,0.0,0.0,0.0,0.0,0.0,0.0,0.0,0.0,0.0,0.0,0.0,0.0,0.0,0.0,0.0,0.0,0.0,0.0,0.0,0.0,0.0,0.0,0.0,0.0,0.0,0.0,0.0,0.0,0.0,0.0,0.0,0.0,0.0,0.0,0.0,0.0,0.0,0.0,0.0,-2.9726,-3.077,-3.2551,-3.3747,-3.5396,-3.7378,-3.5562,-3.4099,-3.3309,0.0,0.0,0.0,0.0,0.0,0.0,0.0,0.0,0.0,0.0,0.0,0.0,0.0,0.0,0.0,0.0,0.0,0.0,0.0,0.0,0.0,0.0,0.0,0.0,0.0,0.0,0.0,0.0,0.0,0.0,0.0,0.0,0.0,0.0,0.0,0.0,0.0,0.0,0.0,0.0,0.0,0.0,0.0,0.0,0.0,0.0,0.0,0.0,0.0,0.0,0.0,0.0,0.0,0.0,0.0,0.0,0.0,0.0,0.0,0.0,0.0,0.0,0.0,0.0,0.0,0.0,0.0,0.0,0.0,0.0,0.0,0.0,0.0,0.0,0.0,0.0,0.0,0.0,0.0,0.0,0.0,0.0,0.0,0.0,0.0,0.0,0.0,0.0,0.0,0.0,0.0,0.0,0.0,0.0,0.0,0.0,0.0,0.0,0.0,0.0,0.0,0.0,0.0,0.0,0.0,0.0,-2.9565,-3.0568,-3.2522,-3.4424,-3.611,-3.7465,-3.5732,-3.4064,0.0,0.0,0.0,0.0,0.0,0.0,0.0,0.0,0.0,0.0,0.0,0.0,0.0,0.0,0.0,0.0,0.0,0.0,0.0,0.0,0.0,0.0,0.0,0.0,0.0,0.0,0.0,0.0,0.0,0.0,0.0,0.0,0.0,0.0,0.0,0.0,0.0,0.0,0.0,0.0,0.0,0.0,0.0,0.0,0.0,0.0,0.0,0.0,0.0,0.0,0.0,0.0,0.0,0.0,0.0,0.0,0.0,0.0,0.0,0.0,0.0,0.0,0.0,0.0,0.0,0.0,0.0,0.0,0.0,0.0,0.0,0.0,0.0,0.0,0.0,0.0,0.0,0.0,0.0,0.0,0.0,0.0,0.0,0.0,0.0,0.0,0.0,0.0,0.0,0.0,0.0,0.0,0.0,0.0,0.0,0.0,0.0,0.0,0.0,0.0,0.0,0.0,0.0,0.0,0.0,0.0,0.0,-2.9715,-3.1561,-3.5268,-3.7143,-3.7591,-3.6845,-3.6617,-3.4719,0.0,0.0,0.0,0.0,0.0,0.0,0.0,0.0,0.0,0.0,0.0,0.0,0.0,0.0,0.0,0.0,0.0,0.0,0.0,0.0,0.0,0.0,0.0,0.0,0.0,0.0,0.0,0.0,0.0,0.0,0.0,0.0,0.0,0.0,0.0,0.0,0.0,0.0,0.0,0.0,0.0,0.0,0.0,0.0,0.0,0.0,0.0,0.0,0.0,0.0,0.0,0.0,0.0,0.0,0.0,0.0,0.0,0.0,0.0,0.0,0.0,0.0,0.0,0.0,0.0,0.0,0.0,0.0,0.0,0.0,0.0,0.0,0.0,0.0,0.0,0.0,0.0,0.0,0.0,0.0,0.0,0.0,0.0,0.0,0.0,0.0,0.0,0.0,0.0,0.0,0.0,0.0,0.0,0.0,0.0,0.0,0.0,0.0,0.0,0.0,0.0,0.0,0.0,0.0,0.0,0.0,0.0,-3.0726,-3.2132,-3.3611,-3.4748,-3.6161,-3.7751,-3.6383,-3.4917,-3.3455,0.0,0.0,0.0,0.0,0.0,0.0,0.0,0.0,0.0,0.0,0.0,0.0,0.0,0.0,0.0,0.0,0.0,0.0,0.0,0.0,0.0,0.0,0.0,0.0,0.0,0.0,0.0,0.0,0.0,0.0,0.0,0.0,0.0,0.0,0.0,0.0,0.0,0.0,0.0,0.0,0.0,0.0,0.0,0.0,0.0,0.0,0.0,0.0,0.0,0.0,0.0,0.0,0.0,0.0,0.0,0.0,0.0,0.0,0.0,0.0,0.0,0.0,0.0,0.0,0.0,0.0,0.0,0.0,0.0,0.0,0.0,0.0,0.0,0.0,0.0,0.0,0.0,0.0,0.0,0.0,0.0,0.0,0.0,0.0,0.0,0.0,0.0,0.0,0.0,0.0,0.0,0.0,0.0,0.0,0.0,0.0,0.0,0.0,0.0,0.0,0.0,0.0,0.0,0.0,0.0,0.0,-3.0704,-3.1982,-3.34,-3.4847,-3.6446,-3.8345,-3.6684,-3.5248,-3.4118,0.0,0.0,0.0,0.0,0.0,0.0,0.0,0.0,0.0,0.0,0.0,0.0,0.0,0.0,0.0,0.0,0.0,0.0,0.0,0.0,0.0,0.0,0.0,0.0,0.0,0.0,0.0,0.0,0.0,0.0,0.0,0.0,0.0,0.0,0.0,0.0,0.0,0.0,0.0,0.0,0.0,0.0,0.0,0.0,0.0,0.0,0.0,0.0,0.0,0.0,0.0,0.0,0.0,0.0,0.0,0.0,0.0,0.0,0.0,0.0,0.0,0.0,0.0,0.0,0.0,0.0,0.0,0.0,0.0,0.0,0.0,0.0,0.0,0.0,0.0,0.0,0.0,0.0,0.0,0.0,0.0,0.0,0.0,0.0,0.0,0.0,0.0,0.0,0.0,0.0,0.0,0.0,0.0,0.0,0.0,0.0,0.0,0.0,0.0,0.0,0.0,0.0,0.0,0.0,0.0,0.0,0.0,-3.1343,-3.4359,-3.6794,-3.8122,-3.8383,-3.7396,-3.574,-3.3421,0.0,0.0,0.0,0.0,0.0,0.0,0.0,0.0,0.0,0.0,0.0,0.0,0.0,0.0,0.0,0.0,0.0,0.0,0.0,0.0,0.0,0.0,0.0,0.0,0.0,0.0,0.0,0.0,0.0,0.0,0.0,0.0,0.0,0.0,0.0,0.0,0.0,0.0,0.0,0.0,0.0,0.0,0.0,0.0,0.0,0.0,0.0,0.0,0.0,0.0,0.0,0.0,0.0,0.0,0.0,0.0,0.0,0.0,0.0,0.0,0.0,0.0,0.0,0.0,0.0,0.0,0.0,0.0,0.0,0.0,0.0,0.0,0.0,0.0,0.0,0.0,0.0,0.0,0.0,0.0,0.0,0.0,0.0,0.0,0.0,0.0,0.0,0.0,0.0,0.0,0.0,0.0,0.0,0.0,0.0,0.0,0.0,0.0,0.0,0.0,0.0,0.0,0.0,0.0,0.0,0.0,-2.9403,-3.0688,-3.3325,-3.513,-3.7175,-3.9399,-3.7508,-3.6136,-3.5603,0.0,0.0,0.0,0.0,0.0,0.0,0.0,0.0,0.0,0.0,0.0,0.0,0.0,0.0,0.0,0.0,0.0,0.0,0.0,0.0,0.0,0.0,0.0,0.0,0.0,0.0,0.0,0.0,0.0,0.0,0.0,0.0,0.0,0.0,0.0,0.0,0.0,0.0,0.0,0.0,0.0,0.0,0.0,0.0,0.0,0.0,0.0,0.0,0.0,0.0,0.0,0.0,0.0,0.0,0.0,0.0,0.0,0.0,0.0,0.0,0.0,0.0,0.0,0.0,0.0,0.0,0.0,0.0,0.0,0.0,0.0,0.0,0.0,0.0,0.0,0.0,0.0,0.0,0.0,0.0,0.0,0.0,0.0,0.0,0.0,0.0,0.0,0.0,0.0,0.0,0.0,0.0,0.0,0.0,0.0,0.0,0.0,0.0,0.0,0.0,0.0,0.0,0.0,0.0,0.0,0.0,-2.9188,-3.0439,-3.3275,-3.4236,-3.6255,-3.945,-3.781,-3.6813,-3.6652,0.0,0.0,0.0,0.0,0.0,0.0,0.0,0.0,0.0,0.0,0.0,0.0,0.0,0.0,0.0,0.0,0.0,0.0,0.0,0.0,0.0,0.0,0.0,0.0,0.0,0.0,0.0,0.0,0.0,0.0,0.0,0.0,0.0,0.0,0.0,0.0,0.0,0.0,0.0,0.0,0.0,0.0,0.0,0.0,0.0,0.0,0.0,0.0,-2.8201,0.0,0.0,0.0,0.0,0.0,0.0,0.0,0.0,0.0,0.0,0.0,0.0,0.0,0.0,0.0,0.0,0.0,0.0,0.0,0.0,0.0,0.0,0.0,0.0,0.0,0.0,0.0,0.0,0.0,0.0,0.0,0.0,0.0,0.0,0.0,0.0,0.0,0.0,0.0,0.0,0.0,0.0,0.0,0.0,0.0,0.0,0.0,0.0,0.0,0.0,0.0,0.0,0.0,0.0,0.0,-2.8555,-2.956,-2.9057,-3.0332,-3.3569,-3.3894,-3.5539,-3.8583,-3.8152,-3.7502,-3.6869,0.0,0.0,0.0,0.0,0.0,0.0,0.0,0.0,0.0,0.0,0.0,0.0,0.0,0.0,0.0,0.0,0.0,0.0,0.0,0.0,0.0,0.0,0.0,0.0,0.0,0.0,0.0,0.0,0.0,0.0,0.0,0.0,0.0,0.0,0.0,0.0,0.0,0.0,0.0,0.0,0.0,0.0,0.0,0.0,0.0,0.0,0.0,-3.0543,-3.0841,0.0,0.0,0.0,0.0,0.0,0.0,0.0,0.0,0.0,0.0,0.0,0.0,0.0,0.0,0.0,0.0,0.0,0.0,0.0,0.0,0.0,0.0,0.0,0.0,0.0,0.0,0.0,-2.7887,0.0,-2.9447,0.0,0.0,0.0,0.0,0.0,0.0,0.0,0.0,0.0,0.0,0.0,0.0,0.0,0.0,0.0,0.0,0.0,0.0,0.0,0.0,0.0,0.0,0.0,0.0,-2.7781,-2.7669,-2.9184,-2.8641,-2.9717,-3.2603,-3.4078,-3.5765,-3.7809,-3.7379,-3.7185,-3.7245,0.0,0.0,0.0,0.0,0.0,0.0,0.0,0.0,0.0,0.0,0.0,0.0,0.0,0.0,0.0,0.0,0.0,0.0,0.0,0.0,0.0,0.0,0.0,0.0,0.0,0.0,0.0,0.0,0.0,0.0,0.0,0.0,0.0,0.0,0.0,0.0,0.0,0.0,0.0,0.0,0.0,0.0,0.0,0.0,0.0,0.0,0.0,-3.2928,0.0,0.0,0.0,0.0,0.0,0.0,0.0,0.0,0.0,0.0,0.0,0.0,0.0,0.0,0.0,0.0,0.0,0.0,0.0,0.0,0.0,0.0,0.0,0.0,0.0,0.0,0.0,0.0,-2.79,-2.8694,-3.0106,0.0,0.0,0.0,0.0,0.0,0.0,0.0,0.0,0.0,0.0,0.0,0.0,0.0,0.0,0.0,0.0,0.0,0.0,0.0,0.0,0.0,0.0,0.0,-2.8559,-2.7632,-2.758,-2.8453,-2.8649,-2.9931,-3.2341,-3.3744,-3.5469,-3.7463,-3.7495,-3.7443,-3.7406,0.0,0.0,0.0,0.0,0.0,0.0,0.0,0.0,0.0,0.0,0.0,0.0,0.0,0.0,0.0,0.0,0.0,0.0,0.0,0.0,0.0,0.0,0.0,0.0,0.0,0.0,0.0,0.0,0.0,0.0,0.0,0.0,0.0,0.0,0.0,0.0,0.0,-2.099,-2.0954,0.0,0.0,0.0,0.0,0.0,0.0,0.0,0.0,-3.4313,-3.5441,0.0,0.0,0.0,0.0,0.0,0.0,0.0,0.0,0.0,0.0,0.0,0.0,0.0,0.0,0.0,0.0,0.0,0.0,0.0,0.0,0.0,0.0,0.0,0.0,0.0,0.0,0.0,-2.7882,-2.8895,-3.0712,0.0,0.0,0.0,0.0,0.0,0.0,0.0,0.0,0.0,0.0,0.0,0.0,0.0,0.0,0.0,0.0,0.0,0.0,0.0,0.0,0.0,0.0,0.0,-2.7625,-2.7406,-2.7421,-2.7741,-2.8675,-3.0206,-3.2214,-3.3524,-3.5248,-3.733,-3.7966,-3.7914,-3.7186,0.0,0.0,0.0,0.0,0.0,0.0,0.0,0.0,0.0,0.0,0.0,0.0,0.0,0.0,0.0,0.0,0.0,0.0,0.0,0.0,0.0,0.0,0.0,0.0,0.0,0.0,0.0,0.0,0.0,0.0,0.0,0.0,0.0,0.0,0.0,0.0,0.0,-2.163,-2.197,-2.4783,-2.724,0.0,0.0,0.0,0.0,0.0,0.0,0.0,-3.6352,-3.7206,-3.7235,0.0,0.0,0.0,0.0,0.0,0.0,0.0,0.0,0.0,0.0,0.0,0.0,0.0,0.0,0.0,0.0,0.0,0.0,0.0,0.0,0.0,0.0,0.0,0.0,0.0,-2.7998,-2.8712,-2.9932,0.0,0.0,0.0,0.0,0.0,0.0,0.0,0.0,0.0,0.0,0.0,0.0,0.0,0.0,0.0,0.0,0.0,0.0,0.0,0.0,0.0,0.0,0.0,0.0,-2.5815,-2.5665,-2.7591,-2.8069,-2.9413,-3.1713,-3.4564,-3.6201,-3.6532,-3.8027,-3.795,-3.6129,-3.636,0.0,0.0,0.0,0.0,0.0,0.0,0.0,0.0,0.0,0.0,0.0,0.0,0.0,0.0,0.0,0.0,0.0,0.0,0.0,0.0,0.0,0.0,0.0,0.0,0.0,0.0,0.0,0.0,0.0,0.0,0.0,0.0,0.0,0.0,0.0,0.0,-2.2159,-2.395,-2.7095,-2.9756,-3.1126,0.0,0.0,0.0,0.0,0.0,-3.6812,-3.7321,-3.7889,-3.8546,-3.6957,0.0,0.0,0.0,0.0,0.0,0.0,0.0,0.0,0.0,0.0,0.0,0.0,0.0,0.0,0.0,0.0,0.0,0.0,0.0,0.0,0.0,0.0,0.0,0.0,-2.7888,-2.8848,-3.0375,-3.0608,-3.0958,0.0,0.0,0.0,0.0,-2.9558,0.0,0.0,0.0,0.0,0.0,0.0,0.0,0.0,0.0,0.0,0.0,0.0,0.0,0.0,0.0,0.0,0.0,-2.5944,-2.6029,-2.7457,-2.8542,-3.0072,-3.2137,-3.4128,-3.5486,-3.6159,-3.6194,-3.5846,-3.507,0.0,0.0,0.0,0.0,0.0,0.0,0.0,0.0,0.0,0.0,0.0,0.0,0.0,0.0,0.0,0.0,0.0,0.0,0.0,0.0,0.0,0.0,0.0,0.0,0.0,0.0,0.0,0.0,0.0,0.0,0.0,0.0,0.0,0.0,0.0,0.0,0.0,0.0,-2.5292,-2.8178,-3.0841,-3.2777,-3.3951,-3.4889,-3.5509,-3.6537,-3.7385,-3.7748,-3.7779,-3.8122,-3.9061,0.0,0.0,0.0,0.0,0.0,0.0,0.0,0.0,0.0,0.0,0.0,0.0,0.0,0.0,0.0,0.0,0.0,0.0,0.0,0.0,0.0,0.0,0.0,0.0,0.0,0.0,-2.9379,-3.1187,-3.0976,-3.1056,-3.1423,0.0,0.0,0.0,-2.9246,-2.8934,0.0,0.0,0.0,0.0,0.0,0.0,0.0,0.0,0.0,0.0,0.0,0.0,0.0,0.0,0.0,0.0,-2.6094,-2.6322,-2.7021,-2.8743,-3.0489,-3.2192,-3.3469,-3.4536,-3.5436,-3.4235,-3.3601,-3.3579,0.0,0.0,0.0,0.0,0.0,0.0,0.0,0.0,0.0,0.0,0.0,0.0,0.0,0.0,0.0,0.0,0.0,0.0,0.0,0.0,0.0,0.0,0.0,0.0,0.0,0.0,0.0,0.0,0.0,0.0,0.0,0.0,0.0,0.0,0.0,0.0,0.0,0.0,0.0,-2.9221,-3.1993,-3.4068,-3.5372,-3.6471,-3.7536,-3.815,-3.8526,-3.861,-3.86,-3.8743,0.0,0.0,0.0,0.0,0.0,0.0,0.0,0.0,0.0,0.0,0.0,0.0,0.0,0.0,0.0,0.0,0.0,0.0,0.0,0.0,0.0,0.0,-2.9447,-2.9109,0.0,0.0,-3.0145,-3.0918,-3.1928,-3.2036,-3.1738,-3.1176,-3.1103,-3.021,0.0,-2.8684,-2.7928,-2.6749,0.0,0.0,0.0,0.0,0.0,0.0,0.0,0.0,0.0,0.0,0.0,0.0,0.0,0.0,0.0,0.0,-2.471,-2.5574,-2.7636,-2.9386,-3.0791,-3.3407,-3.4399,-3.3575,-3.3453,-3.2593,-3.0857,0.0,0.0,0.0,0.0,0.0,0.0,0.0,0.0,0.0,0.0,0.0,0.0,0.0,0.0,0.0,0.0,0.0,0.0,0.0,0.0,0.0,0.0,0.0,0.0,0.0,-1.725,0.0,0.0,0.0,0.0,0.0,0.0,0.0,0.0,0.0,0.0,0.0,0.0,0.0,0.0,-3.4418,-3.5452,-3.7041,-3.8581,-3.9647,-3.9948,-3.9973,-3.9832,-4.0615,-4.0704,0.0,0.0,0.0,0.0,0.0,0.0,0.0,0.0,0.0,0.0,0.0,0.0,0.0,0.0,0.0,0.0,0.0,0.0,0.0,0.0,0.0,0.0,-2.9691,-2.9756,-2.9768,-2.9858,-3.0555,-3.1133,-3.1636,-3.225,-3.1922,-3.0912,-3.1301,-3.0363,-2.8538,-2.8519,-2.7911,-2.6745,0.0,0.0,0.0,0.0,0.0,0.0,0.0,0.0,0.0,0.0,0.0,0.0,-2.6879,-2.5895,-2.5055,-2.4588,-2.479,-2.5734,-2.7836,-2.9626,-3.0995,-3.2958,-3.367,-3.301,-3.1644,-3.0288,0.0,0.0,0.0,0.0,0.0,0.0,0.0,0.0,0.0,0.0,0.0,0.0,0.0,0.0,0.0,0.0,0.0,0.0,0.0,0.0,0.0,0.0,0.0,0.0,0.0,-1.77,-1.7833,-1.8464,0.0,0.0,0.0,0.0,0.0,0.0,0.0,0.0,0.0,0.0,0.0,0.0,0.0,-3.4963,-3.7077,-3.8738,-4.0188,-4.1377,-4.1465,-4.1244,-4.08,-4.0928,-4.0384,0.0,0.0,0.0,0.0,0.0,0.0,0.0,0.0,0.0,0.0,0.0,0.0,0.0,0.0,0.0,0.0,0.0,0.0,-3.2271,-3.2332,-3.1684,-3.0973,-3.027,-3.0466,-3.0505,-3.044,-3.1209,-3.1652,-3.1821,-3.2595,-3.2166,-3.0907,-3.1381,-3.0357,-2.8253,-2.8285,-2.7731,-2.6615,-2.6399,0.0,0.0,0.0,0.0,0.0,0.0,0.0,0.0,0.0,0.0,-2.7388,-2.6352,-2.5364,-2.4605,-2.4572,-2.5078,-2.609,-2.8092,-2.9834,-3.127,-3.2511,-3.2885,-3.228,-3.0157,-2.8474,0.0,0.0,0.0,0.0,0.0,0.0,0.0,0.0,0.0,0.0,0.0,0.0,0.0,0.0,0.0,0.0,0.0,0.0,0.0,0.0,0.0,0.0,0.0,-1.8454,-1.8166,-1.8185,-1.849,-1.9141,-1.9886,0.0,-2.2268,0.0,0.0,0.0,0.0,0.0,0.0,0.0,0.0,0.0,0.0,-3.5408,-3.8288,-4.0144,-4.1578,-4.2492,-4.2579,-4.2166,-4.1262,-4.1051,-4.0134,0.0,0.0,0.0,0.0,0.0,0.0,0.0,0.0,0.0,0.0,0.0,0.0,0.0,0.0,0.0,0.0,0.0,0.0,-3.4182,-3.4392,-3.3074,-3.231,-3.1962,-3.1537,-3.1755,-3.2367,-3.2862,-3.3134,-3.3275,-3.3575,-3.277,-3.1065,-3.1085,-2.9794,-2.7871,-2.7692,-2.6989,-2.5849,-2.5914,0.0,0.0,0.0,0.0,0.0,0.0,0.0,0.0,0.0,0.0,-2.6765,-2.5408,-2.4642,-2.4521,-2.4541,-2.515,-2.6274,-2.7973,-2.9554,-3.1007,-3.2146,-3.2174,-3.1053,-2.9685,-2.7904,0.0,0.0,0.0,0.0,0.0,0.0,0.0,0.0,0.0,0.0,0.0,0.0,0.0,0.0,0.0,0.0,0.0,0.0,0.0,0.0,0.0,0.0,0.0,0.0,-1.9211,-1.9048,-1.9001,-1.924,-2.0525,-2.1694,-2.2591,0.0,0.0,0.0,0.0,0.0,0.0,0.0,0.0,0.0,0.0,-3.6369,-3.856,-4.1118,-4.2746,-4.2774,-4.3071,-4.2676,-4.086,-4.1502,-4.0795,-3.6441,-3.5401,-3.4362,0.0,0.0,0.0,0.0,0.0,0.0,0.0,0.0,0.0,0.0,0.0,0.0,0.0,0.0,0.0,-3.6147,-3.5218,-3.4465,-3.371,-3.3008,-3.2872,-3.2972,-3.3253,-3.3253,-3.313,-3.2967,-3.3583,-3.2902,-3.1334,-3.1838,-3.0794,-2.869,-2.8638,-2.7924,-2.6663,-2.715,0.0,0.0,0.0,0.0,0.0,0.0,0.0,0.0,0.0,0.0,-2.5697,-2.5048,-2.4418,-2.383,-2.4242,-2.5049,-2.6174,-2.7874,-2.9372,-3.0646,-3.176,-3.1993,-3.1306,-3.003,-2.8312,-2.6051,0.0,0.0,0.0,0.0,0.0,0.0,0.0,0.0,0.0,0.0,0.0,0.0,0.0,0.0,0.0,0.0,0.0,0.0,0.0,0.0,0.0,0.0,0.0,0.0,-2.0906,-2.1511,-2.1841,-2.3151,-2.3798,-2.3365,-2.3817,0.0,0.0,0.0,0.0,0.0,0.0,0.0,-3.0297,0.0,-3.7372,-3.9703,-4.1687,-4.3116,-4.3521,-4.2868,-4.2244,-4.1836,-4.0928,-3.9388,-3.6918,-3.5098,-3.3202,-3.1001,0.0,0.0,0.0,0.0,0.0,0.0,0.0,0.0,0.0,0.0,0.0,0.0,0.0,0.0,-3.7869,-3.625,-3.5464,-3.4711,-3.4013,-3.4307,-3.4321,-3.4128,-3.4211,-3.3879,-3.3316,-3.397,-3.329,-3.1777,-3.2165,-3.127,-2.9406,-2.92,-2.8591,-2.78,-2.8646,-2.8296,0.0,0.0,0.0,0.0,0.0,0.0,0.0,0.0,0.0,-2.519,-2.475,-2.419,-2.3604,-2.4409,-2.5372,-2.6494,-2.8403,-3.001,-3.1152,-3.2017,-3.2231,-3.1824,-3.0621,-2.8925,-2.679,0.0,0.0,0.0,0.0,-2.1727,0.0,0.0,0.0,0.0,0.0,0.0,0.0,0.0,0.0,0.0,0.0,0.0,0.0,0.0,0.0,0.0,0.0,0.0,0.0,0.0,-2.3306,-2.3786,-2.4668,-2.4751,-2.3471,-2.3764,-2.4214,-2.4511,0.0,0.0,0.0,0.0,0.0,0.0,-3.5294,-3.829,-4.0646,-4.1917,-4.2781,-4.335,-4.226,-4.1466,-4.178,-4.0351,-3.8692,-3.7164,-3.5317,-3.3457,-3.171,-3.0849,-3.0359,-3.0184,-2.9325,-2.8474,-2.7856,0.0,0.0,0.0,0.0,0.0,0.0,0.0,0.0,-3.9232,-3.7653,-3.6144,-3.5411,-3.5305,-3.5956,-3.5983,-3.5568,-3.6302,-3.5963,-3.4697,-3.5025,-3.415,-3.2387,-3.1801,-3.0946,-2.9768,-2.8852,-2.8614,-2.8959,-3.0151,-3.0061,-2.8864,-2.9032,-2.8657,-2.8161,-2.7408,-2.6742,-2.6204,-2.603,-2.5843,-2.5391,-2.4487,-2.4034,-2.4034,-2.5207,-2.6365,-2.7407,-2.9769,-3.1579,-3.2715,-3.3076,-3.3055,-3.2573,-3.1416,-2.9718,-2.7561,0.0,0.0,0.0,0.0,-2.2247,0.0,0.0,0.0,0.0,0.0,0.0,0.0,0.0,0.0,0.0,0.0,0.0,0.0,0.0,0.0,0.0,0.0,0.0,0.0,0.0,-2.3936,-2.4485,-2.4476,-2.3933,-2.2616,-2.24,-2.2413,0.0,0.0,0.0,0.0,0.0,-3.0749,-3.4127,-3.6734,-3.9086,-4.1227,-4.1595,-4.1723,-4.1864,-4.1127,-4.0451,-4.0193,-3.9962,-3.9126,-3.6965,-3.6204,0.0,0.0,0.0,0.0,0.0,0.0,0.0,0.0,0.0,0.0,0.0,0.0,0.0,0.0,0.0,0.0,-4.4042,-4.131,-4.0196,-3.9944,-4.0198,-3.9722,-4.0417,-4.1723,-4.1055,-3.9659,-3.7977,-3.8032,-3.6558,-3.3935,-3.3076,-3.2532,-3.2122,-3.1416,-3.1243,-3.1623,-3.2665,-3.2375,-3.0927,-3.179,-3.1394,-3.0055,-2.9709,-2.8557,-2.6697,-2.7133,-2.6675,-2.5305,-2.4809,-2.4533,-2.4441,-2.5557,-2.6989,-2.8592,-3.0242,-3.1879,-3.3405,-3.3179,-3.3028,-3.3055,-3.1875,-3.0256,-2.816,-2.668,0.0,0.0,-2.3212,-2.28,0.0,0.0,0.0,0.0,0.0,0.0,0.0,0.0,0.0,0.0,0.0,0.0,0.0,0.0,0.0,0.0,0.0,0.0,0.0,0.0,-2.429,-2.4452,-2.4228,-2.3526,-2.2155,-2.2105,-2.2255,-2.2365,-2.3897,-2.5414,-2.66,-2.9257,-3.2087,-3.4839,-3.7602,-3.9617,-4.0495,-4.0921,-4.1342,-4.1736,-4.1064,-4.0674,-4.1136,-3.9888,-3.873,-3.8226,-3.6795,-3.5663,-3.5449,-3.4547,-3.3626,-3.3072,-3.3584,-3.3184,-3.0373,-2.9481,-2.9042,-2.8408,-2.8033,-2.7749,-2.7483,-2.7494,-2.742,-4.7767,-4.4703,-4.3665,-4.3466,-4.3844,-4.3378,-4.3983,-4.5317,-4.451,-4.3269,-4.1715,-4.1396,-3.9595,-3.6816,-3.5704,-3.4813,-3.4049,-3.4138,-3.4094,-3.4067,-3.5023,-3.4691,-3.3242,-3.4169,-3.3907,-3.2635,-3.3045,-3.1901,-2.9493,-2.8904,-2.7773,-2.5926,-2.5741,-2.5566,-2.5413,-2.641,-2.7845,-2.9674,-3.1194,-3.2686,-3.4083,-3.3692,-3.349,-3.3587,-3.2243,-3.0726,-2.9132,-2.8062,-2.6751,0.0,-2.3941,0.0,0.0,0.0,0.0,0.0,0.0,0.0,0.0,0.0,0.0,0.0,0.0,0.0,0.0,0.0,0.0,0.0,0.0,0.0,0.0,-2.4978,-2.4992,-2.4713,-2.3997,-2.3054,-2.1964,-2.2316,-2.2786,-2.328,-2.5117,-2.6844,-2.7914,-3.0692,-3.36,-3.6331,-3.8435,-3.9892,-4.0554,-4.042,-4.0649,-4.1639,-4.0945,-4.0673,-4.1842,-4.059,-3.9519,-3.9709,-3.8183,-3.6693,-3.591,-3.5611,-3.5238,-3.4734,-3.4891,-3.4253,-3.1708,-3.0949,-3.0406,-2.9494,-2.9103,-2.8804,-2.8558,-2.8764,-2.8926,-5.0644,-4.7681,-4.658,-4.594,-4.5956,-4.6728,-4.676,-4.6402,-4.6797,-4.6676,-4.5882,-4.5002,-4.3247,-4.0817,-3.9323,-3.7555,-3.5554,-3.6875,-3.7002,-3.6247,-3.7162,-3.6938,-3.58,-3.6107,-3.6112,-3.5869,-3.69,-3.6319,-3.4066,-3.1322,-2.9101,-2.7502,-2.7267,-2.7081,-2.6801,-2.78,-2.9065,-3.0662,-3.2591,-3.4068,-3.4856,-3.457,-3.431,-3.406,-3.2457,-3.1198,-3.0432,-2.9048,-2.7614,-2.6174,-2.4681,0.0,0.0,0.0,0.0,0.0,0.0,0.0,0.0,0.0,0.0,0.0,0.0,0.0,0.0,0.0,0.0,0.0,0.0,0.0,-2.5189,-2.5959,-2.5993,-2.5319,-2.3852,-2.2712,-2.2288,-2.3048,-2.3999,-2.5014,-2.7366,-2.9086,-2.9443,-3.2184,-3.5337,-3.8514,-3.9239,-3.9984,-4.134,-4.0172,-3.9829,-4.1647,-4.0762,-4.0512,-4.2173,-4.1844,-4.1324,-4.1172,-4.015,-3.8605,-3.6257,-3.5943,-3.5801,-3.5148,-3.4644,-3.4341,-3.4315,-3.3369,-3.2495,-3.1634,-3.0768,-3.0269,-3.0215,-3.0252,-3.0357,-5.6427,-5.1837,-5.1047,-5.1256,-5.2044,-5.1539,-5.2099,-5.3365,-5.3079,-5.1584,-4.9221,-4.8993,-4.6577,-4.2828,-4.1592,-4.0331,-3.8959,-3.8934,-3.9085,-3.9375,-3.9035,-3.859,-3.8031,-3.8286,-3.8078,-3.7502,-3.8234,-3.7673,-3.6043,-3.5208,-3.2727,-2.885,-2.9148,-2.8673,-2.7551,-2.924,-3.079,-3.1942,-3.3645,-3.4747,-3.5166,-3.4481,-3.3717,-3.2931,-3.2491,-3.1835,-3.101,-2.9957,-2.8642,-2.7049,-2.5707,0.0,-2.3358,0.0,0.0,0.0,0.0,-2.0914,-2.1449,-2.0373,0.0,0.0,0.0,-2.0116,0.0,0.0,0.0,0.0,-2.1921,-2.3176,-2.3814,-2.4906,-2.5375,-2.4937,-2.4238,-2.4111,-2.4937,-2.5273,-2.6248,-2.829,-3.0011,-3.1895,-3.4088,-3.5597,-3.7011,-3.846,-4.0313,-4.1445,-4.1206,-4.1526,-4.2116,-4.3015,-4.2711,-4.2525,-4.2959,-4.2389,-4.1613,-4.0729,-3.9688,-3.8453,-3.6865,-3.6594,-3.6133,-3.4649,-3.4242,-3.3906,-3.2972,-3.2643,-3.2156,-3.1381,-3.0931,-3.079,-3.0757,-3.079,-3.0623,-6.0255,-5.6541,-5.5528,-5.5549,-5.6251,-5.5193,-5.5518,-5.6759,-5.5929,-5.4604,-5.2993,-5.2235,-5.0009,-4.6634,-4.4121,-4.2426,-4.1464,-4.0828,-4.0747,-4.1183,-4.0682,-4.0328,-4.0165,-4.0265,-4.0117,-3.9789,-3.9901,-3.9237,-3.7877,-3.7802,-3.5614,-3.1495,-3.1402,-3.0838,-2.9653,-3.1017,-3.2318,-3.3393,-3.4362,-3.5008,-3.5105,-3.413,-3.3215,-3.2459,-3.2388,-3.195,-3.1078,-3.0208,-2.9036,-2.7502,-2.6116,-2.483,0.0,-2.2532,-2.1496,-2.0539,-1.9729,-1.9494,-2.003,-1.9524,0.0,0.0,-2.0551,-2.0141,-1.9497,0.0,0.0,-2.0712,-2.2482,-2.4004,-2.4525,-2.5563,-2.6155,-2.5993,-2.5653,-2.6013,-2.739,-2.7947,-2.9113,-3.1354,-3.2952,-3.4846,-3.725,-3.8489,-3.9396,-3.9963,-4.1354,-4.2304,-4.2163,-4.2659,-4.3185,-4.364,-4.3547,-4.3428,-4.351,-4.272,-4.1661,-4.0325,-3.9308,-3.8319,-3.7341,-3.6711,-3.5934,-3.4877,-3.4037,-3.3306,-3.2469,-3.2047,-3.1631,-3.1133,-3.1012,-3.0931,-3.0648,-3.0561,-3.032,-6.2553,-6.1148,-5.9607,-5.8878,-5.8673,-5.7765,-5.7312,-5.7172,-5.6329,-5.6256,-5.6572,-5.4637,-5.2975,-5.1357,-4.6609,-4.4106,-4.3441,-4.2616,-4.2142,-4.2043,-4.2028,-4.2022,-4.1976,-4.1827,-4.1936,-4.212,-4.1615,-4.0745,-3.9552,-3.9343,-3.7752,-3.4802,-3.3868,-3.3266,-3.2938,-3.2926,-3.3616,-3.4869,-3.4951,-3.4916,-3.4801,-3.3554,-3.275,-3.2354,-3.2162,-3.1655,-3.0786,-2.9834,-2.8801,-2.7593,-2.6048,-2.4695,-2.3578,-2.228,-2.0867,-1.9365,-1.8586,-1.846,-1.9122,-1.9543,-1.9902,-2.022,-2.0732,-2.0709,-1.9872,-2.1194,-2.1844,-2.135,-2.3611,-2.5525,-2.659,-2.721,-2.7709,-2.8086,-2.7866,-2.8253,-2.968,-3.0937,-3.2337,-3.4032,-3.5882,-3.7652,-3.9192,-4.0761,-4.1934,-4.2453,-4.2514,-4.2775,-4.3665,-4.3457,-4.3396,-4.3743,-4.3548,-4.3525,-4.3585,-4.2631,-4.1252,-3.9911,-3.893,-3.801,-3.7248,-3.6261,-3.5498,-3.5094,-3.3834,-3.2597,-3.2531,-3.1583,-3.0932,-3.0858,-3.0897,-3.0715,-3.0224,-3.0002,-2.9698,-6.3649,-6.2938,-6.1835,-6.061,-5.9437,-5.8968,-5.8403,-5.7713,-5.7509,-5.6995,-5.6171,-5.5008,-5.2978,-5.0266,-4.7364,-4.6021,-4.592,-4.3837,-4.3289,-4.3911,-4.2729,-4.2373,-4.2713,-4.2099,-4.1837,-4.1842,-4.1452,-4.0824,-3.9962,-3.9368,-3.837,-3.7018,-3.6035,-3.4648,-3.2926,-3.3856,-3.4548,-3.4903,-3.5343,-3.507,-3.4014,-3.291,-3.2246,-3.202,-3.1304,-3.0728,-3.0341,-2.8757,-2.7672,-2.7137,-2.6003,-2.4862,-2.3824,-2.2568,-2.1307,-2.0165,-1.9224,-1.8944,-1.9463,-1.9684,-1.9926,-2.0194,-2.1001,-2.1073,-2.0034,-2.1981,-2.2934,-2.2145,-2.3772,-2.5322,-2.6443,-2.6807,-2.7946,-3.0342,-3.0193,-3.0931,-3.3312,-3.4023,-3.4803,-3.6106,-3.7259,-3.8697,-4.0852,-4.1704,-4.2463,-4.3359,-4.3586,-4.3474,-4.305,-4.3522,-4.4052,-4.4191,-4.3747,-4.3364,-4.3001,-4.1406,-3.9758,-3.8764,-3.785,-3.6869,-3.5642,-3.5271,-3.4632,-3.3234,-3.2658,-3.1999,-3.1176,-3.0887,-3.067,-3.0174,-3.0171,-3.0311,-3.0277,-2.9709,-2.8973,-6.377,-6.3357,-6.2412,-6.1345,-6.0202,-5.9475,-5.8861,-5.8311,-5.7667,-5.6807,-5.5889,-5.4559,-5.2368,-4.9642,-4.8079,-4.7067,-4.6449,-4.4246,-4.374,-4.4493,-4.3281,-4.2995,-4.3507,-4.2573,-4.2192,-4.2334,-4.1484,-4.0747,-4.0051,-3.932,-3.8478,-3.765,-3.6719,-3.5572,-3.4336,-3.4993,-3.5361,-3.533,-3.5015,-3.447,-3.3659,-3.2634,-3.1984,-3.1784,-3.1351,-3.0674,-2.9714,-2.8575,-2.747,-2.6447,-2.5625,-2.4773,-2.3916,-2.2843,-2.1884,-2.1039,-2.0304,-1.9957,-2.0151,-2.0301,-2.0441,-2.0604,-2.1207,-2.144,-2.1219,-2.2614,-2.3719,-2.4268,-2.5232,-2.6406,-2.7842,-2.8864,-3.0201,-3.1956,-3.2662,-3.3768,-3.5637,-3.6086,-3.6762,-3.7908,-3.8555,-3.9595,-4.1462,-4.1899,-4.2238,-4.2962,-4.3136,-4.3122,-4.2956,-4.3559,-4.399,-4.3637,-4.3355,-4.2718,-4.1594,-3.9829,-3.8325,-3.7473,-3.6405,-3.5427,-3.4798,-3.4238,-3.354,-3.2587,-3.1954,-3.1411,-3.0762,-3.0348,-3.0062,-2.9682,-2.9273,-2.9145,-2.9292,-2.8881,-2.8283,-6.3357,-6.2891,-6.1965,-6.123,-6.0505,-5.9172,-5.8671,-5.8654,-5.7298,-5.6252,-5.534,-5.3661,-5.1528,-4.9194,-4.8443,-4.7402,-4.6051,-4.421,-4.3709,-4.4327,-4.3611,-4.3621,-4.4202,-4.3024,-4.2662,-4.2927,-4.1547,-4.0619,-4.0179,-3.9222,-3.8372,-3.7594,-3.6638,-3.6096,-3.5975,-3.5885,-3.573,-3.5598,-3.4333,-3.3605,-3.342,-3.2524,-3.191,-3.1617,-3.1575,-3.0708,-2.901,-2.8621,-2.758,-2.5681,-2.5309,-2.478,-2.3901,-2.3224,-2.2555,-2.1854,-2.1471,-2.124,-2.1068,-2.1245,-2.1455,-2.1641,-2.1748,-2.2037,-2.2633,-2.3429,-2.4786,-2.69,-2.7377,-2.8271,-2.9995,-3.1752,-3.3,-3.3528,-3.4988,-3.6338,-3.7163,-3.7652,-3.8292,-3.9356,-3.9666,-4.033,-4.1538,-4.1696,-4.1767,-4.2108,-4.2209,-4.2303,-4.2642,-4.3189,-4.3242,-4.2365,-4.238,-4.1563,-3.9661,-3.8177,-3.7067,-3.6193,-3.5096,-3.4152,-3.4302,-3.336,-3.2538,-3.2481,-3.1589,-3.0757,-3.0775,-3.0009,-2.9376,-2.9218,-2.8509,-2.7977,-2.8065,-2.7929,-2.7504,-6.2748,-6.1383,-6.0882,-5.9915,-5.8625,-5.7594,-5.7466,-5.7961,-5.7056,-5.559,-5.3664,-5.2738,-5.0969,-4.865,-4.776,-4.687,-4.588,-4.3988,-4.3602,-4.4359,-4.3518,-4.3416,-4.3914,-4.284,-4.2373,-4.2377,-4.1311,-4.0659,-4.0535,-3.9158,-3.8401,-3.8184,-3.6659,-3.5878,-3.5822,-3.5069,-3.4677,-3.4643,-3.4003,-3.3264,-3.2571,-3.2002,-3.1617,-3.1485,-3.0249,-2.9265,-2.8609,-2.7708,-2.6618,-2.5323,-2.6143,-2.5926,-2.4297,-2.3853,-2.3278,-2.248,-2.2331,-2.2204,-2.1978,-2.2514,-2.3358,-2.4394,-2.4106,-2.3638,-2.3234,-2.551,-2.7439,-2.849,-2.9334,-3.0396,-3.1845,-3.2431,-3.3609,-3.5543,-3.6531,-3.7485,-3.8568,-3.9164,-3.9647,-3.9844,-4.0156,-4.0646,-4.1437,-4.1701,-4.181,-4.1953,-4.2084,-4.1759,-4.1044,-4.146,-4.1736,-4.148,-4.0763,-3.9597,-3.7896,-3.6877,-3.5906,-3.4984,-3.4356,-3.3748,-3.3294,-3.2861,-3.2297,-3.191,-3.1158,-3.0473,-3.0194,-2.966,-2.9024,-2.8596,-2.8085,-2.7789,-2.7963,-2.7385,-2.6758,-6.2346,-6.0966,-6.0275,-5.9416,-5.8375,-5.7082,-5.6494,-5.6503,-5.5883,-5.4461,-5.2442,-5.1316,-5.0063,-4.862,-4.7431,-4.6569,-4.5961,-4.3994,-4.3466,-4.4092,-4.3233,-4.3146,-4.3625,-4.254,-4.2085,-4.2179,-4.1027,-4.0314,-3.9929,-3.8917,-3.8163,-3.7706,-3.6423,-3.5768,-3.5656,-3.5105,-3.4499,-3.3782,-3.322,-3.272,-3.2212,-3.1706,-3.1408,-3.1312,-3.0093,-2.9368,-2.9106,-2.7698,-2.6561,-2.5881,-2.6218,-2.5968,-2.4925,-2.5032,-2.4889,-2.4359,-2.4373,-2.4187,-2.3721,-2.4191,-2.4736,-2.5301,-2.6074,-2.6268,-2.5741,-2.7199,-2.8758,-3.0153,-3.0732,-3.1631,-3.3071,-3.3856,-3.4929,-3.6519,-3.7579,-3.8479,-3.9169,-3.9696,-4.0011,-3.995,-3.9882,-4.0017,-4.0588,-4.041,-4.0296,-4.0436,-4.0539,-4.0259,-3.9436,-3.9936,-4.0429,-3.9889,-3.8987,-3.7867,-3.6776,-3.5615,-3.4693,-3.387,-3.3396,-3.2912,-3.2342,-3.2023,-3.1663,-3.1038,-3.0386,-2.979,-2.9241,-2.8788,-2.8257,-2.7598,-2.7156,-2.6729,-2.6535,-2.6116,-2.5813,-6.181,-6.067,-5.9661,-5.8925,-5.8285,-5.661,-5.5368,-5.448,-5.4121,-5.3136,-5.1598,-5.0058,-4.9009,-4.8443,-4.7086,-4.623,-4.5605,-4.3834,-4.3298,-4.3695,-4.288,-4.2774,-4.3262,-4.2142,-4.1694,-4.193,-4.0772,-3.984,-3.9166,-3.8572,-3.7877,-3.7013,-3.6163,-3.5588,-3.5261,-3.5113,-3.4331,-3.2926,-3.2588,-3.2279,-3.1907,-3.1441,-3.1196,-3.1112,-3.0253,-2.9766,-2.9629,-2.8174,-2.7121,-2.6675,-2.6533,-2.623,-2.5786,-2.632,-2.6495,-2.6244,-2.6291,-2.6105,-2.5579,-2.5846,-2.6048,-2.6022,-2.7861,-2.8811,-2.8411,-2.8774,-2.9759,-3.1536,-3.1936,-3.2727,-3.4172,-3.5366,-3.6395,-3.7213,-3.8326,-3.9126,-3.9373,-3.9691,-3.9905,-3.9915,-3.9438,-3.9161,-3.9571,-3.9204,-3.8711,-3.8685,-3.9013,-3.8611,-3.7933,-3.8608,-3.9059,-3.8246,-3.7445,-3.655,-3.5758,-3.4575,-3.3517,-3.3149,-3.2614,-3.2098,-3.1703,-3.1268,-3.0802,-3.0394,-2.961,-2.8948,-2.8379,-2.7901,-2.7324,-2.6678,-2.6241,-2.5688,-2.4895,-2.4671,-2.4655,-6.0628,-5.9533,-5.8473,-5.7603,-5.6809,-5.515,-5.3407,-5.1709,-5.1591,-5.1474,-5.1111,-4.9533,-4.8166,-4.7066,-4.6313,-4.5221,-4.3865,-4.3144,-4.2942,-4.3027,-4.2461,-4.2429,-4.2896,-4.1606,-4.1181,-4.1393,-4.0327,-3.9539,-3.8996,-3.8333,-3.7634,-3.6933,-3.6005,-3.5104,-3.4297,-3.4184,-3.3384,-3.1878,-3.2634,-3.2425,-3.1113,-3.0986,-3.0912,-3.0736,-2.9888,-2.9288,-2.9017,-2.8739,-2.8227,-2.7368,-2.8371,-2.8291,-2.6857,-2.7226,-2.7117,-2.6306,-2.6656,-2.6868,-2.6853,-2.7185,-2.7705,-2.839,-2.9557,-2.9891,-2.9132,-3.0588,-3.1715,-3.209,-3.3227,-3.4476,-3.5495,-3.6432,-3.7331,-3.8156,-3.859,-3.898,-3.9337,-3.9445,-3.9625,-3.9879,-3.9404,-3.9017,-3.9108,-3.8983,-3.8645,-3.8476,-3.8402,-3.8364,-3.7292,-3.7506,-3.7661,-3.7056,-3.6388,-3.5657,-3.4778,-3.3698,-3.3034,-3.2998,-3.2274,-3.172,-3.15,-3.0853,-3.0288,-3.018,-2.9068,-2.8293,-2.8252,-2.7442,-2.6732,-2.6366,-2.5934,-2.5273,-2.4328,-2.3628,-2.3213,-6.0206,-5.8838,-5.8024,-5.7051,-5.5862,-5.3863,-5.2276,-5.112,-5.0096,-4.9684,-4.9553,-4.8509,-4.738,-4.6289,-4.5622,-4.4899,-4.4027,-4.3199,-4.2856,-4.2965,-4.2293,-4.2174,-4.2363,-4.161,-4.1135,-4.1005,-4.0343,-3.9347,-3.812,-3.7758,-3.7172,-3.6208,-3.5574,-3.4831,-3.397,-3.3881,-3.3161,-3.1648,-3.2162,-3.1901,-3.0844,-3.0729,-3.0667,-3.0572,-2.9642,-2.9237,-2.9479,-2.8543,-2.8008,-2.8041,-2.8421,-2.8261,-2.7507,-2.7967,-2.8008,-2.7377,-2.7692,-2.79,-2.7862,-2.8435,-2.8973,-2.9506,-3.0637,-3.1168,-3.0825,-3.1701,-3.2589,-3.3304,-3.4236,-3.5196,-3.6286,-3.688,-3.7461,-3.8256,-3.8501,-3.8797,-3.9156,-3.9337,-3.9397,-3.9254,-3.872,-3.8262,-3.806,-3.7862,-3.7624,-3.7225,-3.7124,-3.6633,-3.5968,-3.5786,-3.5845,-3.5789,-3.5105,-3.4446,-3.3933,-3.3276,-3.2673,-3.2428,-3.2135,-3.1593,-3.1036,-3.0407,-3.008,-2.9428,-2.8459,-2.7762,-2.751,-2.6683,-2.6039,-2.5437,-2.4957,-2.4201,-2.3356,-2.198,-2.1137,-5.9788,-5.8471,-5.7453,-5.6221,-5.4779,-5.2855,-5.1541,-5.0606,-4.9336,-4.8397,-4.7912,-4.754,-4.672,-4.5694,-4.5207,-4.4713,-4.4076,-4.3346,-4.2926,-4.2837,-4.2246,-4.1943,-4.1884,-4.1531,-4.1102,-4.0596,-4.0282,-3.9109,-3.7369,-3.7319,-3.6707,-3.5482,-3.5175,-3.4612,-3.3776,-3.3766,-3.3048,-3.1714,-3.1701,-3.1378,-3.07,-3.0489,-3.0405,-3.0288,-2.95,-2.9275,-2.9663,-2.849,-2.8062,-2.865,-2.8427,-2.8297,-2.8409,-2.885,-2.8979,-2.8818,-2.8956,-2.8978,-2.8896,-2.9634,-3.0218,-3.0495,-3.1674,-3.2429,-3.2522,-3.2773,-3.334,-3.4326,-3.4759,-3.5475,-3.6591,-3.7003,-3.7424,-3.8115,-3.8315,-3.8575,-3.8907,-3.9156,-3.9098,-3.8587,-3.8026,-3.7507,-3.7097,-3.681,-3.6547,-3.6138,-3.5525,-3.5103,-3.478,-3.4275,-3.4214,-3.427,-3.3804,-3.3304,-3.3245,-3.2796,-3.2253,-3.1707,-3.1655,-3.109,-3.0261,-3.0017,-2.9639,-2.8573,-2.7814,-2.71,-2.6382,-2.5579,-2.4958,-2.4398,-2.3775,-2.3052,-2.2257,-2.0548,-1.9348,-5.8797,-5.8559,-5.6393,-5.4433,-5.2975,-5.241,-5.107,-4.9432,-4.9337,-4.8239,-4.6615,-4.7024,-4.6403,-4.5112,-4.5171,-4.4387,-4.2982,-4.3257,-4.2999,-4.2268,-4.2088,-4.1818,-4.1358,-4.1023,-4.0638,-4.0208,-3.9884,-3.875,-3.7084,-3.697,-3.6332,-3.5096,-3.4939,-3.4438,-3.3693,-3.3594,-3.2947,-3.1648,-3.155,-3.1208,-3.0555,-3.0333,-3.0108,-2.9859,-2.9617,-2.9371,-2.9243,-2.9374,-2.9342,-2.908,-2.9248,-2.9566,-2.9919,-2.991,-3.0078,-3.046,-3.0233,-3.0011,-2.995,-3.0925,-3.1595,-3.1741,-3.2791,-3.3492,-3.3553,-3.4101,-3.4409,-3.4603,-3.5112,-3.5752,-3.6344,-3.7004,-3.7594,-3.7978,-3.8132,-3.8315,-3.8509,-3.8723,-3.8707,-3.8228,-3.7689,-3.7263,-3.6757,-3.6514,-3.6207,-3.5574,-3.5166,-3.4528,-3.3706,-3.3319,-3.3075,-3.3013,-3.2638,-3.2466,-3.2467,-3.2165,-3.1562,-3.1011,-3.0704,-3.0204,-2.9485,-2.8889,-2.8343,-2.7857,-2.6903,-2.6204,-2.5395,-2.4461,-2.3609,-2.3294,-2.2753,-2.2041,-2.1129,-1.9773,-1.8959,-5.7532,-5.7196,-5.5664,-5.4124,-5.2704,-5.2143,-5.1038,-4.9591,-4.8729,-4.7778,-4.6687,-4.6177,-4.5281,-4.4182,-4.4794,-4.4273,-4.2901,-4.3176,-4.2886,-4.2181,-4.1992,-4.1534,-4.0851,-4.0601,-4.0198,-3.9471,-3.8907,-3.7917,-3.6757,-3.6059,-3.5373,-3.4691,-3.4343,-3.3726,-3.2919,-3.2527,-3.1825,-3.0793,-3.0803,-3.0672,-3.0366,-3.0215,-3.0087,-2.9913,-2.9726,-2.9525,-2.9344,-2.9344,-2.9344,-2.9353,-2.9679,-3.0014,-3.0204,-3.0462,-3.0635,-3.0695,-3.0937,-3.1114,-3.1191,-3.2014,-3.2514,-3.2514,-3.3336,-3.3897,-3.3994,-3.4614,-3.4997,-3.509,-3.5491,-3.5972,-3.6517,-3.6904,-3.7168,-3.7367,-3.736,-3.7542,-3.8062,-3.8135,-3.8043,-3.7594,-3.7302,-3.6743,-3.6015,-3.5747,-3.5416,-3.488,-3.454,-3.4088,-3.301,-3.2539,-3.2213,-3.203,-3.1686,-3.1515,-3.1575,-3.1274,-3.073,-3.0216,-3.0014,-2.9724,-2.8897,-2.8293,-2.7752,-2.7198,-2.6199,-2.5271,-2.4593,-2.3781,-2.294,-2.2395,-2.1624,-2.0887,-2.0098,-1.8886,-1.8178,-5.6384,-5.5827,-5.4679,-5.3333,-5.1925,-5.1282,-5.0315,-4.9109,-4.7945,-4.6988,-4.6215,-4.551,-4.4608,-4.3748,-4.4398,-4.4121,-4.32,-4.3249,-4.2978,-4.2419,-4.2037,-4.1427,-4.0681,-4.0298,-3.9747,-3.8967,-3.8171,-3.7199,-3.6058,-3.5194,-3.4568,-3.4169,-3.3725,-3.3004,-3.2083,-3.1582,-3.097,-3.0249,-3.0205,-3.0184,-3.0141,-3.0044,-2.9989,-2.9924,-2.9704,-2.9525,-2.9389,-2.9252,-2.9229,-2.9398,-2.995,-3.0323,-3.0464,-3.1022,-3.133,-3.135,-3.1746,-3.2107,-3.2284,-3.2933,-3.3319,-3.3378,-3.394,-3.4357,-3.4542,-3.4866,-3.5198,-3.5356,-3.5611,-3.5912,-3.6502,-3.662,-3.6645,-3.6787,-3.6781,-3.7052,-3.7464,-3.7559,-3.7429,-3.6941,-3.6827,-3.6348,-3.535,-3.5112,-3.4901,-3.3891,-3.3856,-3.3522,-3.2409,-3.1824,-3.162,-3.1234,-3.0773,-3.0602,-3.0719,-3.0655,-3.0056,-2.9228,-2.9009,-2.8719,-2.8055,-2.7344,-2.6762,-2.5882,-2.5085,-2.4276,-2.339,-2.2706,-2.1882,-2.105,-2.0372,-1.9855,-1.9436,-1.8174,-1.752,-5.5313,-5.5024,-5.3148,-5.1541,-5.0097,-4.954,-4.8422,-4.7246,-4.6888,-4.5979,-4.48,-4.5138,-4.4644,-4.342,-4.3891,-4.3775,-4.3349,-4.3536,-4.3348,-4.2766,-4.2271,-4.1626,-4.0963,-4.0173,-3.9455,-3.8586,-3.771,-3.6565,-3.5084,-3.4683,-3.4088,-3.329,-3.3216,-3.2508,-3.1368,-3.113,-3.0749,-3.0054,-2.9836,-2.9814,-2.9913,-2.9671,-2.9637,-2.9659,-2.948,-2.9298,-2.9183,-2.9252,-2.9275,-2.9137,-2.9982,-3.0648,-3.1128,-3.1823,-3.2457,-3.2883,-3.2872,-3.2855,-3.3028,-3.3682,-3.4161,-3.4218,-3.4723,-3.5106,-3.5047,-3.4975,-3.5001,-3.5195,-3.5222,-3.5548,-3.6052,-3.6204,-3.6344,-3.6645,-3.6728,-3.6757,-3.681,-3.698,-3.6823,-3.6416,-3.6309,-3.5806,-3.4678,-3.4939,-3.4188,-3.3175,-3.3164,-3.3062,-3.1535,-3.1238,-3.1027,-3.0473,-2.9985,-2.9755,-3.0043,-2.9891,-2.9276,-2.8429,-2.7659,-2.7306,-2.6415,-2.5668,-2.5171,-2.4745,-2.4269,-2.3463,-2.2221,-2.1168,-2.0223,-1.9543,-1.9238,-1.8855,-1.8491,-1.778,-1.7182,-5.3957,-5.3181,-5.1498,-5.046,-4.9988,-4.9378,-4.8261,-4.687,-4.6472,-4.5795,-4.4911,-4.4422,-4.4043,-4.3943,-4.3659,-4.3389,-4.316,-4.3518,-4.3025,-4.1948,-4.1919,-4.0939,-3.914,-3.894,-3.8163,-3.69,-3.6162,-3.5184,-3.408,-3.4154,-3.3819,-3.304,-3.2602,-3.1913,-3.107,-3.0508,-3.0085,-2.9704,-2.9582,-2.9592,-2.9538,-2.9515,-2.947,-2.9457,-2.9425,-2.9457,-2.948,-2.9357,-2.9512,-2.9972,-3.0656,-3.1307,-3.188,-3.2395,-3.2694,-3.2804,-3.2982,-3.3241,-3.3638,-3.43,-3.4904,-3.5294,-3.5372,-3.5297,-3.5198,-3.4935,-3.4765,-3.4731,-3.4831,-3.5012,-3.52,-3.5551,-3.5773,-3.5751,-3.5777,-3.5883,-3.5977,-3.6094,-3.6109,-3.5921,-3.5525,-3.4726,-3.4211,-3.3974,-3.3411,-3.234,-3.2458,-3.2072,-3.1008,-3.0391,-2.9891,-2.9424,-2.8791,-2.8281,-2.8138,-2.8417,-2.8207,-2.7314,-2.6591,-2.6345,-2.5741,-2.4762,-2.4189,-2.392,-2.3513,-2.2535,-2.1235,-1.9852,-1.889,-1.8182,-1.7888,-1.7946,-1.7412,-1.6853,-1.6451,-5.2209,-5.0829,-4.996,-4.9339,-4.898,-4.8372,-4.7393,-4.6168,-4.5614,-4.4967,-4.4209,-4.3589,-4.3424,-4.3497,-4.3199,-4.2849,-4.2663,-4.317,-4.2682,-4.1397,-4.158,-4.0576,-3.8786,-3.8288,-3.7466,-3.6123,-3.5084,-3.4164,-3.3266,-3.3387,-3.309,-3.2311,-3.171,-3.1083,-3.0376,-2.9852,-2.956,-2.9403,-2.9289,-2.922,-2.9175,-2.9252,-2.9266,-2.9307,-2.9603,-2.9717,-2.9679,-2.9658,-2.9876,-3.0511,-3.1253,-3.1931,-3.2499,-3.2765,-3.2893,-3.2922,-3.3282,-3.3752,-3.4243,-3.4698,-3.5091,-3.5484,-3.5162,-3.4869,-3.4709,-3.4551,-3.4399,-3.4332,-3.4428,-3.4563,-3.4798,-3.5096,-3.5261,-3.5228,-3.5166,-3.5311,-3.5495,-3.541,-3.5274,-3.5047,-3.449,-3.386,-3.3341,-3.3136,-3.2544,-3.1566,-3.16,-3.1216,-3.0305,-2.9402,-2.8766,-2.8504,-2.7905,-2.7397,-2.706,-2.7028,-2.7161,-2.6422,-2.5538,-2.53,-2.4902,-2.396,-2.3288,-2.3022,-2.2405,-2.1392,-2.0169,-1.8726,-1.778,-1.7025,-1.7101,-1.7329,-1.671,-1.6059,-1.5803,-5.0077,-4.8476,-4.8505,-4.802,-4.701,-4.6537,-4.5624,-4.4691,-4.4338,-4.3526,-4.2628,-4.2911,-4.2869,-4.2299,-4.249,-4.221,-4.2059,-4.2594,-4.2357,-4.146,-4.1181,-4.0469,-3.9268,-3.8042,-3.7101,-3.6364,-3.5007,-3.372,-3.2752,-3.241,-3.1931,-3.1209,-3.0583,-2.9983,-2.916,-2.9252,-2.9198,-2.9059,-2.885,-2.8779,-2.8873,-2.8881,-2.8959,-2.9154,-2.9878,-3.0082,-2.9608,-3.0099,-3.0481,-3.0711,-3.1656,-3.2524,-3.2934,-3.2962,-3.3025,-3.3272,-3.3778,-3.4332,-3.4729,-3.4636,-3.4574,-3.4813,-3.4184,-3.3983,-3.4123,-3.4071,-3.4088,-3.4162,-3.423,-3.4366,-3.4769,-3.4935,-3.5034,-3.5162,-3.5166,-3.5291,-3.5299,-3.5015,-3.445,-3.3937,-3.3575,-3.3154,-3.2613,-3.237,-3.192,-3.0949,-3.045,-3.0157,-2.9344,-2.851,-2.7994,-2.7708,-2.7141,-2.6495,-2.6078,-2.5716,-2.5768,-2.5595,-2.4693,-2.4101,-2.3725,-2.2979,-2.2304,-2.1963,-2.1285,-2.0297,-1.9239,-1.7907,-1.7286,-1.6705,-1.6801,-1.6615,-1.6009,-1.5507,-1.5362,-4.9202,-4.8387,-4.7736,-4.6774,-4.5833,-4.5754,-4.4708,-4.3053,-4.3296,-4.2881,-4.2167,-4.2676,-4.2796,-4.258,-4.2562,-4.2353,-4.2006,-4.1917,-4.1292,-4.0353,-4.0212,-3.9298,-3.7834,-3.7321,-3.6327,-3.4665,-3.3062,-3.211,-3.1724,-3.1343,-3.0785,-3.0167,-2.9813,-2.9339,-2.8834,-2.8701,-2.8661,-2.874,-2.8573,-2.8525,-2.8573,-2.8692,-2.8842,-2.8999,-2.995,-3.0392,-3.0163,-3.0744,-3.1292,-3.1731,-3.2114,-3.253,-3.2939,-3.2993,-3.2839,-3.2718,-3.2765,-3.3081,-3.3514,-3.3636,-3.4031,-3.4575,-3.4442,-3.4456,-3.462,-3.4489,-3.4395,-3.4332,-3.4428,-3.4631,-3.4731,-3.4868,-3.4909,-3.5195,-3.5166,-3.5073,-3.4925,-3.4579,-3.4014,-3.3358,-3.2974,-3.2586,-3.2049,-3.1661,-3.069,-2.9985,-2.9346,-2.8799,-2.8454,-2.7654,-2.7058,-2.6945,-2.6216,-2.5685,-2.5409,-2.497,-2.4641,-2.45,-2.3808,-2.3255,-2.2775,-2.209,-2.1455,-2.0748,-2.0059,-1.9222,-1.8144,-1.7386,-1.6756,-1.6287,-1.6147,-1.58,-1.5292,-1.5033,-1.4904,-4.8347,-4.7809,-4.6608,-4.5757,-4.5039,-4.4603,-4.3583,-4.2484,-4.2385,-4.212,-4.1779,-4.2266,-4.248,-4.238,-4.2336,-4.1984,-4.1477,-4.0982,-4.0149,-3.9186,-3.9228,-3.837,-3.6856,-3.6109,-3.5106,-3.3545,-3.2207,-3.1372,-3.0934,-3.0479,-2.994,-2.9337,-2.8895,-2.8583,-2.8332,-2.8222,-2.8277,-2.8405,-2.8356,-2.8387,-2.8508,-2.87,-2.8818,-2.9006,-2.9918,-3.0409,-3.0434,-3.1118,-3.1738,-3.2273,-3.2487,-3.2667,-3.2693,-3.2721,-3.266,-3.2471,-3.2494,-3.2659,-3.2967,-3.3273,-3.3607,-3.4333,-3.4322,-3.4335,-3.4555,-3.446,-3.4361,-3.4293,-3.4332,-3.4413,-3.4276,-3.4383,-3.446,-3.4389,-3.4596,-3.4475,-3.4088,-3.368,-3.3209,-3.2495,-3.1931,-3.1664,-3.1338,-3.0338,-2.9522,-2.9116,-2.8368,-2.7712,-2.7485,-2.6778,-2.6384,-2.602,-2.5573,-2.5157,-2.4823,-2.4282,-2.3608,-2.3285,-2.2905,-2.2579,-2.2233,-2.1296,-2.0496,-1.9749,-1.9019,-1.8363,-1.7355,-1.6948,-1.6435,-1.6008,-1.5696,-1.5479,-1.5198,-1.4663,-1.4428,-4.7339,-4.6635,-4.5309,-4.4806,-4.4588,-4.3091,-4.2462,-4.2403,-4.1665,-4.1187,-4.1246,-4.169,-4.1882,-4.1734,-4.1647,-4.122,-4.0469,-3.9855,-3.9237,-3.8463,-3.8177,-3.7528,-3.6483,-3.4844,-3.36,-3.2753,-3.1957,-3.1168,-3.0285,-2.9729,-2.9275,-2.8505,-2.794,-2.7615,-2.7685,-2.7835,-2.8069,-2.8339,-2.8333,-2.8431,-2.8697,-2.8817,-2.8897,-2.8983,-2.9895,-3.0417,-3.0513,-3.1206,-3.1826,-3.2234,-3.2667,-3.2678,-3.229,-3.2422,-3.2574,-3.2441,-3.2745,-3.2784,-3.2999,-3.3245,-3.3608,-3.3818,-3.3891,-3.3765,-3.4064,-3.4084,-3.3984,-3.395,-3.3897,-3.383,-3.3532,-3.3579,-3.3448,-3.3136,-3.3613,-3.3467,-3.2524,-3.2346,-3.2109,-3.1455,-3.0686,-3.0249,-3.066,-2.9406,-2.8771,-2.848,-2.7653,-2.6834,-2.6497,-2.5965,-2.5437,-2.5103,-2.4879,-2.4493,-2.4106,-2.309,-2.2483,-2.2353,-2.1956,-2.1588,-2.1378,-2.0475,-1.9636,-1.8856,-1.8135,-1.7423,-1.6882,-1.6507,-1.6228,-1.5965,-1.5698,-1.5502,-1.5151,-1.4668,-1.4286,-4.6215,-4.5282,-4.5069,-4.4223,-4.3092,-4.2686,-4.2022,-4.1093,-4.1014,-4.0824,-4.0721,-4.1013,-4.1369,-4.1423,-4.0798,-4.0523,-4.0256,-3.9092,-3.8333,-3.7803,-3.6411,-3.5404,-3.453,-3.3458,-3.2396,-3.1548,-3.0602,-2.9568,-2.9248,-2.8583,-2.7925,-2.7576,-2.744,-2.7318,-2.7437,-2.7467,-2.7935,-2.8652,-2.8769,-2.8939,-2.923,-2.9439,-2.9358,-2.9162,-3.002,-3.0479,-3.0592,-3.1498,-3.2114,-3.2304,-3.2418,-3.2662,-3.2719,-3.2752,-3.2602,-3.2444,-3.2287,-3.2213,-3.2249,-3.2585,-3.3036,-3.3576,-3.3773,-3.4268,-3.4738,-3.4145,-3.3831,-3.3649,-3.3296,-3.2948,-3.2934,-3.2972,-3.2713,-3.2333,-3.272,-3.275,-3.2009,-3.1833,-3.1483,-3.0368,-3.0016,-2.9929,-2.9552,-2.8627,-2.7769,-2.7709,-2.6802,-2.5658,-2.563,-2.5406,-2.4962,-2.4547,-2.4186,-2.3749,-2.3158,-2.2051,-2.1454,-2.1432,-2.0991,-2.0372,-2.0118,-1.961,-1.8859,-1.8117,-1.7506,-1.6853,-1.6485,-1.6115,-1.5939,-1.5859,-1.5677,-1.5463,-1.5265,-1.4883,-1.4532,-4.5607,-4.5022,-4.4439,-4.3699,-4.2831,-4.2396,-4.1618,-4.0896,-4.0732,-4.0708,-4.06,-4.083,-4.1014,-4.0967,-4.0707,-4.017,-3.9563,-3.8457,-3.7633,-3.665,-3.4952,-3.3755,-3.3095,-3.2434,-3.1754,-3.1034,-3.0073,-2.9522,-2.9144,-2.8552,-2.805,-2.7615,-2.7623,-2.7676,-2.7545,-2.7594,-2.7895,-2.8553,-2.8697,-2.8817,-2.9193,-2.9644,-2.9611,-2.9445,-3.0035,-3.0424,-3.0186,-3.0568,-3.1311,-3.2082,-3.224,-3.2274,-3.2536,-3.2338,-3.2218,-3.2241,-3.1966,-3.1771,-3.1775,-3.2108,-3.2527,-3.2882,-3.326,-3.3603,-3.3739,-3.3336,-3.3003,-3.288,-3.2529,-3.2208,-3.1951,-3.1811,-3.1556,-3.1359,-3.142,-3.1301,-3.0771,-3.0714,-3.0278,-2.9493,-2.9088,-2.9002,-2.877,-2.7485,-2.7032,-2.6803,-2.5987,-2.5406,-2.513,-2.4821,-2.4486,-2.4019,-2.3531,-2.31,-2.2515,-2.1497,-2.0903,-2.0805,-2.042,-1.9706,-1.9352,-1.8978,-1.8386,-1.7751,-1.7003,-1.6429,-1.6139,-1.5941,-1.5888,-1.5787,-1.5636,-1.5535,-1.5389,-1.5021,-1.4674,-4.5102,-4.5156,-4.3599,-4.3125,-4.3035,-4.1826,-4.1187,-4.1012,-4.0685,-4.0482,-4.0503,-4.076,-4.0603,-4.0408,-4.0141,-3.9642,-3.8138,-3.7442,-3.6405,-3.5022,-3.3401,-3.2256,-3.1892,-3.156,-3.1051,-3.0532,-3.0384,-2.9752,-2.9146,-2.929,-2.891,-2.8184,-2.8389,-2.8273,-2.7858,-2.7932,-2.8148,-2.8375,-2.846,-2.8768,-2.9186,-2.9685,-2.9753,-2.9696,-2.9853,-3.0067,-2.9702,-2.965,-3.0323,-3.238,-3.1997,-3.1831,-3.1894,-3.1539,-3.1692,-3.2041,-3.1853,-3.1597,-3.1659,-3.2079,-3.2287,-3.2315,-3.2509,-3.2515,-3.26,-3.2381,-3.2076,-3.2076,-3.1861,-3.1371,-3.0794,-3.0309,-3.0178,-3.0129,-2.9666,-2.9319,-2.932,-2.9261,-2.8972,-2.8426,-2.8054,-2.7795,-2.7312,-2.658,-2.5827,-2.6548,-2.5651,-2.504,-2.4712,-2.438,-2.3938,-2.3363,-2.2909,-2.2433,-2.175,-2.0972,-2.0613,-2.036,-1.9955,-1.9422,-1.9141,-1.8695,-1.8135,-1.7531,-1.6931,-1.6408,-1.6005,-1.5882,-1.5785,-1.5645,-1.5481,-1.5572,-1.564,-1.5045,-1.4636,-4.3594,-4.3179,-4.2786,-4.1997,-4.1229,-4.1132,-4.0622,-3.9911,-4.0066,-3.9972,-3.9815,-4.0083,-3.9952,-3.941,-3.8717,-3.7823,-3.712,-3.5767,-3.4148,-3.2611,-3.1334,-3.0514,-3.0288,-3.0185,-2.9803,-2.919,-2.8464,-2.8334,-2.8426,-2.8454,-2.8248,-2.8564,-2.868,-2.8417,-2.8002,-2.8133,-2.8311,-2.8625,-2.8758,-2.926,-2.9825,-2.988,-2.9949,-3.0037,-2.9867,-2.9867,-3.0107,-3.003,-3.0693,-3.1602,-3.1507,-3.1253,-3.1768,-3.1994,-3.2112,-3.2127,-3.1938,-3.1712,-3.1804,-3.2078,-3.2408,-3.2288,-3.2521,-3.2989,-3.2803,-3.1932,-3.1538,-3.1329,-3.0891,-3.0161,-2.9649,-2.9481,-2.9227,-2.8827,-2.8168,-2.7684,-2.7797,-2.8025,-2.7853,-2.7343,-2.7031,-2.6918,-2.689,-2.5964,-2.563,-2.6042,-2.5509,-2.4731,-2.4319,-2.3991,-2.3367,-2.2745,-2.2116,-2.1621,-2.1024,-2.038,-2.0124,-1.9896,-1.9592,-1.9263,-1.8982,-1.8632,-1.8124,-1.7524,-1.6929,-1.648,-1.6174,-1.575,-1.5677,-1.5494,-1.5335,-1.5311,-1.522,-1.4834,-1.4721,-4.2909,-4.2369,-4.1955,-4.1503,-4.1044,-4.0829,-4.0272,-3.9699,-3.9854,-3.96,-3.9159,-3.9463,-3.9118,-3.832,-3.7737,-3.7006,-3.5289,-3.3521,-3.1847,-3.074,-2.9971,-2.9564,-2.9203,-2.9176,-2.8935,-2.8327,-2.7982,-2.8078,-2.8425,-2.8484,-2.8654,-2.8852,-2.9347,-2.9257,-2.8632,-2.8675,-2.8946,-2.8978,-2.891,-2.9169,-2.9626,-2.9929,-3.0043,-3.0204,-2.978,-2.9535,-2.9603,-2.9666,-2.9934,-3.0347,-3.046,-3.0978,-3.1818,-3.1921,-3.1882,-3.2104,-3.1853,-3.1655,-3.1747,-3.1809,-3.1812,-3.1723,-3.1898,-3.1803,-3.1529,-3.0727,-3.0228,-2.9903,-2.9292,-2.8547,-2.8444,-2.8388,-2.8191,-2.8024,-2.7343,-2.6976,-2.6919,-2.7087,-2.6945,-2.6384,-2.6185,-2.5902,-2.5567,-2.5155,-2.4956,-2.5083,-2.4458,-2.3743,-2.3843,-2.3438,-2.2724,-2.2061,-2.1308,-2.0717,-2.0231,-1.9797,-1.954,-1.9438,-1.9336,-1.9105,-1.8895,-1.8548,-1.8206,-1.7682,-1.7208,-1.6873,-1.6521,-1.608,-1.566,-1.5614,-1.5476,-1.5131,-1.488,-1.4722,-1.4721,-4.2279,-4.1797,-4.1054,-4.0911,-4.0988,-4.0346,-3.9715,-3.9305,-3.955,-3.8907,-3.835,-3.8617,-3.7912,-3.7082,-3.6835,-3.5487,-3.3206,-3.1301,-2.9828,-2.9174,-2.8711,-2.8465,-2.8216,-2.8161,-2.8133,-2.7961,-2.787,-2.825,-2.8683,-2.9174,-2.9029,-2.9229,-3.0221,-3.0043,-2.9472,-2.9423,-2.9399,-2.9139,-2.878,-2.8869,-2.9106,-2.9594,-2.988,-2.9927,-2.9847,-2.9413,-2.9368,-2.9368,-2.9407,-2.92,-2.9734,-3.0941,-3.1889,-3.175,-3.1353,-3.1992,-3.1798,-3.1626,-3.1511,-3.1424,-3.1249,-3.0836,-3.0805,-3.0478,-3.0063,-2.9565,-2.913,-2.8521,-2.8005,-2.7462,-2.7329,-2.733,-2.7333,-2.7168,-2.6834,-2.6524,-2.6298,-2.6298,-2.5965,-2.5604,-2.5458,-2.5283,-2.4869,-2.4458,-2.4281,-2.4026,-2.3384,-2.2985,-2.3109,-2.2948,-2.2242,-2.167,-2.1026,-2.0384,-1.985,-1.9621,-1.934,-1.9153,-1.9127,-1.902,-1.8834,-1.8481,-1.816,-1.8026,-1.7622,-1.7262,-1.6767,-1.619,-1.5913,-1.5843,-1.5427,-1.4902,-1.4697,-1.4651,-1.4673,-4.0398,-4.0105,-4.0106,-3.954,-3.862,-3.8922,-3.8559,-3.7725,-3.7882,-3.7438,-3.6745,-3.6792,-3.6174,-3.5091,-3.414,-3.2687,-3.0795,-2.9254,-2.843,-2.7848,-2.7317,-2.6858,-2.724,-2.7327,-2.7041,-2.7024,-2.7396,-2.7853,-2.8025,-2.8394,-2.8999,-2.9753,-3.0572,-3.0449,-2.9896,-2.9555,-2.9493,-2.9175,-2.8823,-2.9003,-2.9476,-2.9525,-2.947,-2.9658,-2.9848,-2.9895,-2.9806,-2.9942,-3.0406,-3.1129,-3.0955,-3.1632,-3.2305,-3.1916,-3.1709,-3.1918,-3.1875,-3.159,-3.1333,-3.1247,-3.119,-3.1073,-3.0896,-3.0367,-2.9723,-2.9229,-2.8477,-2.7902,-2.7501,-2.7161,-2.6486,-2.6459,-2.604,-2.571,-2.5547,-2.5409,-2.5298,-2.5159,-2.5103,-2.4774,-2.4738,-2.478,-2.445,-2.4096,-2.3877,-2.3576,-2.3046,-2.2724,-2.2768,-2.2426,-2.1829,-2.1337,-2.0848,-2.0206,-1.9596,-1.9494,-1.9314,-1.9092,-1.9036,-1.9036,-1.8797,-1.8429,-1.8159,-1.8027,-1.7815,-1.7456,-1.6942,-1.6386,-1.5994,-1.5809,-1.5213,-1.4581,-1.4512,-1.4466,-1.4489,-3.9314,-3.8793,-3.86,-3.8303,-3.7959,-3.7838,-3.7322,-3.6659,-3.666,-3.614,-3.5315,-3.4957,-3.4349,-3.3213,-3.2208,-3.0624,-2.8804,-2.7696,-2.7115,-2.6807,-2.6623,-2.6539,-2.6991,-2.7181,-2.745,-2.7654,-2.794,-2.7854,-2.759,-2.7847,-2.8703,-2.9681,-3.0446,-3.067,-3.063,-3.0613,-3.0326,-2.9878,-2.9521,-2.9435,-2.9956,-2.9777,-2.9753,-2.9864,-3.0282,-3.0539,-3.0423,-3.0571,-3.0928,-3.13,-3.1231,-3.1558,-3.1823,-3.1794,-3.1446,-3.1682,-3.1588,-3.1313,-3.0915,-3.0801,-3.0658,-3.0397,-3.0368,-2.9813,-2.8885,-2.8109,-2.751,-2.6717,-2.6323,-2.6127,-2.571,-2.5654,-2.5184,-2.4497,-2.4335,-2.4201,-2.382,-2.3656,-2.371,-2.3927,-2.4188,-2.4286,-2.4279,-2.3927,-2.3555,-2.313,-2.2654,-2.2437,-2.2377,-2.2005,-2.1513,-2.1053,-2.0643,-2.0181,-1.9621,-1.9468,-1.9427,-1.9275,-1.8943,-1.8943,-1.885,-1.8474,-1.8226,-1.8093,-1.7832,-1.7546,-1.7292,-1.6806,-1.6272,-1.5675,-1.4993,-1.4455,-1.4347,-1.4303,-1.4325,-3.8289,-3.7539,-3.7104,-3.7117,-3.7306,-3.6767,-3.6139,-3.5693,-3.5374,-3.4606,-3.354,-3.306,-3.2284,-3.1197,-3.0035,-2.8627,-2.6934,-2.6277,-2.6096,-2.6195,-2.6313,-2.6583,-2.7161,-2.7735,-2.8054,-2.7817,-2.8125,-2.8236,-2.7837,-2.7917,-2.8476,-2.9364,-3.0156,-3.0788,-3.1067,-3.1151,-3.1411,-3.1109,-3.066,-3.0232,-3.029,-3.0442,-3.0521,-3.0489,-3.1065,-3.1288,-3.106,-3.1262,-3.1495,-3.1571,-3.1502,-3.1451,-3.1494,-3.1313,-3.1103,-3.0988,-3.0907,-3.07,-3.0315,-3.0119,-2.9894,-2.9522,-2.9378,-2.8713,-2.7796,-2.6831,-2.5962,-2.5185,-2.4883,-2.4883,-2.4857,-2.4693,-2.4173,-2.3657,-2.3334,-2.32,-2.2771,-2.2584,-2.2664,-2.3007,-2.3508,-2.3719,-2.3688,-2.3214,-2.274,-2.2836,-2.2387,-2.1841,-2.1754,-2.1708,-2.1292,-2.0817,-2.0437,-2.0078,-1.9721,-1.9519,-1.9567,-1.9582,-1.914,-1.885,-1.877,-1.8583,-1.8321,-1.7965,-1.7843,-1.7558,-1.7373,-1.7095,-1.6491,-1.5782,-1.4855,-1.439,-1.4462,-1.4312,-1.4226,-3.6528,-3.615,-3.6273,-3.5875,-3.5226,-3.5269,-3.4929,-3.4339,-3.3338,-3.258,-3.191,-3.0773,-2.9701,-2.862,-2.7503,-2.6484,-2.5808,-2.5481,-2.5402,-2.5647,-2.5646,-2.5966,-2.638,-2.6567,-2.7434,-2.7668,-2.7836,-2.7869,-2.8004,-2.836,-2.8629,-2.9173,-3.0262,-3.1048,-3.1005,-3.1464,-3.1217,-3.099,-3.0992,-3.1114,-3.1253,-3.1285,-3.1219,-3.1311,-3.1703,-3.2012,-3.1748,-3.1934,-3.2206,-3.2488,-3.2107,-3.1966,-3.196,-3.1831,-3.0876,-3.0269,-3.0027,-3.019,-2.9573,-2.9298,-2.9076,-2.8654,-2.834,-2.7596,-2.6747,-2.5851,-2.5159,-2.5216,-2.4529,-2.4012,-2.3822,-2.3255,-2.2773,-2.2614,-2.2534,-2.2481,-2.2163,-2.1664,-2.1742,-2.1874,-2.2319,-2.2818,-2.3054,-2.2425,-2.1902,-2.2079,-2.2124,-2.1629,-2.1264,-2.1297,-2.1101,-2.063,-2.043,-2.0149,-1.9791,-1.9564,-1.9607,-1.9804,-1.9329,-1.8797,-1.8639,-1.8459,-1.8003,-1.7717,-1.764,-1.754,-1.7357,-1.7031,-1.6589,-1.5973,-1.5185,-1.4807,-1.468,-1.4488,-1.4291,-3.4843,-3.5328,-3.5054,-3.4835,-3.4512,-3.4005,-3.3511,-3.2954,-3.1711,-3.0746,-3.0013,-2.8806,-2.7471,-2.6241,-2.5568,-2.521,-2.4797,-2.4922,-2.5228,-2.56,-2.5716,-2.6096,-2.6587,-2.7111,-2.7607,-2.7817,-2.8077,-2.8415,-2.8479,-2.8325,-2.8333,-2.9164,-3.0138,-3.1019,-3.1197,-3.1911,-3.2035,-3.1898,-3.1654,-3.1502,-3.1487,-3.1695,-3.1899,-3.188,-3.2487,-3.2615,-3.252,-3.2524,-3.2676,-3.2823,-3.2427,-3.1898,-3.1452,-3.098,-3.0228,-2.8953,-2.8884,-2.8914,-2.8747,-2.8564,-2.821,-2.7935,-2.7541,-2.7089,-2.5993,-2.505,-2.4448,-2.4531,-2.377,-2.3312,-2.3204,-2.2857,-2.2325,-2.2008,-2.1824,-2.1457,-2.1301,-2.1068,-2.0861,-2.099,-2.1197,-2.1822,-2.2425,-2.2374,-2.1903,-2.1742,-2.2047,-2.1988,-2.149,-2.1219,-2.0902,-2.0442,-2.0343,-2.0293,-1.991,-1.9629,-1.9648,-1.9686,-1.9275,-1.8833,-1.8606,-1.8289,-1.7879,-1.7567,-1.7445,-1.7374,-1.7296,-1.695,-1.6493,-1.6009,-1.5552,-1.5215,-1.4902,-1.4876,-1.4737,-3.3142,-3.3806,-3.3486,-3.3511,-3.3629,-3.2514,-3.1874,-3.1482,-2.99,-2.8918,-2.8112,-2.6787,-2.5197,-2.4215,-2.4157,-2.4119,-2.365,-2.4715,-2.5246,-2.5711,-2.6279,-2.6825,-2.7322,-2.7945,-2.837,-2.8578,-2.8974,-2.9187,-2.9087,-2.8875,-2.8921,-2.9307,-3.0386,-3.1062,-3.1751,-3.2306,-3.259,-3.2528,-3.2182,-3.1987,-3.1937,-3.2297,-3.2487,-3.2677,-3.2966,-3.3203,-3.2993,-3.2881,-3.2881,-3.2687,-3.2492,-3.179,-3.0829,-3.0365,-2.9597,-2.8489,-2.8127,-2.7944,-2.7902,-2.7756,-2.7461,-2.7163,-2.6804,-2.6246,-2.5273,-2.434,-2.3879,-2.396,-2.3124,-2.2724,-2.2538,-2.2405,-2.1825,-2.1381,-2.1147,-2.063,-2.0348,-2.063,-2.0835,-2.0964,-2.1172,-2.1199,-2.1746,-2.2192,-2.206,-2.1613,-2.1738,-2.214,-2.1837,-2.1384,-2.0816,-2.0401,-2.037,-2.0242,-1.9785,-1.9573,-1.9638,-1.9507,-1.9148,-1.8771,-1.8468,-1.8207,-1.7887,-1.7625,-1.7394,-1.7306,-1.729,-1.6841,-1.6417,-1.6148,-1.5837,-1.5425,-1.5152,-1.5141,-1.5122,-3.1373,-3.1113,-3.1407,-3.1627,-3.1702,-3.0575,-2.9927,-2.9517,-2.7735,-2.6924,-2.6442,-2.4739,-2.314,-2.2526,-2.3031,-2.3206,-2.2826,-2.442,-2.5272,-2.5861,-2.6468,-2.7509,-2.8159,-2.8723,-2.9143,-2.9618,-2.978,-2.9938,-3.0216,-3.0042,-2.9756,-2.9648,-3.0768,-3.1341,-3.1827,-3.2261,-3.2687,-3.2687,-3.2532,-3.2663,-3.2751,-3.2982,-3.2987,-3.3156,-3.3219,-3.3229,-3.3069,-3.2935,-3.2746,-3.2523,-3.2152,-3.1491,-3.0422,-2.9955,-2.9096,-2.8147,-2.7564,-2.7399,-2.7284,-2.7126,-2.6799,-2.637,-2.5936,-2.5411,-2.4641,-2.4232,-2.3851,-2.3283,-2.2455,-2.2058,-2.1768,-2.1427,-2.1116,-2.0988,-2.0861,-2.0707,-2.063,-2.0939,-2.1094,-2.1094,-2.125,-2.1459,-2.1773,-2.2377,-2.2113,-2.1641,-2.2043,-2.247,-2.2092,-2.1605,-2.0888,-2.0451,-2.0411,-2.0125,-1.9567,-1.9352,-1.9198,-1.9125,-1.8895,-1.858,-1.8267,-1.8005,-1.7977,-1.7759,-1.7577,-1.7403,-1.7244,-1.7011,-1.675,-1.6469,-1.6133,-1.5766,-1.5621,-1.5632,-1.5535,-3.0055,-2.9707,-2.8376,-2.856,-2.9724,-2.8591,-2.7899,-2.7237,-2.5686,-2.4428,-2.371,-2.2637,-2.2291,-2.2449,-2.2911,-2.3508,-2.4008,-2.5025,-2.5905,-2.6782,-2.7607,-2.8393,-2.9049,-2.9395,-2.9622,-2.989,-3.0054,-3.0151,-3.0256,-3.0707,-3.0826,-3.0883,-3.1297,-3.138,-3.172,-3.2125,-3.2489,-3.2578,-3.2605,-3.2715,-3.2796,-3.3069,-3.3123,-3.315,-3.3282,-3.3229,-3.3096,-3.2823,-3.2633,-3.2262,-3.1658,-3.0846,-3.0004,-2.9452,-2.8651,-2.779,-2.7361,-2.7104,-2.6873,-2.6686,-2.6392,-2.6119,-2.5516,-2.4886,-2.4312,-2.3606,-2.296,-2.232,-2.1766,-2.1348,-2.1113,-2.0931,-2.0751,-2.07,-2.0728,-2.0757,-2.0966,-2.1329,-2.1693,-2.1848,-2.1928,-2.2087,-2.2403,-2.2747,-2.2219,-2.172,-2.2279,-2.2636,-2.2222,-2.1771,-2.1054,-2.0322,-2.0208,-2.0032,-1.9469,-1.9104,-1.8742,-1.8674,-1.8665,-1.8408,-1.8167,-1.8259,-1.8192,-1.7962,-1.7774,-1.7687,-1.7586,-1.7391,-1.7161,-1.689,-1.6563,-1.6148,-1.6099,-1.6117,-1.6087,-2.8195,-2.7559,-2.5344,-2.5725,-2.7578,-2.6443,-2.5621,-2.5,-2.3761,-2.2546,-2.1352,-2.1352,-2.1667,-2.2302,-2.2921,-2.3495,-2.4313,-2.5409,-2.6485,-2.7309,-2.808,-2.9059,-2.9675,-3.006,-3.0177,-3.021,-3.0328,-3.0495,-3.0694,-3.1192,-3.1229,-3.129,-3.1515,-3.16,-3.1801,-3.2105,-3.2382,-3.241,-3.2465,-3.2551,-3.2633,-3.2881,-3.3069,-3.3096,-3.3203,-3.3203,-3.3016,-3.2769,-3.2437,-3.2005,-3.1362,-3.0446,-2.9702,-2.8963,-2.8174,-2.765,-2.7258,-2.6974,-2.6712,-2.6447,-2.6179,-2.5906,-2.5517,-2.4967,-2.4228,-2.3226,-2.2666,-2.1953,-2.1219,-2.0699,-2.0699,-2.0699,-2.0699,-2.0725,-2.1218,-2.1351,-2.1538,-2.1851,-2.2269,-2.261,-2.2719,-2.2746,-2.2796,-2.3032,-2.2728,-2.2227,-2.2288,-2.2556,-2.2337,-2.1837,-2.1211,-2.048,-1.988,-1.9674,-1.942,-1.896,-1.8566,-1.8523,-1.8475,-1.8305,-1.8178,-1.836,-1.8376,-1.8149,-1.8008,-1.7981,-1.79,-1.7773,-1.7607,-1.74,-1.7012,-1.6626,-1.6477,-1.6495,-1.6715,-2.5592,-2.4478,-2.2676,-2.3389,-2.5358,-2.4082,-2.3202,-2.2865,-2.1967,-2.1217,-2.0659,-2.0904,-2.1246,-2.1611,-2.2561,-2.3366,-2.4203,-2.554,-2.6644,-2.7363,-2.829,-2.9277,-2.9993,-3.044,-3.0589,-3.1127,-3.1068,-3.1005,-3.1269,-3.1354,-3.1416,-3.1474,-3.1585,-3.1784,-3.213,-3.2296,-3.2382,-3.2413,-3.241,-3.2496,-3.2578,-3.28,-3.2962,-3.2989,-3.3096,-3.3123,-3.2989,-3.2578,-3.2302,-3.1959,-3.1041,-3.0131,-2.9401,-2.8657,-2.798,-2.7424,-2.7055,-2.6738,-2.6498,-2.6231,-2.5989,-2.5715,-2.5355,-2.4969,-2.4204,-2.3419,-2.2615,-2.1875,-2.1221,-2.0804,-2.0725,-2.0699,-2.0699,-2.1036,-2.1531,-2.1981,-2.2168,-2.2483,-2.2932,-2.3216,-2.3324,-2.3407,-2.3295,-2.3232,-2.3148,-2.2894,-2.2618,-2.2417,-2.2238,-2.1801,-2.1182,-2.0452,-1.9732,-1.9558,-1.9301,-1.8764,-1.8427,-1.8401,-1.839,-1.8356,-1.8385,-1.8593,-1.853,-1.8329,-1.8244,-1.8211,-1.8211,-1.815,-1.8039,-1.7864,-1.7543,-1.721,-1.6979,-1.7022,-1.7394,-2.2959,-2.2159,-2.0266,-2.0026,-2.0916,-2.1249,-2.1217,-2.0924,-2.037,-2.0023,-2.0106,-2.0624,-2.1402,-2.2032,-2.2935,-2.3851,-2.4888,-2.5459,-2.6565,-2.7791,-2.8495,-2.943,-3.0162,-3.0485,-3.0661,-3.0837,-3.0925,-3.0984,-3.1101,-3.1219,-3.1336,-3.1423,-3.1538,-3.1824,-3.2104,-3.233,-3.2413,-3.2413,-3.2413,-3.2441,-3.2496,-3.2749,-3.2885,-3.2827,-3.2962,-3.3016,-3.2908,-3.2413,-3.2109,-3.173,-3.0754,-2.9642,-2.9003,-2.8323,-2.7528,-2.7189,-2.6873,-2.6553,-2.6206,-2.588,-2.5661,-2.5467,-2.5136,-2.4751,-2.4096,-2.342,-2.2643,-2.2008,-2.1535,-2.1168,-2.0829,-2.0725,-2.0854,-2.1504,-2.2032,-2.2511,-2.2857,-2.3256,-2.36,-2.3743,-2.3869,-2.3618,-2.3447,-2.2967,-2.2819,-2.28,-2.2471,-2.2225,-2.1985,-2.1588,-2.1033,-2.0308,-1.9693,-1.9522,-1.9231,-1.894,-1.8829,-1.889,-1.8819,-1.8709,-1.8786,-1.8818,-1.8838,-1.8678,-1.8543,-1.8459,-1.8659,-1.8742,-1.8512,-1.8291,-1.8127,-1.7942,-1.773,-1.7972,-1.8468,-2.0509,-1.9873,-1.8204,-1.7574,-1.7912,-1.8973,-1.9496,-1.9615,-1.9666,-1.977,-2.0157,-2.0822,-2.1889,-2.2952,-2.3733,-2.4768,-2.5934,-2.6441,-2.7117,-2.8309,-2.8569,-2.9287,-2.9919,-3.0235,-3.0147,-3.0235,-3.0326,-3.0447,-3.0477,-3.0747,-3.0984,-3.119,-3.1365,-3.1796,-3.2168,-3.2514,-3.2757,-3.2877,-3.3029,-3.309,-3.302,-3.2977,-3.2994,-3.278,-3.2742,-3.2854,-3.2636,-3.2305,-3.1881,-3.1321,-3.0321,-2.9155,-2.8716,-2.7956,-2.7195,-2.6977,-2.6662,-2.634,-2.5935,-2.5578,-2.5411,-2.5272,-2.4833,-2.4586,-2.4313,-2.3771,-2.3232,-2.2644,-2.2114,-2.1561,-2.1142,-2.1038,-2.1425,-2.2081,-2.2643,-2.3152,-2.3391,-2.3764,-2.3944,-2.4082,-2.3865,-2.3658,-2.3335,-2.2804,-2.2354,-2.2341,-2.231,-2.1994,-2.1714,-2.14,-2.0979,-2.0342,-1.9886,-1.9803,-1.9614,-1.9381,-1.9324,-1.9406,-1.9263,-1.9062,-1.8892,-1.8859,-1.8956,-1.9093,-1.9069,-1.9093,-1.9293,-1.9305,-1.9179,-1.9061,-1.8983,-1.8755,-1.8492,-1.8746,-1.917,-1.823,-1.7655,-1.6379,-1.614,-1.6627,-1.7701,-1.8388,-1.8908,-1.9791,-2.037,-2.0715,-2.1317,-2.2555,-2.4008,-2.4445,-2.5378,-2.661,-2.7157,-2.778,-2.8348,-2.8493,-2.9085,-2.9366,-2.9591,-2.956,-2.9467,-2.9557,-2.9775,-2.9679,-3.0313,-3.0771,-3.1043,-3.1338,-3.1772,-3.2292,-3.2765,-3.3036,-3.3211,-3.3362,-3.3332,-3.3085,-3.3259,-3.3008,-3.276,-3.2605,-3.2578,-3.2385,-3.2107,-3.165,-3.0972,-3.003,-2.9332,-2.8576,-2.7647,-2.7237,-2.6846,-2.642,-2.6071,-2.5743,-2.5411,-2.5107,-2.4997,-2.4942,-2.4996,-2.4829,-2.4284,-2.3823,-2.3339,-2.2831,-2.2193,-2.1692,-2.1925,-2.2132,-2.2746,-2.3365,-2.3662,-2.3848,-2.4028,-2.4149,-2.4015,-2.3603,-2.33,-2.2848,-2.2334,-2.1939,-2.1839,-2.1776,-2.1557,-2.1336,-2.1305,-2.0911,-2.0534,-2.0211,-2.0197,-2.0005,-1.9731,-1.9625,-1.9605,-1.9523,-1.9349,-1.9123,-1.8968,-1.9093,-1.9281,-1.9555,-1.9672,-1.9679,-1.9801,-1.989,-1.9813,-1.9597,-1.9397,-1.9082,-1.9204,-1.9533,-1.6133,-1.5941,-1.5166,-1.5259,-1.6114,-1.7606,-1.8536,-1.9038,-1.9829,-2.0459,-2.1011,-2.2391,-2.346,-2.4096,-2.5299,-2.619,-2.6821,-2.7283,-2.7677,-2.8039,-2.8339,-2.8553,-2.8825,-2.9013,-2.899,-2.9081,-2.9172,-2.9414,-2.9635,-3.0177,-3.0641,-3.0924,-3.1456,-3.1927,-3.2359,-3.2861,-3.2998,-3.3197,-3.3352,-3.3236,-3.2995,-3.2987,-3.2739,-3.2557,-3.2441,-3.2385,-3.2191,-3.1821,-3.13,-3.0419,-2.9653,-2.8869,-2.7871,-2.7338,-2.6951,-2.6604,-2.6231,-2.5852,-2.5632,-2.5162,-2.4832,-2.4641,-2.4474,-2.4614,-2.4695,-2.4665,-2.4284,-2.3744,-2.3286,-2.2669,-2.2295,-2.2371,-2.2688,-2.3171,-2.3742,-2.4149,-2.428,-2.4239,-2.4247,-2.3721,-2.333,-2.2909,-2.2451,-2.1963,-2.1588,-2.14,-2.121,-2.1019,-2.0924,-2.0892,-2.0733,-2.0326,-2.0272,-2.0151,-2.0228,-2.0035,-1.9916,-1.9813,-1.9684,-1.9538,-1.9306,-1.9189,-1.9288,-1.9526,-1.9909,-2.0017,-1.9931,-2.0163,-2.0555,-2.0212,-1.9969,-1.9838,-1.9766,-1.9905,-2.0158,-1.475,-1.4906,-1.4701,-1.5295,-1.6602,-1.8054,-1.9156,-2.0055,-2.0495,-2.108,-2.2135,-2.3195,-2.4283,-2.5493,-2.6378,-2.7116,-2.7786,-2.793,-2.8153,-2.8193,-2.8189,-2.8368,-2.8538,-2.8752,-2.8973,-2.9086,-2.923,-2.9477,-2.9679,-3.0309,-3.0867,-3.0894,-3.1601,-3.1989,-3.227,-3.2581,-3.2807,-3.3008,-3.3156,-3.3048,-3.29,-3.2749,-3.2631,-3.2388,-3.2302,-3.2163,-3.1992,-3.1533,-3.0769,-2.9952,-2.9192,-2.8296,-2.7472,-2.7089,-2.6741,-2.6418,-2.6123,-2.5825,-2.555,-2.5077,-2.472,-2.4416,-2.4081,-2.4113,-2.4228,-2.4258,-2.4041,-2.3715,-2.3443,-2.3119,-2.2929,-2.2793,-2.314,-2.3489,-2.4041,-2.4585,-2.4549,-2.4452,-2.4041,-2.345,-2.3,-2.2574,-2.2111,-2.162,-2.1242,-2.1083,-2.086,-2.0571,-2.0474,-2.0474,-2.0274,-1.9922,-2.0011,-2.0045,-2.0099,-2.0122,-1.9953,-1.9792,-1.9694,-1.9559,-1.9427,-1.9493,-1.9622,-1.9981,-2.0378,-2.0541,-2.0744,-2.0999,-2.1227,-2.0914,-2.0818,-2.0898,-2.086,-2.0703,-2.0976,-1.4002,-1.4526,-1.4955,-1.6174,-1.7734,-1.8914,-2.0353,-2.1849,-2.1771,-2.2425,-2.373,-2.4047,-2.5415,-2.6929,-2.7578,-2.805,-2.8465,-2.8583,-2.8454,-2.8584,-2.8412,-2.8426,-2.8543,-2.8759,-2.9031,-2.9407,-2.9624,-2.9666,-2.9888,-3.0395,-3.0773,-3.0805,-3.154,-3.1961,-3.209,-3.2198,-3.2338,-3.2542,-3.3088,-3.34,-3.3157,-3.3038,-3.2833,-3.2285,-3.2081,-3.1881,-3.1647,-3.1147,-3.0413,-2.9544,-2.8792,-2.7926,-2.7158,-2.6845,-2.6451,-2.6258,-2.6015,-2.5825,-2.5465,-2.499,-2.4631,-2.4354,-2.4052,-2.3852,-2.3828,-2.3923,-2.3763,-2.3682,-2.3409,-2.3222,-2.2979,-2.3408,-2.3866,-2.401,-2.4314,-2.461,-2.4629,-2.4305,-2.3717,-2.315,-2.2665,-2.2266,-2.1987,-2.1494,-2.1019,-2.085,-2.0603,-2.0248,-2.0107,-2.0085,-1.9933,-1.9649,-1.9748,-1.9857,-1.9856,-1.9835,-1.9857,-1.9758,-1.9712,-1.9628,-1.952,-1.9712,-2.0012,-2.0492,-2.0951,-2.1512,-2.1779,-2.1867,-2.1889,-2.197,-2.1929,-2.2086,-2.2024,-2.1783,-2.184,-1.4117,-1.4809,-1.6517,-1.7718,-1.8619,-2.0572,-2.1782,-2.2561,-2.3885,-2.4728,-2.5434,-2.5917,-2.6737,-2.7938,-2.8758,-2.9127,-2.8853,-2.9113,-2.8812,-2.8637,-2.849,-2.8585,-2.8624,-2.8898,-2.9175,-2.946,-2.9669,-2.9942,-3.0113,-3.0419,-3.0611,-3.0531,-3.1266,-3.178,-3.1745,-3.1829,-3.1974,-3.2118,-3.2385,-3.2833,-3.2701,-3.2438,-3.2172,-3.2023,-3.1881,-3.1741,-3.1536,-3.1389,-3.0301,-2.9198,-2.8905,-2.79,-2.6544,-2.6318,-2.6152,-2.6016,-2.5962,-2.5798,-2.5519,-2.5012,-2.4613,-2.4221,-2.3884,-2.3572,-2.3469,-2.3525,-2.3563,-2.3535,-2.3401,-2.3242,-2.3269,-2.3863,-2.4385,-2.4422,-2.4503,-2.4553,-2.4597,-2.4015,-2.339,-2.2878,-2.2359,-2.2049,-2.1776,-2.1368,-2.0914,-2.0571,-2.0345,-2.0085,-1.9857,-1.9791,-1.9758,-1.9587,-1.9586,-1.9661,-1.9619,-1.9683,-1.9722,-1.9804,-1.9843,-1.974,-1.9651,-2.0216,-2.0757,-2.111,-2.156,-2.2065,-2.2391,-2.2332,-2.2412,-2.2734,-2.279,-2.2864,-2.3162,-2.31,-2.3054,-1.4357,-1.5203,-1.7082,-1.869,-2.0024,-2.1571,-2.2722,-2.3749,-2.5119,-2.623,-2.6985,-2.7301,-2.7885,-2.883,-2.9643,-2.9827,-2.9358,-2.9536,-2.9331,-2.9039,-2.8827,-2.8888,-2.901,-2.9119,-2.9545,-2.9861,-3.0166,-3.0389,-3.0461,-3.069,-3.0881,-3.0544,-3.1137,-3.1706,-3.1604,-3.1664,-3.1782,-3.1841,-3.1718,-3.1826,-3.2023,-3.1853,-3.1741,-3.1653,-3.1567,-3.1453,-3.1275,-3.1127,-3.0246,-2.9259,-2.8826,-2.7909,-2.6889,-2.6524,-2.6271,-2.6019,-2.5853,-2.577,-2.5517,-2.5145,-2.4651,-2.4323,-2.3963,-2.3772,-2.359,-2.364,-2.3393,-2.3338,-2.3197,-2.3036,-2.2958,-2.3389,-2.3948,-2.4203,-2.4231,-2.4281,-2.4063,-2.3543,-2.306,-2.2665,-2.2204,-2.1808,-2.1526,-2.1169,-2.0754,-2.0496,-2.0248,-1.9966,-1.9758,-1.955,-1.9517,-1.945,-1.9417,-1.9282,-1.9147,-1.9366,-1.9661,-1.9774,-1.9968,-2.0176,-2.037,-2.0961,-2.1478,-2.1781,-2.2147,-2.2635,-2.2859,-2.2897,-2.3343,-2.3811,-2.3657,-2.3481,-2.3907,-2.446,-2.471,-1.4904,-1.5897,-1.7285,-1.9262,-2.1401,-2.2218,-2.3345,-2.4828,-2.6005,-2.7176,-2.8178,-2.8211,-2.8924,-2.961,-3.0086,-3.0145,-3.0153,-2.9952,-2.9768,-2.9614,-2.9413,-2.94,-2.9416,-2.9554,-2.9885,-3.0258,-3.0642,-3.0821,-3.0979,-3.106,-3.0909,-3.0643,-3.1117,-3.191,-3.1787,-3.186,-3.2013,-3.1809,-3.1634,-3.1514,-3.1453,-3.1336,-3.1336,-3.1248,-3.1161,-3.1073,-3.0866,-3.0631,-3.0132,-2.9406,-2.8713,-2.7684,-2.7032,-2.661,-2.6273,-2.5966,-2.5771,-2.5715,-2.563,-2.5341,-2.5035,-2.4731,-2.4313,-2.4068,-2.3937,-2.3806,-2.3533,-2.3338,-2.3222,-2.3111,-2.3086,-2.3174,-2.3759,-2.3987,-2.4039,-2.3919,-2.3489,-2.312,-2.2787,-2.2389,-2.1994,-2.1588,-2.121,-2.0882,-2.0625,-2.0399,-2.0172,-1.9889,-1.966,-1.9429,-1.9318,-1.9164,-1.9065,-1.8923,-1.8857,-1.9198,-1.9631,-1.999,-2.0268,-2.0674,-2.1127,-2.175,-2.2164,-2.2289,-2.2696,-2.3124,-2.3488,-2.3647,-2.4155,-2.4754,-2.4763,-2.471,-2.5381,-2.5946,-2.6522,-1.6236,-1.7584,-1.8554,-1.9894,-2.1579,-2.3157,-2.43,-2.5206,-2.7054,-2.8113,-2.8462,-2.934,-2.9984,-3.0298,-3.0474,-3.0503,-3.023,-3.0178,-3.021,-3.011,-2.982,-2.9846,-2.9827,-2.9749,-2.9908,-3.0404,-3.0976,-3.1083,-3.1302,-3.1184,-3.1093,-3.1115,-3.1171,-3.1678,-3.1915,-3.1965,-3.1916,-3.1722,-3.1469,-3.1273,-3.1013,-3.0984,-3.1161,-3.1102,-3.1014,-3.1014,-3.0984,-3.0984,-3.0426,-2.9639,-2.8713,-2.7709,-2.7029,-2.6692,-2.6357,-2.5855,-2.5661,-2.5743,-2.5684,-2.5454,-2.5203,-2.5121,-2.4759,-2.4549,-2.4527,-2.4586,-2.4312,-2.401,-2.3872,-2.3788,-2.376,-2.3814,-2.4175,-2.3979,-2.3898,-2.3456,-2.304,-2.2787,-2.2512,-2.2087,-2.1651,-2.1273,-2.086,-2.0593,-2.0399,-2.0172,-1.9911,-1.966,-1.9583,-1.9384,-1.9152,-1.9093,-1.898,-1.8931,-1.9036,-1.9375,-1.9768,-2.0184,-2.0671,-2.1296,-2.1904,-2.2584,-2.2917,-2.3043,-2.3185,-2.3509,-2.3851,-2.453,-2.4917,-2.5456,-2.5757,-2.6043,-2.6728,-2.7384,-2.7887]},{"header":{"parameterUnit":"m.s-1","parameterCategory":1,"la1":31.0,"la2":29.5877,"lo1":-88.7671,"lo2":-86.6584,"dy":0.0162,"dx":0.0185,"nx":115,"ny":88,"refTime":"2026-03-23T00:00:00:Z","depth":0,"parameterNumber":3,"parameterNumberName":"V-component_of_WINDS"},"data":[0.0,0.0,0.0,0.0,0.0,0.0,0.0,0.0,0.0,0.0,0.0,0.0,0.0,0.0,0.0,0.0,0.0,0.0,0.0,0.0,0.0,0.0,0.0,0.0,0.0,0.0,0.0,0.0,0.0,0.0,0.0,0.0,0.0,0.0,0.0,0.0,0.0,0.0,0.0,0.0,0.0,-1.3741,-1.4257,-1.421,-1.4614,-1.4575,-1.3984,0.0,0.0,0.0,0.0,0.0,0.0,0.0,0.0,0.0,0.0,0.0,0.0,0.0,0.0,0.0,0.0,0.0,0.0,0.0,0.0,0.0,0.0,0.0,0.0,0.0,0.0,0.0,0.0,0.0,0.0,0.0,0.0,0.0,0.0,0.0,0.0,0.0,0.0,0.0,0.0,0.0,0.0,0.0,0.0,0.0,0.0,0.0,0.0,0.0,0.0,0.0,0.0,0.0,0.0,0.0,0.0,0.0,0.0,0.0,0.0,0.0,0.0,0.0,0.0,0.0,0.0,0.0,0.0,0.0,0.0,0.0,0.0,0.0,0.0,0.0,0.0,0.0,0.0,0.0,0.0,0.0,0.0,0.0,0.0,0.0,0.0,0.0,0.0,0.0,0.0,0.0,0.0,0.0,0.0,0.0,0.0,0.0,0.0,0.0,0.0,0.0,0.0,0.0,0.0,0.0,0.0,0.0,0.0,0.0,0.0,-1.4667,-1.4708,-1.5053,-1.4931,-1.4264,0.0,0.0,0.0,0.0,0.0,0.0,0.0,0.0,0.0,0.0,0.0,0.0,0.0,0.0,0.0,0.0,0.0,0.0,0.0,0.0,0.0,0.0,0.0,0.0,0.0,0.0,0.0,0.0,0.0,0.0,0.0,0.0,0.0,0.0,0.0,0.0,0.0,0.0,0.0,0.0,0.0,0.0,0.0,0.0,0.0,0.0,0.0,0.0,0.0,0.0,0.0,0.0,0.0,0.0,0.0,0.0,0.0,0.0,0.0,0.0,0.0,0.0,0.0,0.0,0.0,0.0,0.0,0.0,0.0,0.0,0.0,0.0,0.0,0.0,0.0,0.0,0.0,0.0,0.0,0.0,0.0,0.0,0.0,0.0,0.0,0.0,0.0,0.0,0.0,0.0,0.0,0.0,0.0,0.0,0.0,0.0,0.0,0.0,0.0,0.0,0.0,0.0,0.0,0.0,0.0,0.0,0.0,0.0,0.0,0.0,-1.5207,-1.5511,-1.5617,-1.5441,-1.4965,0.0,0.0,0.0,0.0,0.0,0.0,0.0,0.0,0.0,0.0,0.0,0.0,0.0,0.0,0.0,0.0,0.0,0.0,0.0,0.0,0.0,0.0,0.0,0.0,0.0,0.0,0.0,0.0,0.0,0.0,0.0,0.0,0.0,0.0,0.0,0.0,0.0,0.0,0.0,0.0,0.0,0.0,0.0,0.0,0.0,0.0,0.0,0.0,0.0,0.0,0.0,0.0,0.0,0.0,0.0,0.0,0.0,0.0,0.0,0.0,0.0,0.0,0.0,0.0,0.0,0.0,0.0,0.0,0.0,0.0,0.0,0.0,0.0,0.0,0.0,0.0,0.0,0.0,0.0,0.0,0.0,0.0,0.0,0.0,0.0,0.0,0.0,0.0,0.0,0.0,0.0,0.0,0.0,0.0,0.0,0.0,0.0,0.0,0.0,0.0,0.0,0.0,0.0,0.0,0.0,0.0,0.0,0.0,0.0,0.0,-1.5576,-1.5823,-1.593,-1.5616,-1.4765,-1.4475,0.0,0.0,0.0,0.0,0.0,0.0,0.0,0.0,0.0,0.0,0.0,0.0,0.0,0.0,0.0,0.0,0.0,0.0,0.0,0.0,0.0,0.0,0.0,0.0,0.0,0.0,0.0,0.0,0.0,0.0,0.0,0.0,0.0,0.0,0.0,0.0,0.0,0.0,0.0,0.0,0.0,0.0,0.0,0.0,0.0,0.0,0.0,0.0,0.0,0.0,0.0,0.0,0.0,0.0,0.0,0.0,0.0,0.0,0.0,0.0,0.0,0.0,0.0,0.0,0.0,0.0,0.0,0.0,0.0,0.0,0.0,0.0,0.0,0.0,0.0,0.0,0.0,0.0,0.0,0.0,0.0,0.0,0.0,0.0,0.0,0.0,0.0,0.0,0.0,0.0,0.0,0.0,0.0,0.0,0.0,0.0,0.0,0.0,0.0,0.0,0.0,0.0,0.0,0.0,0.0,0.0,0.0,0.0,0.0,-1.5823,-1.5842,-1.6123,-1.5653,-1.433,-1.4214,0.0,0.0,0.0,0.0,0.0,0.0,0.0,0.0,0.0,0.0,0.0,0.0,0.0,0.0,0.0,0.0,0.0,0.0,0.0,0.0,0.0,0.0,0.0,0.0,0.0,0.0,0.0,0.0,0.0,0.0,0.0,0.0,0.0,0.0,0.0,0.0,0.0,0.0,0.0,0.0,0.0,0.0,0.0,0.0,0.0,0.0,0.0,0.0,0.0,0.0,0.0,0.0,0.0,0.0,0.0,0.0,0.0,0.0,0.0,0.0,0.0,0.0,0.0,0.0,0.0,0.0,0.0,0.0,0.0,0.0,0.0,0.0,0.0,0.0,0.0,0.0,0.0,0.0,0.0,0.0,0.0,0.0,0.0,0.0,0.0,0.0,0.0,0.0,0.0,0.0,0.0,0.0,0.0,0.0,0.0,0.0,0.0,0.0,0.0,0.0,0.0,0.0,0.0,0.0,0.0,0.0,0.0,0.0,0.0,-1.5964,-1.5823,-1.614,-1.5774,-1.4679,-1.418,0.0,0.0,0.0,0.0,0.0,0.0,0.0,0.0,0.0,0.0,0.0,0.0,0.0,0.0,0.0,0.0,0.0,0.0,0.0,0.0,0.0,0.0,0.0,0.0,0.0,0.0,0.0,0.0,0.0,0.0,0.0,0.0,0.0,0.0,0.0,0.0,0.0,0.0,0.0,0.0,0.0,0.0,0.0,0.0,0.0,0.0,0.0,0.0,0.0,0.0,0.0,0.0,0.0,0.0,0.0,0.0,0.0,0.0,0.0,0.0,0.0,0.0,0.0,0.0,0.0,0.0,0.0,0.0,0.0,0.0,0.0,0.0,0.0,0.0,0.0,0.0,0.0,0.0,0.0,0.0,0.0,0.0,0.0,0.0,0.0,0.0,0.0,0.0,0.0,0.0,0.0,0.0,0.0,0.0,0.0,0.0,0.0,0.0,0.0,0.0,0.0,0.0,0.0,0.0,0.0,0.0,0.0,0.0,0.0,-1.6035,-1.5718,-1.5894,-1.5375,-1.4038,-1.3478,0.0,0.0,0.0,0.0,0.0,0.0,0.0,0.0,0.0,0.0,0.0,0.0,0.0,0.0,0.0,0.0,0.0,0.0,0.0,0.0,0.0,0.0,0.0,0.0,0.0,0.0,0.0,0.0,0.0,0.0,0.0,0.0,0.0,0.0,0.0,0.0,0.0,0.0,0.0,0.0,0.0,0.0,0.0,0.0,0.0,0.0,0.0,0.0,0.0,0.0,0.0,0.0,0.0,0.0,0.0,0.0,0.0,0.0,0.0,0.0,0.0,0.0,0.0,0.0,0.0,0.0,0.0,0.0,0.0,0.0,0.0,0.0,0.0,0.0,0.0,0.0,0.0,0.0,0.0,0.0,0.0,0.0,0.0,0.0,0.0,0.0,0.0,0.0,0.0,0.0,0.0,0.0,0.0,0.0,0.0,0.0,0.0,0.0,0.0,0.0,0.0,0.0,0.0,0.0,0.0,0.0,0.0,0.0,-1.6052,-1.5861,-1.5369,-1.5471,-1.4716,-1.2995,-1.2545,0.0,0.0,0.0,0.0,0.0,0.0,0.0,0.0,0.0,0.0,0.0,0.0,0.0,0.0,0.0,0.0,0.0,0.0,0.0,0.0,0.0,0.0,0.0,0.0,0.0,0.0,0.0,0.0,0.0,0.0,0.0,0.0,0.0,0.0,0.0,0.0,0.0,0.0,0.0,0.0,0.0,0.0,0.0,0.0,0.0,0.0,0.0,0.0,0.0,0.0,0.0,0.0,0.0,0.0,0.0,0.0,0.0,0.0,0.0,0.0,0.0,0.0,0.0,0.0,0.0,0.0,0.0,0.0,0.0,0.0,0.0,0.0,0.0,0.0,0.0,0.0,0.0,0.0,0.0,0.0,0.0,0.0,0.0,0.0,0.0,0.0,0.0,0.0,0.0,0.0,0.0,0.0,0.0,0.0,0.0,0.0,0.0,0.0,0.0,0.0,0.0,0.0,0.0,0.0,0.0,0.0,0.0,-1.4963,-1.5188,-1.5155,-1.4759,-1.458,-1.3807,-1.2303,-1.1717,0.0,0.0,0.0,0.0,0.0,0.0,0.0,0.0,0.0,0.0,0.0,0.0,0.0,0.0,0.0,0.0,0.0,0.0,0.0,0.0,0.0,0.0,0.0,0.0,0.0,0.0,0.0,0.0,0.0,0.0,0.0,0.0,0.0,0.0,0.0,0.0,0.0,0.0,0.0,0.0,0.0,0.0,0.0,0.0,0.0,0.0,0.0,0.0,0.0,0.0,0.0,0.0,0.0,0.0,0.0,0.0,0.0,0.0,0.0,0.0,0.0,0.0,0.0,0.0,0.0,0.0,0.0,0.0,0.0,0.0,0.0,0.0,0.0,0.0,0.0,0.0,0.0,0.0,0.0,0.0,0.0,0.0,0.0,0.0,0.0,0.0,0.0,0.0,0.0,0.0,0.0,0.0,0.0,0.0,0.0,0.0,0.0,0.0,0.0,0.0,0.0,0.0,0.0,0.0,0.0,0.0,-1.4676,-1.4849,-1.4985,-1.4694,-1.3936,-1.362,-1.2804,-1.1354,-1.0455,0.0,0.0,0.0,0.0,0.0,0.0,0.0,0.0,0.0,0.0,0.0,0.0,0.0,0.0,0.0,0.0,0.0,0.0,0.0,0.0,0.0,0.0,0.0,0.0,0.0,0.0,0.0,0.0,0.0,0.0,0.0,0.0,0.0,0.0,0.0,0.0,0.0,0.0,0.0,0.0,0.0,0.0,0.0,0.0,0.0,0.0,0.0,0.0,0.0,0.0,0.0,0.0,0.0,0.0,0.0,0.0,0.0,0.0,0.0,0.0,0.0,0.0,0.0,0.0,0.0,0.0,0.0,0.0,0.0,0.0,0.0,0.0,0.0,0.0,0.0,0.0,0.0,0.0,0.0,0.0,0.0,0.0,0.0,0.0,0.0,0.0,0.0,0.0,0.0,0.0,0.0,0.0,0.0,0.0,0.0,0.0,0.0,0.0,0.0,0.0,0.0,0.0,0.0,0.0,0.0,0.0,-1.4426,-1.4743,-1.4693,-1.4111,-1.312,-1.2877,-1.209,-1.0602,0.0,0.0,0.0,0.0,0.0,0.0,0.0,0.0,0.0,0.0,0.0,0.0,0.0,0.0,0.0,0.0,0.0,0.0,0.0,0.0,0.0,0.0,0.0,0.0,0.0,0.0,0.0,0.0,0.0,0.0,0.0,0.0,0.0,0.0,0.0,0.0,0.0,0.0,0.0,0.0,0.0,0.0,0.0,0.0,0.0,0.0,0.0,0.0,0.0,0.0,0.0,0.0,0.0,0.0,0.0,0.0,0.0,0.0,0.0,0.0,0.0,0.0,0.0,0.0,0.0,0.0,0.0,0.0,0.0,0.0,0.0,0.0,0.0,0.0,0.0,0.0,0.0,0.0,0.0,0.0,0.0,0.0,0.0,0.0,0.0,0.0,0.0,0.0,0.0,0.0,0.0,0.0,0.0,0.0,0.0,0.0,0.0,0.0,0.0,0.0,0.0,0.0,0.0,0.0,0.0,0.0,0.0,-1.4395,-1.4174,-1.3937,-1.3314,-1.2346,-1.257,-1.1964,-1.0455,0.0,0.0,0.0,0.0,0.0,0.0,0.0,0.0,0.0,0.0,0.0,0.0,0.0,0.0,0.0,0.0,0.0,0.0,0.0,0.0,0.0,0.0,0.0,0.0,0.0,0.0,0.0,0.0,0.0,0.0,0.0,0.0,0.0,0.0,0.0,0.0,0.0,0.0,0.0,0.0,0.0,0.0,0.0,0.0,0.0,0.0,0.0,0.0,0.0,0.0,0.0,0.0,0.0,0.0,0.0,0.0,0.0,0.0,0.0,0.0,0.0,0.0,0.0,0.0,0.0,0.0,0.0,0.0,0.0,0.0,0.0,0.0,0.0,0.0,0.0,0.0,0.0,0.0,0.0,0.0,0.0,0.0,0.0,0.0,0.0,0.0,0.0,0.0,0.0,0.0,0.0,0.0,0.0,0.0,0.0,0.0,0.0,0.0,0.0,0.0,0.0,0.0,0.0,0.0,0.0,0.0,-1.4014,-1.3949,-1.3651,-1.3528,-1.3021,-1.2045,-1.1414,-1.0839,-1.0219,0.0,0.0,0.0,0.0,0.0,0.0,0.0,0.0,0.0,0.0,0.0,0.0,0.0,0.0,0.0,0.0,0.0,0.0,0.0,0.0,0.0,0.0,0.0,0.0,0.0,0.0,0.0,0.0,0.0,0.0,0.0,0.0,0.0,0.0,0.0,0.0,0.0,0.0,0.0,0.0,0.0,0.0,0.0,0.0,0.0,0.0,0.0,0.0,0.0,0.0,0.0,0.0,0.0,0.0,0.0,0.0,0.0,0.0,0.0,0.0,0.0,0.0,0.0,0.0,0.0,0.0,0.0,0.0,0.0,0.0,0.0,0.0,0.0,0.0,0.0,0.0,0.0,0.0,0.0,0.0,0.0,0.0,0.0,0.0,0.0,0.0,0.0,0.0,0.0,0.0,0.0,0.0,0.0,0.0,0.0,0.0,0.0,0.0,0.0,0.0,0.0,0.0,0.0,0.0,0.0,-1.3623,-1.3721,-1.35,-1.3121,-1.3112,-1.2713,-1.1816,-1.0858,-1.0308,-1.0313,0.0,0.0,0.0,0.0,0.0,0.0,0.0,0.0,0.0,0.0,0.0,0.0,0.0,0.0,0.0,0.0,0.0,0.0,0.0,0.0,0.0,0.0,0.0,0.0,0.0,0.0,0.0,0.0,0.0,0.0,0.0,0.0,0.0,0.0,0.0,0.0,0.0,0.0,0.0,0.0,0.0,0.0,0.0,0.0,0.0,0.0,0.0,0.0,0.0,0.0,0.0,0.0,0.0,0.0,0.0,0.0,0.0,0.0,0.0,0.0,0.0,0.0,0.0,0.0,0.0,0.0,0.0,0.0,0.0,0.0,0.0,0.0,0.0,0.0,0.0,0.0,0.0,0.0,0.0,0.0,0.0,0.0,0.0,0.0,0.0,0.0,0.0,0.0,0.0,0.0,0.0,0.0,0.0,0.0,0.0,0.0,0.0,0.0,0.0,0.0,0.0,0.0,0.0,0.0,0.0,0.0,-1.3442,-1.3195,-1.2563,-1.2654,-1.2389,-1.1666,-1.1323,-1.1049,-1.0911,0.0,0.0,0.0,0.0,0.0,0.0,0.0,0.0,0.0,0.0,0.0,0.0,0.0,0.0,0.0,0.0,0.0,0.0,0.0,0.0,0.0,0.0,0.0,0.0,0.0,0.0,0.0,0.0,0.0,0.0,0.0,0.0,0.0,0.0,0.0,0.0,0.0,0.0,0.0,0.0,0.0,0.0,0.0,0.0,0.0,0.0,0.0,0.0,0.0,0.0,0.0,0.0,0.0,0.0,0.0,0.0,0.0,0.0,0.0,0.0,0.0,0.0,0.0,0.0,0.0,0.0,0.0,0.0,0.0,0.0,0.0,0.0,0.0,0.0,0.0,0.0,0.0,0.0,0.0,0.0,0.0,0.0,0.0,0.0,0.0,0.0,0.0,0.0,0.0,0.0,0.0,0.0,0.0,0.0,0.0,0.0,0.0,0.0,0.0,0.0,0.0,0.0,0.0,0.0,0.0,0.0,-1.3041,-1.2785,-1.2211,-1.2241,-1.2145,-1.1875,-1.1899,-1.195,-1.1959,0.0,0.0,0.0,0.0,0.0,0.0,0.0,0.0,0.0,0.0,0.0,0.0,0.0,0.0,0.0,0.0,0.0,0.0,0.0,0.0,0.0,0.0,0.0,0.0,0.0,0.0,0.0,0.0,0.0,0.0,0.0,0.0,0.0,0.0,0.0,0.0,0.0,0.0,0.0,0.0,0.0,0.0,0.0,0.0,0.0,0.0,0.0,0.0,0.0,0.0,0.0,0.0,0.0,0.0,0.0,0.0,0.0,0.0,0.0,0.0,0.0,0.0,0.0,0.0,0.0,0.0,0.0,0.0,0.0,0.0,0.0,0.0,0.0,0.0,0.0,0.0,0.0,0.0,0.0,0.0,0.0,0.0,0.0,0.0,0.0,0.0,0.0,0.0,0.0,0.0,0.0,0.0,0.0,0.0,0.0,0.0,0.0,0.0,0.0,0.0,0.0,0.0,0.0,0.0,0.0,0.0,-1.2626,-1.235,-1.1837,-1.1727,-1.1733,-1.1858,-1.2129,-1.2398,0.0,0.0,0.0,0.0,0.0,0.0,0.0,0.0,0.0,0.0,0.0,0.0,0.0,0.0,0.0,0.0,0.0,0.0,0.0,0.0,0.0,0.0,0.0,0.0,0.0,0.0,0.0,0.0,0.0,0.0,0.0,0.0,0.0,0.0,0.0,0.0,0.0,0.0,0.0,0.0,0.0,0.0,0.0,0.0,0.0,0.0,0.0,0.0,0.0,0.0,0.0,0.0,0.0,0.0,0.0,0.0,0.0,0.0,0.0,0.0,0.0,0.0,0.0,0.0,0.0,0.0,0.0,0.0,0.0,0.0,0.0,0.0,0.0,0.0,0.0,0.0,0.0,0.0,0.0,0.0,0.0,0.0,0.0,0.0,0.0,0.0,0.0,0.0,0.0,0.0,0.0,0.0,0.0,0.0,0.0,0.0,0.0,0.0,0.0,0.0,0.0,0.0,0.0,0.0,0.0,0.0,0.0,-1.227,-1.1957,-1.1417,-1.1179,-1.118,-1.1485,-1.1942,-1.2423,0.0,0.0,0.0,0.0,0.0,0.0,0.0,0.0,0.0,0.0,0.0,0.0,0.0,0.0,0.0,0.0,0.0,0.0,0.0,0.0,0.0,0.0,0.0,0.0,0.0,0.0,0.0,0.0,0.0,0.0,0.0,0.0,0.0,0.0,0.0,0.0,0.0,0.0,0.0,0.0,0.0,0.0,0.0,0.0,0.0,0.0,0.0,0.0,0.0,0.0,0.0,0.0,0.0,0.0,0.0,0.0,0.0,0.0,0.0,0.0,0.0,0.0,0.0,0.0,0.0,0.0,0.0,0.0,0.0,0.0,0.0,0.0,0.0,0.0,0.0,0.0,0.0,0.0,0.0,0.0,0.0,0.0,0.0,0.0,0.0,0.0,0.0,0.0,0.0,0.0,0.0,0.0,0.0,0.0,0.0,0.0,0.0,0.0,0.0,0.0,0.0,0.0,0.0,0.0,0.0,0.0,0.0,-1.2688,-1.2214,-1.145,-1.1374,-1.1185,-1.0914,-1.1778,-1.2451,-1.28,0.0,0.0,0.0,0.0,0.0,0.0,0.0,0.0,0.0,0.0,0.0,0.0,0.0,0.0,0.0,0.0,0.0,0.0,0.0,0.0,0.0,0.0,0.0,0.0,0.0,0.0,0.0,0.0,0.0,0.0,0.0,0.0,0.0,0.0,0.0,0.0,0.0,0.0,0.0,0.0,0.0,0.0,0.0,0.0,0.0,0.0,0.0,0.0,0.0,0.0,0.0,0.0,0.0,0.0,0.0,0.0,0.0,0.0,0.0,0.0,0.0,0.0,0.0,0.0,0.0,0.0,0.0,0.0,0.0,0.0,0.0,0.0,0.0,0.0,0.0,0.0,0.0,0.0,0.0,0.0,0.0,0.0,0.0,0.0,0.0,0.0,0.0,0.0,0.0,0.0,0.0,0.0,0.0,0.0,0.0,0.0,0.0,0.0,0.0,0.0,0.0,0.0,0.0,0.0,0.0,0.0,-1.363,-1.3125,-1.228,-1.1575,-1.1056,-1.0679,-1.1347,-1.2094,-1.2926,0.0,0.0,0.0,0.0,0.0,0.0,0.0,0.0,0.0,0.0,0.0,0.0,0.0,0.0,0.0,0.0,0.0,0.0,0.0,0.0,0.0,0.0,0.0,0.0,0.0,0.0,0.0,0.0,0.0,0.0,0.0,0.0,0.0,0.0,0.0,0.0,0.0,0.0,0.0,0.0,0.0,0.0,0.0,0.0,0.0,0.0,0.0,0.0,0.0,0.0,0.0,0.0,0.0,0.0,0.0,0.0,0.0,0.0,0.0,0.0,0.0,0.0,0.0,0.0,0.0,0.0,0.0,0.0,0.0,0.0,0.0,0.0,0.0,0.0,0.0,0.0,0.0,0.0,0.0,0.0,0.0,0.0,0.0,0.0,0.0,0.0,0.0,0.0,0.0,0.0,0.0,0.0,0.0,0.0,0.0,0.0,0.0,0.0,0.0,0.0,0.0,0.0,0.0,0.0,0.0,0.0,0.0,-1.4491,-1.3708,-1.1778,-1.0752,-1.069,-1.0591,-1.1354,-1.2997,0.0,0.0,0.0,0.0,0.0,0.0,0.0,0.0,0.0,0.0,0.0,0.0,0.0,0.0,0.0,0.0,0.0,0.0,0.0,0.0,0.0,0.0,0.0,0.0,0.0,0.0,0.0,0.0,0.0,0.0,0.0,0.0,0.0,0.0,0.0,0.0,0.0,0.0,0.0,0.0,0.0,0.0,0.0,0.0,0.0,0.0,0.0,0.0,0.0,0.0,0.0,0.0,0.0,0.0,0.0,0.0,0.0,0.0,0.0,0.0,0.0,0.0,0.0,0.0,0.0,0.0,0.0,0.0,0.0,0.0,0.0,0.0,0.0,0.0,0.0,0.0,0.0,0.0,0.0,0.0,0.0,0.0,0.0,0.0,0.0,0.0,0.0,0.0,0.0,0.0,0.0,0.0,0.0,0.0,0.0,0.0,0.0,0.0,0.0,0.0,0.0,0.0,0.0,0.0,0.0,0.0,-1.5675,-1.505,-1.3761,-1.1712,-1.0222,-0.9413,-0.9091,-0.9725,-1.1397,0.0,0.0,0.0,0.0,0.0,0.0,0.0,0.0,0.0,0.0,0.0,0.0,0.0,0.0,0.0,0.0,0.0,0.0,0.0,0.0,0.0,0.0,0.0,0.0,0.0,0.0,0.0,0.0,0.0,0.0,0.0,0.0,0.0,0.0,0.0,0.0,0.0,0.0,0.0,0.0,0.0,0.0,0.0,0.0,0.0,0.0,0.0,0.0,0.0,0.0,0.0,0.0,0.0,0.0,0.0,0.0,0.0,0.0,0.0,0.0,0.0,0.0,0.0,0.0,0.0,0.0,0.0,0.0,0.0,0.0,0.0,0.0,0.0,0.0,0.0,0.0,0.0,0.0,0.0,0.0,0.0,0.0,0.0,0.0,0.0,0.0,0.0,0.0,0.0,0.0,0.0,0.0,0.0,0.0,0.0,0.0,0.0,0.0,0.0,0.0,0.0,0.0,0.0,0.0,0.0,0.0,-1.6472,-1.5719,-1.4382,-1.1914,-0.9884,-0.8295,-0.7736,-0.8288,-1.0208,0.0,0.0,0.0,0.0,0.0,0.0,0.0,0.0,0.0,0.0,0.0,0.0,0.0,0.0,0.0,0.0,0.0,0.0,0.0,0.0,0.0,0.0,0.0,0.0,0.0,0.0,0.0,0.0,0.0,0.0,0.0,0.0,0.0,0.0,0.0,0.0,0.0,0.0,0.0,0.0,0.0,0.0,0.0,0.0,0.0,0.0,0.0,0.0,-1.9655,0.0,0.0,0.0,0.0,0.0,0.0,0.0,0.0,0.0,0.0,0.0,0.0,0.0,0.0,0.0,0.0,0.0,0.0,0.0,0.0,0.0,0.0,0.0,0.0,0.0,0.0,0.0,0.0,0.0,0.0,0.0,0.0,0.0,0.0,0.0,0.0,0.0,0.0,0.0,0.0,0.0,0.0,0.0,0.0,0.0,0.0,0.0,0.0,0.0,0.0,0.0,0.0,0.0,0.0,0.0,-1.7843,-1.7849,-1.7244,-1.634,-1.5166,-1.2294,-0.9689,-0.7456,-0.6556,-0.7078,-0.9235,0.0,0.0,0.0,0.0,0.0,0.0,0.0,0.0,0.0,0.0,0.0,0.0,0.0,0.0,0.0,0.0,0.0,0.0,0.0,0.0,0.0,0.0,0.0,0.0,0.0,0.0,0.0,0.0,0.0,0.0,0.0,0.0,0.0,0.0,0.0,0.0,0.0,0.0,0.0,0.0,0.0,0.0,0.0,0.0,0.0,0.0,0.0,-2.0168,-1.9272,0.0,0.0,0.0,0.0,0.0,0.0,0.0,0.0,0.0,0.0,0.0,0.0,0.0,0.0,0.0,0.0,0.0,0.0,0.0,0.0,0.0,0.0,0.0,0.0,0.0,0.0,0.0,-1.2562,0.0,-1.2996,0.0,0.0,0.0,0.0,0.0,0.0,0.0,0.0,0.0,0.0,0.0,0.0,0.0,0.0,0.0,0.0,0.0,0.0,0.0,0.0,0.0,0.0,0.0,0.0,-1.8041,-1.8141,-1.8458,-1.7854,-1.6728,-1.5117,-1.2699,-1.0045,-0.7136,-0.5962,-0.6181,-0.7959,0.0,0.0,0.0,0.0,0.0,0.0,0.0,0.0,0.0,0.0,0.0,0.0,0.0,0.0,0.0,0.0,0.0,0.0,0.0,0.0,0.0,0.0,0.0,0.0,0.0,0.0,0.0,0.0,0.0,0.0,0.0,0.0,0.0,0.0,0.0,0.0,0.0,0.0,0.0,0.0,0.0,0.0,0.0,0.0,0.0,0.0,0.0,-2.0576,0.0,0.0,0.0,0.0,0.0,0.0,0.0,0.0,0.0,0.0,0.0,0.0,0.0,0.0,0.0,0.0,0.0,0.0,0.0,0.0,0.0,0.0,0.0,0.0,0.0,0.0,0.0,0.0,-1.3458,-1.3609,-1.4279,0.0,0.0,0.0,0.0,0.0,0.0,0.0,0.0,0.0,0.0,0.0,0.0,0.0,0.0,0.0,0.0,0.0,0.0,0.0,0.0,0.0,0.0,0.0,-1.8635,-1.9036,-1.9044,-1.8655,-1.8208,-1.7064,-1.5124,-1.27,-1.0087,-0.7282,-0.5981,-0.6056,-0.7568,0.0,0.0,0.0,0.0,0.0,0.0,0.0,0.0,0.0,0.0,0.0,0.0,0.0,0.0,0.0,0.0,0.0,0.0,0.0,0.0,0.0,0.0,0.0,0.0,0.0,0.0,0.0,0.0,0.0,0.0,0.0,0.0,0.0,0.0,0.0,0.0,0.0,-2.6329,-2.525,0.0,0.0,0.0,0.0,0.0,0.0,0.0,0.0,-2.1234,-2.0876,0.0,0.0,0.0,0.0,0.0,0.0,0.0,0.0,0.0,0.0,0.0,0.0,0.0,0.0,0.0,0.0,0.0,0.0,0.0,0.0,0.0,0.0,0.0,0.0,0.0,0.0,0.0,-1.4284,-1.4446,-1.5354,0.0,0.0,0.0,0.0,0.0,0.0,0.0,0.0,0.0,0.0,0.0,0.0,0.0,0.0,0.0,0.0,0.0,0.0,0.0,0.0,0.0,0.0,0.0,-1.9388,-2.0095,-1.9877,-1.8668,-1.8312,-1.7133,-1.4936,-1.2618,-1.0149,-0.7552,-0.6481,-0.6557,-0.7862,0.0,0.0,0.0,0.0,0.0,0.0,0.0,0.0,0.0,0.0,0.0,0.0,0.0,0.0,0.0,0.0,0.0,0.0,0.0,0.0,0.0,0.0,0.0,0.0,0.0,0.0,0.0,0.0,0.0,0.0,0.0,0.0,0.0,0.0,0.0,0.0,0.0,-2.6415,-2.5051,-2.3933,-2.2959,0.0,0.0,0.0,0.0,0.0,0.0,0.0,-2.1253,-2.0943,-2.1444,0.0,0.0,0.0,0.0,0.0,0.0,0.0,0.0,0.0,0.0,0.0,0.0,0.0,0.0,0.0,0.0,0.0,0.0,0.0,0.0,0.0,0.0,0.0,0.0,0.0,-1.548,-1.5226,-1.5251,0.0,0.0,0.0,0.0,0.0,0.0,0.0,0.0,0.0,0.0,0.0,0.0,0.0,0.0,0.0,0.0,0.0,0.0,0.0,0.0,0.0,0.0,0.0,0.0,-1.9808,-1.9296,-1.8611,-1.7882,-1.6472,-1.4244,-1.2623,-1.0509,-0.7932,-0.765,-0.8023,-0.9134,-1.1595,0.0,0.0,0.0,0.0,0.0,0.0,0.0,0.0,0.0,0.0,0.0,0.0,0.0,0.0,0.0,0.0,0.0,0.0,0.0,0.0,0.0,0.0,0.0,0.0,0.0,0.0,0.0,0.0,0.0,0.0,0.0,0.0,0.0,0.0,0.0,0.0,-2.4936,-2.2827,-2.1217,-2.0498,-2.1193,0.0,0.0,0.0,0.0,0.0,-2.2614,-2.2149,-2.2263,-2.3969,-2.3487,0.0,0.0,0.0,0.0,0.0,0.0,0.0,0.0,0.0,0.0,0.0,0.0,0.0,0.0,0.0,0.0,0.0,0.0,0.0,0.0,0.0,0.0,0.0,0.0,-1.6305,-1.628,-1.6751,-1.6403,-1.6245,0.0,0.0,0.0,0.0,-1.5633,0.0,0.0,0.0,0.0,0.0,0.0,0.0,0.0,0.0,0.0,0.0,0.0,0.0,0.0,0.0,0.0,0.0,-2.0088,-1.9526,-1.8739,-1.7792,-1.6328,-1.435,-1.2675,-1.0722,-0.8514,-0.819,-0.8482,-0.9479,0.0,0.0,0.0,0.0,0.0,0.0,0.0,0.0,0.0,0.0,0.0,0.0,0.0,0.0,0.0,0.0,0.0,0.0,0.0,0.0,0.0,0.0,0.0,0.0,0.0,0.0,0.0,0.0,0.0,0.0,0.0,0.0,0.0,0.0,0.0,0.0,0.0,0.0,-2.127,-1.996,-1.9272,-1.9549,-2.0249,-2.0964,-2.16,-2.239,-2.3247,-2.428,-2.3722,-2.3763,-2.5488,0.0,0.0,0.0,0.0,0.0,0.0,0.0,0.0,0.0,0.0,0.0,0.0,0.0,0.0,0.0,0.0,0.0,0.0,0.0,0.0,0.0,0.0,0.0,0.0,0.0,0.0,-1.7392,-1.8325,-1.7437,-1.7214,-1.7598,0.0,0.0,0.0,-1.6128,-1.6287,0.0,0.0,0.0,0.0,0.0,0.0,0.0,0.0,0.0,0.0,0.0,0.0,0.0,0.0,0.0,0.0,-2.0341,-1.9656,-1.8615,-1.7614,-1.6211,-1.4417,-1.2764,-1.1014,-0.9164,-0.8655,-0.8768,-0.9589,0.0,0.0,0.0,0.0,0.0,0.0,0.0,0.0,0.0,0.0,0.0,0.0,0.0,0.0,0.0,0.0,0.0,0.0,0.0,0.0,0.0,0.0,0.0,0.0,0.0,0.0,0.0,0.0,0.0,0.0,0.0,0.0,0.0,0.0,0.0,0.0,0.0,0.0,0.0,-1.9617,-1.9034,-1.903,-2.0217,-2.159,-2.3002,-2.4013,-2.5019,-2.6165,-2.5549,-2.5401,0.0,0.0,0.0,0.0,0.0,0.0,0.0,0.0,0.0,0.0,0.0,0.0,0.0,0.0,0.0,0.0,0.0,0.0,0.0,0.0,0.0,0.0,-2.005,-1.9221,0.0,0.0,-1.8837,-1.8623,-1.876,-1.8496,-1.8232,-1.7954,-1.8003,-1.7751,0.0,-1.7108,-1.6698,-1.6232,0.0,0.0,0.0,0.0,0.0,0.0,0.0,0.0,0.0,0.0,0.0,0.0,0.0,0.0,0.0,0.0,-1.8875,-1.7617,-1.7102,-1.579,-1.3628,-1.3033,-1.1802,-0.9746,-0.9317,-0.9346,-0.9952,0.0,0.0,0.0,0.0,0.0,0.0,0.0,0.0,0.0,0.0,0.0,0.0,0.0,0.0,0.0,0.0,0.0,0.0,0.0,0.0,0.0,0.0,0.0,0.0,0.0,-2.3048,0.0,0.0,0.0,0.0,0.0,0.0,0.0,0.0,0.0,0.0,0.0,0.0,0.0,0.0,-2.0072,-2.1619,-2.2312,-2.3239,-2.4714,-2.6129,-2.7217,-2.7697,-2.7524,-2.7391,0.0,0.0,0.0,0.0,0.0,0.0,0.0,0.0,0.0,0.0,0.0,0.0,0.0,0.0,0.0,0.0,0.0,0.0,0.0,0.0,0.0,0.0,-2.0454,-2.0498,-2.0411,-2.014,-1.9937,-1.9834,-1.9768,-1.9666,-1.9228,-1.8482,-1.8668,-1.8334,-1.7574,-1.7306,-1.7104,-1.6834,0.0,0.0,0.0,0.0,0.0,0.0,0.0,0.0,0.0,0.0,0.0,0.0,-2.0859,-2.0783,-2.0884,-1.9602,-1.8639,-1.7935,-1.685,-1.5587,-1.4125,-1.3525,-1.2338,-1.0527,-1.0053,-0.9805,0.0,0.0,0.0,0.0,0.0,0.0,0.0,0.0,0.0,0.0,0.0,0.0,0.0,0.0,0.0,0.0,0.0,0.0,0.0,0.0,0.0,0.0,0.0,0.0,0.0,-2.3542,-2.3293,-2.3793,0.0,0.0,0.0,0.0,0.0,0.0,0.0,0.0,0.0,0.0,0.0,0.0,0.0,-2.1741,-2.2554,-2.403,-2.5541,-2.687,-2.8565,-2.9692,-2.9507,-2.9059,-2.8408,0.0,0.0,0.0,0.0,0.0,0.0,0.0,0.0,0.0,0.0,0.0,0.0,0.0,0.0,0.0,0.0,0.0,0.0,-2.2492,-2.2745,-2.2914,-2.2297,-2.1195,-2.1731,-2.1609,-2.1019,-2.1001,-2.09,-2.0714,-2.0665,-2.01,-1.9313,-1.9514,-1.9015,-1.7956,-1.776,-1.7539,-1.7326,-1.6576,0.0,0.0,0.0,0.0,0.0,0.0,0.0,0.0,0.0,0.0,-2.135,-2.0961,-2.0816,-2.0691,-1.9371,-1.8514,-1.8311,-1.688,-1.5696,-1.4831,-1.4179,-1.3078,-1.1471,-1.0679,-1.0048,0.0,0.0,0.0,0.0,0.0,0.0,0.0,0.0,0.0,0.0,0.0,0.0,0.0,0.0,0.0,0.0,0.0,0.0,0.0,0.0,0.0,0.0,0.0,-2.4489,-2.4217,-2.386,-2.3773,-2.3956,-2.3699,0.0,-2.5673,0.0,0.0,0.0,0.0,0.0,0.0,0.0,0.0,0.0,0.0,-2.3996,-2.4451,-2.6257,-2.7913,-2.8932,-3.0512,-3.1343,-3.0463,-2.9825,-2.876,0.0,0.0,0.0,0.0,0.0,0.0,0.0,0.0,0.0,0.0,0.0,0.0,0.0,0.0,0.0,0.0,0.0,0.0,-2.3438,-2.4026,-2.332,-2.3047,-2.3062,-2.2651,-2.2546,-2.2559,-2.2113,-2.1775,-2.1558,-2.1235,-2.0827,-2.0513,-2.0624,-1.9955,-1.8755,-1.8811,-1.8247,-1.7069,-1.6828,0.0,0.0,0.0,0.0,0.0,0.0,0.0,0.0,0.0,0.0,-2.1819,-2.1131,-2.0769,-2.0851,-1.9347,-1.8483,-1.8184,-1.7226,-1.6298,-1.5375,-1.499,-1.4073,-1.2507,-1.1062,-1.0019,0.0,0.0,0.0,0.0,0.0,0.0,0.0,0.0,0.0,0.0,0.0,0.0,0.0,0.0,0.0,0.0,0.0,0.0,0.0,0.0,0.0,0.0,0.0,0.0,-2.5436,-2.4823,-2.4266,-2.4027,-2.3926,-2.4094,-2.4492,0.0,0.0,0.0,0.0,0.0,0.0,0.0,0.0,0.0,0.0,-2.7158,-2.8664,-2.96,-3.021,-3.044,-3.1365,-3.1507,-2.9823,-2.9398,-2.8366,-2.5933,-2.4559,-2.3451,0.0,0.0,0.0,0.0,0.0,0.0,0.0,0.0,0.0,0.0,0.0,0.0,0.0,0.0,0.0,-2.4785,-2.4889,-2.4868,-2.4379,-2.3817,-2.4268,-2.4066,-2.3338,-2.3338,-2.3036,-2.2446,-2.244,-2.2193,-2.1788,-2.1882,-2.1263,-2.0183,-2.0053,-1.9507,-1.8583,-1.8703,0.0,0.0,0.0,0.0,0.0,0.0,0.0,0.0,0.0,0.0,-2.0902,-2.0648,-2.0489,-2.0397,-1.9283,-1.862,-1.8328,-1.746,-1.6703,-1.6166,-1.5878,-1.5131,-1.3816,-1.2324,-1.0939,-0.974,0.0,0.0,0.0,0.0,0.0,0.0,0.0,0.0,0.0,0.0,0.0,0.0,0.0,0.0,0.0,0.0,0.0,0.0,0.0,0.0,0.0,0.0,0.0,0.0,-2.5644,-2.5242,-2.4905,-2.4826,-2.4805,-2.4946,-2.554,0.0,0.0,0.0,0.0,0.0,0.0,0.0,-2.7762,0.0,-2.9001,-3.0328,-3.12,-3.1832,-3.2204,-3.223,-3.1761,-3.0605,-2.9127,-2.7516,-2.573,-2.3897,-2.2237,-2.096,0.0,0.0,0.0,0.0,0.0,0.0,0.0,0.0,0.0,0.0,0.0,0.0,0.0,0.0,-2.621,-2.5797,-2.5885,-2.5393,-2.4825,-2.5677,-2.5396,-2.4399,-2.4685,-2.4277,-2.3383,-2.3401,-2.3148,-2.2718,-2.2575,-2.215,-2.1463,-2.1215,-2.0725,-2.0152,-2.0245,-1.9311,0.0,0.0,0.0,0.0,0.0,0.0,0.0,0.0,0.0,-2.0037,-2.0087,-2.003,-1.9938,-1.9199,-1.8774,-1.8552,-1.7792,-1.7239,-1.6958,-1.6578,-1.5895,-1.4755,-1.3235,-1.1723,-1.0217,0.0,0.0,0.0,0.0,-1.5213,0.0,0.0,0.0,0.0,0.0,0.0,0.0,0.0,0.0,0.0,0.0,0.0,0.0,0.0,0.0,0.0,0.0,0.0,0.0,0.0,-2.6112,-2.5675,-2.5322,-2.5132,-2.5115,-2.5429,-2.6024,-2.6866,0.0,0.0,0.0,0.0,0.0,0.0,-3.0011,-3.08,-3.2043,-3.2383,-3.2605,-3.2889,-3.2063,-3.1105,-3.0285,-2.8319,-2.653,-2.5304,-2.3431,-2.1779,-2.0741,-2.0273,-1.9952,-1.9648,-2.0296,-2.0687,-2.0008,0.0,0.0,0.0,0.0,0.0,0.0,0.0,0.0,-2.7534,-2.6857,-2.608,-2.6024,-2.6364,-2.6667,-2.6565,-2.614,-2.6194,-2.5593,-2.4408,-2.4072,-2.369,-2.3208,-2.2684,-2.2535,-2.2483,-2.2139,-2.1808,-2.1478,-2.1161,-2.0468,-1.9378,-1.9125,-1.8699,-1.8244,-1.7969,-1.8123,-1.8691,-1.8999,-1.9254,-1.9527,-1.9478,-1.9419,-1.9419,-1.9124,-1.8936,-1.8881,-1.8332,-1.7958,-1.7763,-1.7081,-1.6256,-1.5275,-1.366,-1.2158,-1.0822,0.0,0.0,0.0,0.0,-1.5077,0.0,0.0,0.0,0.0,0.0,0.0,0.0,0.0,0.0,0.0,0.0,0.0,0.0,0.0,0.0,0.0,0.0,0.0,0.0,0.0,-2.6701,-2.6199,-2.5291,-2.4729,-2.4735,-2.4878,-2.5389,0.0,0.0,0.0,0.0,0.0,-2.9564,-3.1963,-3.2286,-3.2724,-3.406,-3.3235,-3.2378,-3.2196,-3.0711,-2.9255,-2.834,-2.6955,-2.553,-2.4409,-2.3287,0.0,0.0,0.0,0.0,0.0,0.0,0.0,0.0,0.0,0.0,0.0,0.0,0.0,0.0,0.0,0.0,-2.9777,-2.906,-2.8606,-2.869,-2.9072,-2.9326,-2.9568,-2.9761,-2.942,-2.8485,-2.7277,-2.7066,-2.6439,-2.5456,-2.5038,-2.485,-2.4871,-2.4379,-2.4028,-2.3722,-2.3624,-2.2616,-2.086,-2.0546,-1.9713,-1.8463,-1.8206,-1.8061,-1.805,-1.8172,-1.8291,-1.8469,-1.8484,-1.8655,-1.8839,-1.8654,-1.8592,-1.8657,-1.8306,-1.822,-1.8374,-1.7642,-1.6919,-1.6256,-1.4737,-1.3195,-1.1736,-1.1325,0.0,0.0,-1.3233,-1.4665,0.0,0.0,0.0,0.0,0.0,0.0,0.0,0.0,0.0,0.0,0.0,0.0,0.0,0.0,0.0,0.0,0.0,0.0,0.0,0.0,-2.7275,-2.6336,-2.5475,-2.5009,-2.5097,-2.4985,-2.5321,-2.6361,-2.6893,-2.7734,-2.9349,-3.0231,-3.1326,-3.2917,-3.3487,-3.3911,-3.4205,-3.3509,-3.2738,-3.217,-3.0664,-2.9079,-2.8008,-2.6715,-2.5635,-2.4765,-2.3668,-2.2829,-2.2583,-2.1745,-2.0859,-2.0118,-2.0329,-2.0236,-1.8841,-1.8646,-1.868,-1.8581,-1.8511,-1.8585,-1.8977,-1.8545,-1.8235,-3.2219,-3.1229,-3.1074,-3.1219,-3.1563,-3.1806,-3.2103,-3.2324,-3.2042,-3.1292,-3.0308,-3.0214,-2.9433,-2.8186,-2.7645,-2.7138,-2.6782,-2.6732,-2.628,-2.5671,-2.5562,-2.4348,-2.2107,-2.1611,-2.0626,-1.9175,-1.8935,-1.8418,-1.7809,-1.7799,-1.7693,-1.7446,-1.765,-1.7902,-1.8253,-1.8194,-1.83,-1.8633,-1.8466,-1.854,-1.8844,-1.8009,-1.7387,-1.7113,-1.5423,-1.3962,-1.2743,-1.2165,-1.1945,0.0,-1.2965,0.0,0.0,0.0,0.0,0.0,0.0,0.0,0.0,0.0,0.0,0.0,0.0,0.0,0.0,0.0,0.0,0.0,0.0,0.0,0.0,-2.8232,-2.7695,-2.6734,-2.5959,-2.5604,-2.583,-2.5785,-2.6154,-2.7378,-2.8265,-2.9231,-3.0529,-3.1232,-3.2235,-3.3953,-3.4079,-3.4071,-3.4256,-3.3319,-3.2479,-3.2168,-3.0367,-2.8878,-2.8289,-2.693,-2.5786,-2.5419,-2.4325,-2.332,-2.2877,-2.2252,-2.1594,-2.0767,-2.0655,-2.0277,-1.9052,-1.8873,-1.8862,-1.8699,-1.8585,-1.8617,-1.8992,-1.8679,-1.8428,-3.4726,-3.3309,-3.3379,-3.3531,-3.3773,-3.4106,-3.4129,-3.4023,-3.4078,-3.3912,-3.3411,-3.3224,-3.2441,-3.125,-3.031,-2.9275,-2.8217,-2.894,-2.8521,-2.7191,-2.6938,-2.5565,-2.3193,-2.2343,-2.1431,-2.0449,-1.9879,-1.9058,-1.7971,-1.7857,-1.74,-1.6648,-1.6956,-1.7252,-1.7613,-1.7796,-1.8206,-1.8744,-1.8864,-1.903,-1.9222,-1.8188,-1.7671,-1.773,-1.5699,-1.4341,-1.3949,-1.3123,-1.306,-1.3844,-1.3157,0.0,0.0,0.0,0.0,0.0,0.0,0.0,0.0,0.0,0.0,0.0,0.0,0.0,0.0,0.0,0.0,0.0,0.0,0.0,-2.8723,-2.8453,-2.7997,-2.745,-2.6724,-2.6476,-2.7037,-2.7165,-2.7791,-2.9287,-3.0393,-3.0987,-3.1027,-3.1284,-3.2381,-3.4984,-3.411,-3.3477,-3.423,-3.2822,-3.1753,-3.2029,-2.9956,-2.8565,-2.9052,-2.7369,-2.601,-2.6104,-2.5088,-2.3948,-2.2987,-2.2679,-2.2317,-2.1591,-2.0765,-2.0127,-1.9862,-1.9853,-1.9864,-1.9624,-1.946,-1.9517,-1.9528,-1.918,-1.9015,-3.824,-3.6297,-3.5993,-3.6308,-3.6952,-3.7188,-3.7679,-3.8329,-3.8124,-3.7392,-3.6256,-3.617,-3.5098,-3.3311,-3.2862,-3.1937,-3.0713,-3.0555,-2.9721,-2.8477,-2.7269,-2.5846,-2.4345,-2.2665,-2.1543,-2.0895,-2.0116,-1.9247,-1.8315,-1.8231,-1.7493,-1.6198,-1.6702,-1.6974,-1.7091,-1.77,-1.8228,-1.8581,-1.8987,-1.9014,-1.8649,-1.8189,-1.7458,-1.6419,-1.5628,-1.5099,-1.4833,-1.4409,-1.4164,-1.4194,-1.4213,0.0,-1.5241,0.0,0.0,0.0,0.0,-2.1563,-2.3102,-2.3334,0.0,0.0,0.0,-2.5177,0.0,0.0,0.0,0.0,-2.7435,-2.8177,-2.9018,-2.8968,-2.8871,-2.8941,-2.8254,-2.8106,-2.8941,-2.844,-2.8771,-3.0873,-3.1349,-3.1965,-3.3135,-3.3707,-3.4138,-3.4402,-3.4659,-3.447,-3.3592,-3.2883,-3.2317,-3.1902,-3.0395,-2.909,-2.8233,-2.7462,-2.6575,-2.5636,-2.5162,-2.4556,-2.3486,-2.3257,-2.2743,-2.1285,-2.0676,-2.0172,-1.9373,-1.9085,-1.8988,-1.8763,-1.8677,-1.8684,-1.8664,-1.8684,-1.8583,-4.0738,-3.959,-3.9062,-3.9167,-3.9662,-3.9733,-4.0151,-4.0767,-4.0449,-3.9946,-3.9302,-3.9273,-3.82,-3.6435,-3.5017,-3.3823,-3.2835,-3.1684,-3.0566,-2.9375,-2.7634,-2.6189,-2.4916,-2.3071,-2.1895,-2.1435,-2.0551,-1.9616,-1.8576,-1.8642,-1.7951,-1.6482,-1.6741,-1.6962,-1.7077,-1.7683,-1.8238,-1.8797,-1.9145,-1.9107,-1.8764,-1.81,-1.7153,-1.5875,-1.5753,-1.567,-1.5495,-1.5226,-1.5115,-1.5166,-1.5078,-1.5178,0.0,-1.6371,-1.7214,-1.7933,-1.8763,-2.0055,-2.1859,-2.2312,0.0,0.0,-2.4874,-2.5207,-2.4621,0.0,0.0,-2.7238,-2.7887,-2.8607,-2.9292,-2.9537,-2.9693,-2.9836,-2.951,-2.9662,-3.0687,-3.0233,-3.0478,-3.2115,-3.2453,-3.2852,-3.3762,-3.4428,-3.4702,-3.4587,-3.47,-3.441,-3.3463,-3.2956,-3.2394,-3.1779,-3.0633,-2.9431,-2.8391,-2.7742,-2.6862,-2.569,-2.5466,-2.5123,-2.4191,-2.3727,-2.3058,-2.1953,-2.1011,-2.026,-1.9606,-1.9019,-1.8493,-1.8339,-1.8313,-1.822,-1.8008,-1.8002,-1.7949,-4.2292,-4.2816,-4.2224,-4.1901,-4.1851,-4.1777,-4.1736,-4.1729,-4.1491,-4.1722,-4.2148,-4.2114,-4.1389,-4.0034,-3.6909,-3.5162,-3.4554,-3.2627,-3.1112,-2.9851,-2.8082,-2.6514,-2.5097,-2.3484,-2.2474,-2.2043,-2.1147,-2.0093,-1.8972,-1.9136,-1.8566,-1.7304,-1.7164,-1.7225,-1.7513,-1.7784,-1.8395,-1.9279,-1.9373,-1.9354,-1.9241,-1.7935,-1.6777,-1.5911,-1.6035,-1.6086,-1.5983,-1.578,-1.5965,-1.6497,-1.5806,-1.5544,-1.5829,-1.6187,-1.6561,-1.702,-1.7754,-1.8991,-2.0731,-2.1563,-2.2396,-2.3312,-2.4927,-2.5803,-2.5321,-2.7311,-2.834,-2.7636,-2.8579,-2.9363,-2.9726,-3.0219,-3.0505,-3.0584,-3.0678,-3.1172,-3.2249,-3.2247,-3.2407,-3.3081,-3.346,-3.3606,-3.3326,-3.3826,-3.4491,-3.5151,-3.4274,-3.357,-3.3506,-3.2747,-3.2111,-3.1636,-3.0564,-2.9635,-2.8986,-2.795,-2.6918,-2.6043,-2.5828,-2.5518,-2.483,-2.4057,-2.344,-2.2845,-2.1555,-2.0369,-2.0327,-1.9259,-1.8448,-1.8267,-1.82,-1.8048,-1.7494,-1.7409,-1.7233,-4.2831,-4.3459,-4.3197,-4.2835,-4.2396,-4.2647,-4.2627,-4.2511,-4.2458,-4.256,-4.281,-4.2592,-4.1765,-4.0343,-3.8526,-3.7019,-3.5635,-3.341,-3.1596,-3.0109,-2.8014,-2.6542,-2.5538,-2.3637,-2.2657,-2.2483,-2.1464,-2.0633,-2.0088,-1.9789,-1.934,-1.8811,-1.8758,-1.8374,-1.7784,-1.8526,-1.9052,-1.9297,-1.9793,-1.964,-1.8806,-1.7315,-1.6475,-1.6403,-1.6426,-1.6511,-1.6732,-1.6519,-1.6668,-1.7164,-1.7048,-1.6928,-1.6915,-1.7239,-1.7447,-1.7529,-1.8443,-1.9446,-2.0465,-2.1434,-2.2374,-2.3231,-2.4752,-2.5507,-2.5243,-2.7387,-2.8575,-2.8154,-2.8902,-2.9846,-3.0892,-3.1043,-3.1656,-3.2967,-3.252,-3.2523,-3.3531,-3.2641,-3.2384,-3.3449,-3.3109,-3.3123,-3.3901,-3.3847,-3.3776,-3.4028,-3.3672,-3.2984,-3.1855,-3.1476,-3.1205,-3.0871,-3.0278,-2.9525,-2.8665,-2.7536,-2.6628,-2.6147,-2.5892,-2.5458,-2.4554,-2.4128,-2.347,-2.2259,-2.1361,-2.0582,-1.9766,-1.8974,-1.8429,-1.8041,-1.7817,-1.75,-1.7086,-1.698,-1.677,-4.3419,-4.3952,-4.3803,-4.3757,-4.3739,-4.341,-4.3257,-4.3148,-4.3357,-4.3393,-4.3177,-4.2914,-4.203,-4.074,-3.9195,-3.7775,-3.629,-3.3646,-3.1706,-3.0365,-2.8241,-2.6801,-2.5884,-2.4148,-2.3148,-2.2806,-2.1826,-2.1042,-2.0517,-2.0143,-1.9817,-1.9547,-1.9472,-1.9214,-1.8789,-1.9297,-1.9601,-1.9735,-1.9659,-1.9353,-1.8802,-1.7169,-1.6473,-1.6855,-1.667,-1.6611,-1.6812,-1.6832,-1.6999,-1.7298,-1.7612,-1.7671,-1.7456,-1.7967,-1.816,-1.789,-1.8605,-1.9484,-2.0506,-2.1068,-2.2065,-2.3651,-2.4885,-2.5608,-2.5741,-2.7678,-2.9096,-2.9505,-2.9871,-3.0511,-3.1539,-3.1777,-3.2245,-3.3164,-3.302,-3.3184,-3.3892,-3.3067,-3.2668,-3.3318,-3.2929,-3.2785,-3.3277,-3.3104,-3.2925,-3.2817,-3.2653,-3.2348,-3.1786,-3.1358,-3.1089,-3.0911,-3.0499,-2.9773,-2.8721,-2.7566,-2.6649,-2.63,-2.5848,-2.527,-2.4536,-2.3974,-2.3267,-2.224,-2.1503,-2.084,-2.012,-1.9102,-1.8377,-1.81,-1.7416,-1.6785,-1.6447,-1.6381,-1.6247,-4.3952,-4.4344,-4.4098,-4.4384,-4.4976,-4.4085,-4.3712,-4.3799,-4.4165,-4.4047,-4.3627,-4.3164,-4.2382,-4.1279,-3.9491,-3.8044,-3.6795,-3.3694,-3.1683,-3.0607,-2.8593,-2.7125,-2.6167,-2.4777,-2.3831,-2.3186,-2.2207,-2.1371,-2.0694,-2.0418,-2.0189,-1.9989,-1.9789,-1.9803,-1.9942,-1.9943,-2.0061,-2.0294,-1.9277,-1.882,-1.8908,-1.7293,-1.67,-1.7166,-1.6833,-1.663,-1.6707,-1.6985,-1.7192,-1.7322,-1.7928,-1.8128,-1.7807,-1.8556,-1.8758,-1.8257,-1.8706,-1.9549,-2.0749,-2.1015,-2.2072,-2.4247,-2.5296,-2.5974,-2.6441,-2.8171,-2.9735,-3.1014,-3.1012,-3.1261,-3.1956,-3.2382,-3.2571,-3.2591,-3.2986,-3.337,-3.3683,-3.3312,-3.2995,-3.295,-3.2698,-3.244,-3.2234,-3.2285,-3.2194,-3.1875,-3.1807,-3.1877,-3.2206,-3.1667,-3.1129,-3.1205,-3.0721,-2.9784,-2.8948,-2.7801,-2.6869,-2.6477,-2.5793,-2.5099,-2.4694,-2.3795,-2.2996,-2.2533,-2.1761,-2.104,-2.0807,-1.9488,-1.8446,-1.8257,-1.7172,-1.6152,-1.5919,-1.5842,-1.5799,-4.4141,-4.4905,-4.4132,-4.4132,-4.4681,-4.4293,-4.4395,-4.4777,-4.4477,-4.4317,-4.4335,-4.3861,-4.3053,-4.1919,-4.0253,-3.8637,-3.707,-3.3983,-3.1897,-3.063,-2.8804,-2.7526,-2.6648,-2.5172,-2.4341,-2.4098,-2.2723,-2.1961,-2.178,-2.104,-2.0634,-2.0625,-2.032,-2.0196,-2.0216,-2.0196,-2.0172,-2.0152,-1.9385,-1.8868,-1.8663,-1.7602,-1.7166,-1.7407,-1.6897,-1.6811,-1.7233,-1.7356,-1.7535,-1.7773,-1.8777,-1.9141,-1.877,-1.9144,-1.9232,-1.903,-1.9975,-2.0751,-2.1271,-2.2564,-2.3926,-2.5261,-2.5964,-2.6601,-2.7263,-2.8961,-3.0275,-3.0955,-3.1183,-3.1683,-3.2619,-3.2644,-3.2955,-3.3877,-3.3622,-3.3383,-3.3453,-3.2935,-3.2537,-3.2481,-3.2157,-3.2043,-3.2301,-3.2215,-3.2009,-3.1757,-3.1713,-3.1754,-3.1851,-3.1243,-3.0742,-3.0694,-2.9889,-2.9233,-2.9409,-2.8042,-2.6995,-2.6723,-2.6066,-2.5315,-2.4748,-2.382,-2.2931,-2.2395,-2.1766,-2.1041,-2.027,-1.9307,-1.8491,-1.7999,-1.7042,-1.6165,-1.5861,-1.5771,-1.5761,-4.4573,-4.501,-4.4499,-4.4672,-4.5199,-4.4698,-4.4938,-4.5552,-4.4951,-4.4596,-4.4396,-4.3731,-4.2852,-4.1894,-3.9976,-3.8388,-3.697,-3.3911,-3.2016,-3.0945,-2.923,-2.8019,-2.7194,-2.575,-2.4914,-2.4598,-2.3153,-2.2347,-2.2076,-2.124,-2.0828,-2.0847,-2.0502,-2.0391,-2.0586,-2.0678,-2.0474,-1.9999,-1.918,-1.8796,-1.8738,-1.7893,-1.7545,-1.7716,-1.733,-1.7256,-1.7619,-1.7519,-1.7622,-1.7996,-1.8874,-1.9347,-1.9299,-1.9734,-1.9976,-1.9947,-2.0542,-2.1118,-2.1641,-2.2857,-2.415,-2.5412,-2.706,-2.8168,-2.8651,-2.9489,-3.0438,-3.1429,-3.1685,-3.2117,-3.2999,-3.2981,-3.3219,-3.398,-3.3688,-3.3376,-3.3232,-3.2723,-3.24,-3.2351,-3.1937,-3.1831,-3.243,-3.2215,-3.1981,-3.1805,-3.1673,-3.1524,-3.1369,-3.0922,-3.0534,-3.047,-2.9849,-2.9319,-2.9253,-2.8329,-2.7227,-2.6821,-2.6033,-2.5254,-2.4649,-2.3642,-2.2742,-2.2139,-2.1574,-2.0859,-2.0144,-1.9281,-1.8526,-1.7965,-1.7134,-1.634,-1.5983,-1.577,-1.5741,-4.5114,-4.5408,-4.506,-4.5317,-4.5948,-4.5231,-4.5338,-4.5917,-4.5313,-4.4785,-4.4362,-4.3515,-4.2697,-4.1741,-3.9598,-3.794,-3.6602,-3.3863,-3.2112,-3.1167,-2.9678,-2.8513,-2.7694,-2.6397,-2.5488,-2.4945,-2.3599,-2.2713,-2.2159,-2.1381,-2.0942,-2.0888,-2.0564,-2.0547,-2.0874,-2.1046,-2.0679,-1.9833,-1.91,-1.8778,-1.8795,-1.8198,-1.792,-1.8144,-1.7909,-1.7885,-1.8112,-1.7863,-1.7908,-1.8291,-1.897,-1.9453,-1.9653,-2.0241,-2.0653,-2.0782,-2.0913,-2.1329,-2.2137,-2.3018,-2.4131,-2.5628,-2.8044,-2.9575,-2.9744,-2.9992,-3.0615,-3.1882,-3.2145,-3.2514,-3.3217,-3.3269,-3.3423,-3.3802,-3.3611,-3.3343,-3.3111,-3.2791,-3.2531,-3.2394,-3.1865,-3.1712,-3.2259,-3.2031,-3.1769,-3.1677,-3.1522,-3.1336,-3.0993,-3.0779,-3.0585,-3.0354,-2.9919,-2.9598,-2.9086,-2.8249,-2.7446,-2.6784,-2.5826,-2.4965,-2.4327,-2.3349,-2.2533,-2.2032,-2.1316,-2.0696,-2.0149,-1.9266,-1.8517,-1.8079,-1.7327,-1.6602,-1.6245,-1.5945,-1.5897,-4.579,-4.6827,-4.5582,-4.5615,-4.6415,-4.5665,-4.5312,-4.5248,-4.5145,-4.5042,-4.4922,-4.4113,-4.3179,-4.2008,-4.0083,-3.8114,-3.6079,-3.3859,-3.2066,-3.0691,-2.9801,-2.9024,-2.8258,-2.7019,-2.6235,-2.5677,-2.4351,-2.3232,-2.2457,-2.1964,-2.1455,-2.0949,-2.084,-2.0833,-2.0812,-2.0846,-2.0508,-1.9823,-1.956,-1.9147,-1.8602,-1.8434,-1.8482,-1.8697,-1.8585,-1.8659,-1.8934,-1.8932,-1.8995,-1.9074,-1.9958,-2.0273,-1.9919,-2.047,-2.0807,-2.0831,-2.1394,-2.2247,-2.3292,-2.4157,-2.5387,-2.7,-2.8605,-2.9438,-2.9259,-3.0455,-3.1371,-3.1603,-3.2228,-3.2788,-3.3245,-3.3384,-3.3613,-3.3981,-3.3843,-3.3513,-3.3154,-3.3025,-3.281,-3.2438,-3.1908,-3.1455,-3.1528,-3.1497,-3.1294,-3.088,-3.1097,-3.1206,-3.0604,-3.0712,-3.077,-3.0276,-2.9797,-2.9394,-2.8925,-2.7902,-2.711,-2.6721,-2.55,-2.456,-2.4335,-2.325,-2.2309,-2.1927,-2.1265,-2.0603,-2.0059,-1.9037,-1.8415,-1.8121,-1.7575,-1.7087,-1.6877,-1.6583,-1.6292,-4.6407,-4.6697,-4.6465,-4.6302,-4.6152,-4.58,-4.5845,-4.6029,-4.5704,-4.5229,-4.4617,-4.3966,-4.2943,-4.1587,-3.9746,-3.801,-3.6374,-3.3979,-3.2441,-3.1576,-3.0307,-2.9462,-2.8912,-2.7934,-2.7097,-2.6438,-2.5148,-2.3935,-2.2792,-2.2408,-2.1787,-2.0957,-2.1112,-2.1136,-2.097,-2.0966,-2.0571,-1.9824,-1.9661,-1.9263,-1.8671,-1.8785,-1.8885,-1.8965,-1.8975,-1.9169,-1.9512,-1.9434,-1.9385,-1.9407,-2.0226,-2.058,-2.0354,-2.0979,-2.1443,-2.168,-2.2474,-2.3205,-2.3796,-2.5102,-2.6433,-2.7696,-2.8946,-2.9578,-2.9316,-3.0547,-3.1539,-3.2092,-3.2417,-3.2821,-3.3542,-3.3646,-3.3878,-3.422,-3.4063,-3.3725,-3.3368,-3.3154,-3.2839,-3.2215,-3.1635,-3.1331,-3.1514,-3.1141,-3.0877,-3.0686,-3.0807,-3.0603,-3.0181,-3.0094,-3.0145,-3.003,-2.9326,-2.8712,-2.8473,-2.7676,-2.6934,-2.6494,-2.5676,-2.485,-2.4357,-2.3385,-2.2718,-2.2025,-2.13,-2.0731,-2.0218,-1.9431,-1.8788,-1.8354,-1.7884,-1.7463,-1.7164,-1.6526,-1.5892,-4.6817,-4.6719,-4.7046,-4.6759,-4.6169,-4.6251,-4.6612,-4.6882,-4.641,-4.5527,-4.4386,-4.3753,-4.2624,-4.0963,-3.9212,-3.7686,-3.6253,-3.4171,-3.2864,-3.2207,-3.0905,-3.0125,-2.9669,-2.8744,-2.7919,-2.7061,-2.5973,-2.4616,-2.3125,-2.2757,-2.211,-2.1267,-2.1397,-2.1419,-2.1208,-2.1151,-2.0751,-1.9865,-1.9665,-1.937,-1.8906,-1.9098,-1.9231,-1.9342,-1.948,-1.9746,-2.0149,-1.9856,-1.9786,-1.9968,-2.0418,-2.0796,-2.0974,-2.1494,-2.2036,-2.2566,-2.3396,-2.4047,-2.457,-2.6046,-2.7328,-2.8067,-2.9151,-2.9715,-2.9671,-3.0494,-3.1432,-3.215,-3.2201,-3.2578,-3.3383,-3.3685,-3.3919,-3.4319,-3.4272,-3.3979,-3.3598,-3.3368,-3.2953,-3.2164,-3.1556,-3.1263,-3.1266,-3.0819,-3.0463,-3.0525,-3.0341,-3.0114,-2.977,-2.9339,-2.9351,-2.9464,-2.8808,-2.8069,-2.7896,-2.7276,-2.6646,-2.6079,-2.5463,-2.473,-2.4016,-2.3505,-2.2846,-2.1925,-2.1246,-2.0701,-2.0289,-1.9539,-1.8935,-1.851,-1.8038,-1.7569,-1.7194,-1.6272,-1.5459,-4.6874,-4.742,-4.6797,-4.6696,-4.7178,-4.7398,-4.7415,-4.7217,-4.6921,-4.5978,-4.4624,-4.385,-4.2334,-4.0441,-3.8836,-3.7163,-3.5431,-3.4408,-3.3218,-3.1923,-3.1643,-3.1156,-3.0464,-2.9464,-2.8521,-2.7634,-2.665,-2.5105,-2.3286,-2.3101,-2.2647,-2.1824,-2.178,-2.1624,-2.1413,-2.135,-2.0839,-1.9824,-1.9906,-1.9643,-1.9139,-1.9417,-1.9693,-1.9998,-2.0355,-2.0709,-2.0955,-2.0568,-2.0546,-2.0983,-2.0814,-2.1041,-2.1688,-2.2031,-2.246,-2.3058,-2.3673,-2.4575,-2.5921,-2.724,-2.8015,-2.8144,-2.9139,-2.9762,-2.9751,-3.037,-3.0846,-3.1156,-3.1408,-3.198,-3.2725,-3.31,-3.3554,-3.4121,-3.4184,-3.4272,-3.3995,-3.381,-3.3352,-3.265,-3.1836,-3.1129,-3.0638,-3.0503,-3.0382,-2.9982,-3.0101,-2.9883,-2.9043,-2.8773,-2.8815,-2.8888,-2.8247,-2.7668,-2.7364,-2.6751,-2.6133,-2.545,-2.4588,-2.4025,-2.3611,-2.2979,-2.2094,-2.1765,-2.1019,-2.0519,-1.9841,-1.9068,-1.8446,-1.8405,-1.8018,-1.7533,-1.711,-1.6299,-1.5629,-4.732,-4.7359,-4.7542,-4.7885,-4.8294,-4.8095,-4.7907,-4.7785,-4.716,-4.5838,-4.4208,-4.3155,-4.1766,-4.0132,-3.8853,-3.748,-3.6078,-3.4885,-3.3808,-3.2807,-3.2221,-3.1727,-3.1205,-3.0043,-2.9206,-2.8611,-2.718,-2.5515,-2.387,-2.2862,-2.2265,-2.2101,-2.1774,-2.1434,-2.1174,-2.0772,-2.0275,-1.9712,-1.9624,-1.954,-1.9438,-1.9528,-1.9726,-1.9987,-2.0335,-2.0625,-2.0882,-2.0882,-2.0882,-2.0937,-2.1219,-2.1557,-2.1894,-2.2336,-2.2824,-2.3394,-2.4609,-2.5877,-2.7054,-2.7952,-2.8389,-2.8389,-2.9171,-2.9597,-2.9486,-3.0023,-3.0356,-3.0369,-3.092,-3.1616,-3.2237,-3.2507,-3.2739,-3.2987,-3.3053,-3.3142,-3.3379,-3.3296,-3.2925,-3.225,-3.193,-3.1381,-3.0489,-3.0262,-3.0048,-2.9593,-2.963,-2.9437,-2.8949,-2.8599,-2.8437,-2.8525,-2.7971,-2.7396,-2.7087,-2.6417,-2.5728,-2.5186,-2.4632,-2.4124,-2.3715,-2.322,-2.2524,-2.178,-2.1027,-2.0373,-1.9783,-1.9172,-1.8535,-1.8338,-1.7984,-1.7526,-1.7128,-1.6201,-1.5526,-4.7417,-4.7471,-4.8376,-4.8764,-4.8846,-4.8559,-4.8272,-4.7945,-4.7013,-4.5475,-4.357,-4.2438,-4.1055,-3.9564,-3.8595,-3.7599,-3.6572,-3.5414,-3.457,-3.3893,-3.2991,-3.244,-3.1999,-3.0643,-2.9816,-2.9164,-2.7542,-2.5806,-2.415,-2.2692,-2.2075,-2.219,-2.1797,-2.1331,-2.0884,-2.0363,-2.0016,-1.9691,-1.9615,-1.9648,-1.9714,-1.9791,-1.9944,-2.0042,-2.0367,-2.0625,-2.0818,-2.101,-2.1042,-2.0873,-2.1511,-2.193,-2.2134,-2.2695,-2.3395,-2.4273,-2.5536,-2.6822,-2.794,-2.8503,-2.8773,-2.8824,-2.9309,-2.9604,-2.9567,-2.991,-3.0062,-2.9997,-3.0482,-3.1149,-3.1661,-3.1763,-3.1855,-3.2049,-3.2114,-3.228,-3.2639,-3.2649,-3.2322,-3.169,-3.1523,-3.1182,-3.0125,-2.9923,-2.9809,-2.8946,-2.9108,-2.9076,-2.8863,-2.8404,-2.8222,-2.8185,-2.7587,-2.7074,-2.6763,-2.624,-2.5557,-2.4963,-2.4558,-2.3992,-2.375,-2.3199,-2.2556,-2.1478,-2.0909,-2.0415,-1.9889,-1.9307,-1.8648,-1.8178,-1.7826,-1.7527,-1.7234,-1.6185,-1.5568,-4.6929,-4.8043,-4.9022,-4.8911,-4.8273,-4.8789,-4.8528,-4.766,-4.6582,-4.4889,-4.3074,-4.2092,-4.0552,-3.8584,-3.7986,-3.7222,-3.6455,-3.6048,-3.5417,-3.4708,-3.4078,-3.3633,-3.3024,-3.1316,-3.0138,-2.9408,-2.7777,-2.5961,-2.4056,-2.2902,-2.2243,-2.2034,-2.1933,-2.1517,-2.0762,-2.0556,-2.0353,-1.9987,-2.0172,-2.0205,-1.9987,-2.0345,-2.0464,-2.0432,-2.069,-2.0946,-2.1106,-2.101,-2.0978,-2.1169,-2.1534,-2.2013,-2.2616,-2.3121,-2.4237,-2.5864,-2.6442,-2.7204,-2.8333,-2.8831,-2.9112,-2.9225,-2.9656,-3.005,-2.9999,-3.0203,-3.0292,-3.0126,-3.0215,-3.0495,-3.0927,-3.099,-3.1247,-3.1855,-3.1997,-3.2023,-3.214,-3.2005,-3.1589,-3.1102,-3.0806,-3.0312,-2.9227,-2.9644,-2.92,-2.8522,-2.8892,-2.9186,-2.8023,-2.8004,-2.8121,-2.7802,-2.7236,-2.6616,-2.6231,-2.587,-2.5505,-2.4931,-2.415,-2.3424,-2.2962,-2.251,-2.1833,-2.1369,-2.1143,-2.0759,-2.0096,-1.9397,-1.8693,-1.8105,-1.7629,-1.7353,-1.7056,-1.6329,-1.571,-4.7424,-4.7885,-4.8444,-4.8516,-4.8273,-4.8842,-4.8578,-4.7592,-4.6777,-4.5298,-4.3465,-4.2339,-4.0803,-3.8877,-3.8372,-3.7552,-3.6619,-3.6193,-3.5625,-3.4965,-3.4325,-3.3672,-3.2842,-3.1113,-3.0018,-2.9286,-2.7498,-2.5739,-2.4197,-2.32,-2.265,-2.2338,-2.1939,-2.1424,-2.0858,-2.0433,-2.0293,-2.0367,-2.0474,-2.0529,-2.0539,-2.0571,-2.0635,-2.0722,-2.07,-2.0722,-2.069,-2.0796,-2.105,-2.128,-2.1867,-2.2434,-2.3109,-2.3862,-2.4637,-2.5457,-2.6117,-2.6918,-2.7791,-2.8338,-2.8773,-2.9159,-2.9615,-2.9947,-3.0062,-3.0368,-3.0622,-3.066,-3.0546,-3.0637,-3.0599,-3.0431,-3.0351,-3.0738,-3.0828,-3.1124,-3.1551,-3.1654,-3.1458,-3.102,-3.0341,-2.9593,-2.9413,-2.921,-2.8726,-2.8113,-2.8216,-2.8064,-2.7676,-2.7544,-2.757,-2.7498,-2.7202,-2.6662,-2.584,-2.5475,-2.5065,-2.454,-2.3942,-2.3514,-2.3076,-2.2296,-2.1589,-2.1538,-2.1405,-2.0968,-2.024,-1.9255,-1.8563,-1.7946,-1.7464,-1.718,-1.6778,-1.6063,-1.5578,-4.7736,-4.7502,-4.8246,-4.838,-4.8133,-4.8689,-4.8228,-4.7186,-4.6417,-4.4967,-4.3067,-4.191,-4.0494,-3.8908,-3.8303,-3.7577,-3.6599,-3.6304,-3.5974,-3.5435,-3.4735,-3.4048,-3.32,-3.1422,-3.0204,-2.9318,-2.7043,-2.528,-2.4391,-2.3486,-2.2956,-2.2572,-2.1998,-2.1463,-2.0975,-2.0565,-2.0506,-2.0732,-2.0892,-2.0987,-2.1051,-2.101,-2.0924,-2.1001,-2.0921,-2.076,-2.0541,-2.0912,-2.1212,-2.1464,-2.2241,-2.304,-2.372,-2.4411,-2.4956,-2.5433,-2.6178,-2.6968,-2.7667,-2.8161,-2.8543,-2.8927,-2.9439,-2.9847,-2.9973,-3.0568,-3.0973,-3.1048,-3.0999,-3.0849,-3.0584,-3.0241,-3.0049,-3.0088,-3.0101,-3.0292,-3.0855,-3.0714,-3.0394,-2.9999,-2.9328,-2.8983,-2.9046,-2.8805,-2.8415,-2.7989,-2.7773,-2.7618,-2.7406,-2.712,-2.7001,-2.7108,-2.683,-2.64,-2.5792,-2.5314,-2.4998,-2.4532,-2.3762,-2.3387,-2.3069,-2.2246,-2.1764,-2.1705,-2.1448,-2.0977,-2.0213,-1.9223,-1.8452,-1.7824,-1.7479,-1.7253,-1.6601,-1.5815,-1.5462,-4.7729,-4.6915,-4.8611,-4.8653,-4.7838,-4.819,-4.7659,-4.6279,-4.5316,-4.3812,-4.189,-4.081,-3.9714,-3.8254,-3.7924,-3.718,-3.6642,-3.662,-3.6416,-3.5961,-3.5327,-3.4717,-3.4135,-3.2205,-3.0652,-2.9579,-2.65,-2.4895,-2.4625,-2.3709,-2.304,-2.2571,-2.2169,-2.1734,-2.1138,-2.101,-2.1019,-2.121,-2.1494,-2.1588,-2.1463,-2.1517,-2.1478,-2.1279,-2.1411,-2.126,-2.078,-2.137,-2.1642,-2.1654,-2.2685,-2.3685,-2.4315,-2.467,-2.517,-2.5937,-2.6748,-2.7432,-2.806,-2.8299,-2.8374,-2.8698,-2.9325,-2.9736,-2.9991,-3.0813,-3.1373,-3.1235,-3.1161,-3.1011,-3.0558,-3.0368,-3.0254,-3.0164,-3.0101,-3.0075,-2.9883,-2.9251,-2.8525,-2.8225,-2.811,-2.7943,-2.7916,-2.8139,-2.8178,-2.7683,-2.7537,-2.7453,-2.7125,-2.6761,-2.6624,-2.664,-2.644,-2.6094,-2.5627,-2.5216,-2.4938,-2.4555,-2.369,-2.3122,-2.3061,-2.2483,-2.211,-2.2011,-2.1802,-2.1342,-2.0676,-1.9671,-1.8864,-1.823,-1.7821,-1.7243,-1.647,-1.5814,-1.5463,-4.7513,-4.7343,-4.7944,-4.8014,-4.7566,-4.7587,-4.6805,-4.5468,-4.4639,-4.3351,-4.1801,-4.0943,-3.9907,-3.8932,-3.8661,-3.8135,-3.741,-3.6922,-3.6212,-3.5388,-3.4956,-3.4161,-3.3106,-3.2087,-3.0482,-2.8386,-2.5889,-2.4695,-2.4619,-2.3833,-2.3146,-2.2733,-2.2619,-2.2209,-2.158,-2.1628,-2.1745,-2.1706,-2.1925,-2.1987,-2.1925,-2.1769,-2.1635,-2.1556,-2.1511,-2.1429,-2.1416,-2.1879,-2.2321,-2.2581,-2.3119,-2.3743,-2.4374,-2.4693,-2.5028,-2.5505,-2.5888,-2.6432,-2.7078,-2.7299,-2.7681,-2.8312,-2.89,-2.9428,-2.9896,-3.058,-3.1037,-3.1048,-3.0999,-3.0773,-3.066,-3.0444,-3.0279,-3.0126,-3.0101,-3.0088,-2.9961,-2.9403,-2.8923,-2.8428,-2.7915,-2.7647,-2.7554,-2.7644,-2.7152,-2.7177,-2.695,-2.668,-2.6592,-2.6415,-2.6244,-2.6249,-2.5988,-2.5911,-2.5744,-2.5354,-2.4911,-2.45,-2.3756,-2.3204,-2.3075,-2.2925,-2.256,-2.2152,-2.1939,-2.1537,-2.0872,-2.0133,-1.9233,-1.8449,-1.7893,-1.7205,-1.6398,-1.5945,-1.5637,-4.7718,-4.7705,-4.774,-4.7694,-4.7461,-4.6797,-4.5827,-4.4769,-4.3891,-4.2675,-4.1416,-4.0638,-3.9787,-3.8919,-3.8794,-3.8136,-3.7182,-3.6739,-3.5913,-3.4821,-3.4478,-3.3798,-3.2679,-3.1458,-3.005,-2.8085,-2.6023,-2.5066,-2.505,-2.4244,-2.3603,-2.3232,-2.3035,-2.2736,-2.2235,-2.2249,-2.2242,-2.2142,-2.2204,-2.2228,-2.2073,-2.1824,-2.1667,-2.1611,-2.1489,-2.1541,-2.1708,-2.2094,-2.2638,-2.3233,-2.3603,-2.3953,-2.4247,-2.4601,-2.5004,-2.5312,-2.5789,-2.6271,-2.6636,-2.7065,-2.7336,-2.8052,-2.88,-2.9389,-2.9972,-3.0554,-3.1075,-3.1149,-3.1048,-3.0782,-3.0525,-3.0286,-3.0021,-2.9566,-2.9744,-2.9706,-2.9437,-2.8893,-2.8301,-2.7754,-2.7211,-2.7163,-2.7242,-2.6782,-2.6407,-2.6797,-2.6512,-2.6126,-2.6139,-2.6029,-2.5984,-2.5963,-2.5967,-2.5937,-2.5987,-2.5532,-2.4932,-2.4431,-2.3875,-2.3484,-2.3275,-2.3189,-2.2913,-2.2322,-2.1975,-2.1406,-2.0775,-2.0198,-1.9456,-1.8743,-1.8135,-1.7651,-1.7065,-1.6285,-1.5919,-4.8172,-4.7768,-4.785,-4.7734,-4.7295,-4.5808,-4.4844,-4.4198,-4.2957,-4.173,-4.0621,-3.9996,-3.9226,-3.841,-3.833,-3.7524,-3.6199,-3.6122,-3.5641,-3.4633,-3.4074,-3.3569,-3.2921,-3.0827,-2.9402,-2.8472,-2.6696,-2.575,-2.5468,-2.4671,-2.424,-2.376,-2.3341,-2.312,-2.2975,-2.2793,-2.2629,-2.2542,-2.2487,-2.2363,-2.202,-2.1863,-2.1627,-2.1446,-2.1521,-2.1597,-2.1664,-2.2105,-2.2649,-2.342,-2.3953,-2.407,-2.4003,-2.4543,-2.5052,-2.5288,-2.6164,-2.6489,-2.6782,-2.7223,-2.7704,-2.794,-2.8946,-2.9807,-2.9939,-3.0623,-3.114,-3.1177,-3.1061,-3.0729,-3.0127,-2.9839,-2.9398,-2.8805,-2.9091,-2.8901,-2.784,-2.7688,-2.7484,-2.6806,-2.6324,-2.6411,-2.7126,-2.6478,-2.6479,-2.685,-2.6472,-2.6083,-2.5981,-2.5908,-2.5772,-2.5825,-2.5933,-2.5923,-2.5964,-2.5254,-2.4698,-2.434,-2.3909,-2.3663,-2.3432,-2.3296,-2.299,-2.2422,-2.1854,-2.1277,-2.0709,-2.0159,-1.973,-1.9238,-1.8749,-1.8352,-1.7779,-1.7061,-1.6617,-4.8066,-4.7822,-4.7701,-4.7424,-4.6821,-4.5277,-4.4185,-4.3397,-4.201,-4.0824,-3.9929,-3.9347,-3.8916,-3.8459,-3.8212,-3.7705,-3.6727,-3.5742,-3.5125,-3.4489,-3.3291,-3.2655,-3.1989,-3.0325,-2.917,-2.8594,-2.6837,-2.5646,-2.5537,-2.4575,-2.3903,-2.3709,-2.3748,-2.359,-2.333,-2.3356,-2.3285,-2.315,-2.3193,-2.2916,-2.248,-2.2335,-2.1923,-2.1334,-2.1413,-2.1441,-2.162,-2.2571,-2.3119,-2.3256,-2.3499,-2.3894,-2.4211,-2.4625,-2.5016,-2.5348,-2.5798,-2.6202,-2.6466,-2.7041,-2.7598,-2.8049,-2.8845,-2.9527,-2.9998,-3.0143,-3.0262,-3.0231,-2.998,-2.9666,-2.933,-2.9171,-2.8815,-2.8418,-2.8569,-2.8595,-2.8195,-2.804,-2.761,-2.6808,-2.6439,-2.6537,-2.6608,-2.6232,-2.6008,-2.6583,-2.6395,-2.5883,-2.5855,-2.5966,-2.5962,-2.598,-2.605,-2.5975,-2.572,-2.4979,-2.4464,-2.4224,-2.3935,-2.3748,-2.3503,-2.3319,-2.2827,-2.2223,-2.1763,-2.1234,-2.0678,-2.0124,-1.9815,-1.9628,-1.9273,-1.8842,-1.8601,-1.8055,-1.7787,-4.8482,-4.8281,-4.7863,-4.7377,-4.6742,-4.5068,-4.376,-4.2721,-4.163,-4.0443,-3.955,-3.9087,-3.8667,-3.8202,-3.7794,-3.7052,-3.6095,-3.5163,-3.4559,-3.3953,-3.3024,-3.2243,-3.1406,-3.0113,-2.9353,-2.875,-2.7197,-2.6407,-2.6069,-2.5205,-2.4653,-2.4378,-2.4546,-2.4486,-2.4103,-2.3987,-2.3877,-2.3642,-2.3343,-2.2819,-2.24,-2.2389,-2.1911,-2.1344,-2.1325,-2.1452,-2.1383,-2.2057,-2.2697,-2.3096,-2.3478,-2.3827,-2.413,-2.459,-2.5002,-2.5417,-2.5886,-2.6248,-2.6427,-2.7002,-2.7536,-2.8022,-2.8722,-2.934,-2.9718,-2.9819,-2.9781,-2.98,-2.9547,-2.932,-2.9022,-2.8769,-2.8351,-2.7928,-2.7859,-2.7876,-2.7706,-2.7594,-2.7203,-2.6673,-2.6422,-2.6517,-2.6711,-2.5912,-2.5934,-2.6339,-2.6272,-2.5966,-2.5853,-2.6042,-2.6144,-2.6098,-2.5962,-2.5824,-2.556,-2.4893,-2.4528,-2.4252,-2.4015,-2.3799,-2.3685,-2.3436,-2.2909,-2.2366,-2.1763,-2.1219,-2.0703,-2.0312,-2.0154,-1.9936,-1.9657,-1.9487,-1.9304,-1.9097,-1.8824,-4.9112,-4.8743,-4.7998,-4.7373,-4.6555,-4.4852,-4.3307,-4.2284,-4.1402,-4.0393,-3.937,-3.8934,-3.8362,-3.7599,-3.7025,-3.6008,-3.4643,-3.4536,-3.3874,-3.3235,-3.2609,-3.2046,-3.1135,-3.0411,-2.9531,-2.8659,-2.7842,-2.7143,-2.6591,-2.6257,-2.5803,-2.5266,-2.5506,-2.5401,-2.481,-2.455,-2.4361,-2.3915,-2.3201,-2.2628,-2.2345,-2.2268,-2.1916,-2.1329,-2.1245,-2.1348,-2.1187,-2.1394,-2.193,-2.315,-2.3677,-2.3769,-2.3816,-2.4475,-2.504,-2.5543,-2.6025,-2.6396,-2.6565,-2.7097,-2.7576,-2.7844,-2.8573,-2.9213,-2.9353,-2.9478,-2.9521,-2.9521,-2.9581,-2.919,-2.8779,-2.8325,-2.7835,-2.7367,-2.7006,-2.6749,-2.6632,-2.6754,-2.6665,-2.6105,-2.6276,-2.655,-2.6432,-2.6063,-2.5603,-2.6374,-2.6274,-2.6157,-2.5984,-2.603,-2.6067,-2.6061,-2.5837,-2.558,-2.5242,-2.4828,-2.462,-2.4372,-2.41,-2.3931,-2.3956,-2.3662,-2.3108,-2.254,-2.2016,-2.1432,-2.0905,-2.0605,-2.0433,-2.0344,-2.0175,-2.0203,-2.02,-1.9966,-1.9735,-4.8843,-4.8272,-4.7207,-4.6235,-4.5191,-4.3629,-4.2713,-4.2149,-4.0861,-3.9798,-3.8956,-3.8455,-3.7913,-3.7236,-3.6262,-3.5503,-3.4767,-3.3868,-3.2905,-3.2187,-3.2025,-3.1461,-3.0754,-3.0251,-2.9416,-2.8311,-2.7488,-2.6947,-2.645,-2.6016,-2.5546,-2.5662,-2.5767,-2.5475,-2.4883,-2.4617,-2.4233,-2.386,-2.3392,-2.3015,-2.2731,-2.2465,-2.211,-2.1524,-2.1157,-2.1157,-2.1426,-2.1668,-2.2351,-2.3225,-2.342,-2.3498,-2.4048,-2.4717,-2.5202,-2.5498,-2.5921,-2.6258,-2.6392,-2.6917,-2.7374,-2.7516,-2.8084,-2.8677,-2.8831,-2.8752,-2.8836,-2.8834,-2.8618,-2.8311,-2.783,-2.7552,-2.7195,-2.6764,-2.6325,-2.5985,-2.5864,-2.6363,-2.6489,-2.6118,-2.6104,-2.6165,-2.6138,-2.5964,-2.5911,-2.6327,-2.6357,-2.629,-2.6193,-2.6124,-2.5952,-2.5878,-2.5442,-2.5147,-2.4835,-2.4559,-2.4467,-2.4351,-2.4195,-2.4109,-2.4132,-2.4009,-2.3513,-2.289,-2.2263,-2.1771,-2.1463,-2.0853,-2.0663,-2.0655,-2.0676,-2.0645,-2.0615,-2.0558,-2.0543,-4.8928,-4.8207,-4.6903,-4.5892,-4.4989,-4.3592,-4.2345,-4.138,-4.0467,-3.9341,-3.8398,-3.786,-3.7203,-3.6285,-3.5422,-3.466,-3.3634,-3.2654,-3.1847,-3.135,-3.1171,-3.0749,-3.0175,-2.982,-2.9125,-2.802,-2.72,-2.6762,-2.6565,-2.6215,-2.597,-2.5808,-2.6193,-2.5941,-2.5055,-2.4708,-2.445,-2.4047,-2.3203,-2.2687,-2.2477,-2.24,-2.218,-2.1694,-2.1144,-2.1018,-2.1459,-2.1504,-2.1999,-2.2558,-2.2798,-2.3344,-2.4305,-2.4939,-2.5303,-2.5652,-2.6025,-2.6327,-2.6521,-2.6751,-2.711,-2.7274,-2.7729,-2.8075,-2.8265,-2.8218,-2.8126,-2.813,-2.798,-2.7627,-2.717,-2.7116,-2.687,-2.6536,-2.6061,-2.5824,-2.5882,-2.6215,-2.6249,-2.5984,-2.6185,-2.6301,-2.6246,-2.5992,-2.6184,-2.6548,-2.6171,-2.6139,-2.6364,-2.6203,-2.5741,-2.549,-2.5004,-2.4634,-2.4379,-2.423,-2.4237,-2.4219,-2.42,-2.4234,-2.4349,-2.4172,-2.3942,-2.3359,-2.2836,-2.2648,-2.2276,-2.1631,-2.1067,-2.115,-2.1155,-2.1018,-2.091,-2.0831,-2.0879,-4.8959,-4.8188,-4.671,-4.5636,-4.4828,-4.3455,-4.1851,-4.0348,-3.9723,-3.8653,-3.7605,-3.7049,-3.5977,-3.5036,-3.45,-3.331,-3.2137,-3.1233,-3.082,-3.0743,-3.0321,-2.98,-2.9282,-2.8845,-2.838,-2.7779,-2.7091,-2.6808,-2.6689,-2.6733,-2.6196,-2.5973,-2.6679,-2.629,-2.5339,-2.4854,-2.4396,-2.3914,-2.274,-2.2052,-2.1933,-2.1999,-2.1809,-2.1544,-2.1388,-2.1321,-2.1582,-2.1582,-2.1661,-2.2004,-2.2203,-2.3263,-2.4469,-2.503,-2.5276,-2.5791,-2.6154,-2.6361,-2.6499,-2.6662,-2.6867,-2.7222,-2.7374,-2.7564,-2.7729,-2.7691,-2.7583,-2.7542,-2.74,-2.7283,-2.6973,-2.6916,-2.6802,-2.6524,-2.6083,-2.6009,-2.6127,-2.6127,-2.5908,-2.5772,-2.6134,-2.6411,-2.6321,-2.6171,-2.6441,-2.6567,-2.6199,-2.5979,-2.6235,-2.6167,-2.5643,-2.526,-2.4782,-2.4455,-2.4187,-2.4122,-2.4097,-2.4296,-2.4317,-2.44,-2.4544,-2.4469,-2.4319,-2.403,-2.3599,-2.3381,-2.292,-2.2181,-2.1802,-2.1757,-2.1479,-2.1134,-2.1087,-2.1119,-2.1151,-4.8251,-4.7374,-4.6035,-4.4398,-4.2705,-4.1738,-4.0632,-3.9322,-3.8131,-3.7194,-3.6506,-3.5453,-3.4403,-3.3446,-3.2969,-3.2332,-3.1405,-3.0559,-3.0156,-3.006,-2.9486,-2.8739,-2.8269,-2.7748,-2.7041,-2.6615,-2.6514,-2.6432,-2.5906,-2.5792,-2.5996,-2.6265,-2.6693,-2.6179,-2.5141,-2.4636,-2.4097,-2.3311,-2.2368,-2.2005,-2.1961,-2.1698,-2.1509,-2.1449,-2.1587,-2.192,-2.2106,-2.2055,-2.2346,-2.3404,-2.3115,-2.3513,-2.4179,-2.4434,-2.4829,-2.5446,-2.5812,-2.6099,-2.6467,-2.6629,-2.6816,-2.7011,-2.7095,-2.7044,-2.7117,-2.7078,-2.7023,-2.6945,-2.6966,-2.6866,-2.6602,-2.6574,-2.6384,-2.6106,-2.5883,-2.5744,-2.5799,-2.5826,-2.5825,-2.5655,-2.6068,-2.6458,-2.6392,-2.6239,-2.6229,-2.6184,-2.5821,-2.5741,-2.5962,-2.5742,-2.5278,-2.4928,-2.4626,-2.4349,-2.4091,-2.4073,-2.4118,-2.4492,-2.4585,-2.4585,-2.472,-2.4849,-2.4709,-2.4418,-2.4186,-2.3916,-2.3372,-2.2762,-2.2371,-2.2215,-2.1727,-2.1215,-2.1214,-2.1246,-2.123,-4.7375,-4.613,-4.46,-4.3199,-4.1881,-4.0666,-3.9329,-3.7962,-3.7143,-3.6062,-3.5008,-3.4203,-3.3315,-3.2355,-3.1928,-3.1299,-3.0287,-2.9506,-2.9141,-2.9,-2.8425,-2.7967,-2.7586,-2.7122,-2.6682,-2.6301,-2.6283,-2.5974,-2.5282,-2.5406,-2.5506,-2.5575,-2.6003,-2.5678,-2.4804,-2.4514,-2.4122,-2.3239,-2.255,-2.2081,-2.2166,-2.1684,-2.1518,-2.1697,-2.2052,-2.2495,-2.2718,-2.2518,-2.2625,-2.3108,-2.3004,-2.3087,-2.3387,-2.3688,-2.402,-2.4864,-2.5296,-2.5698,-2.6114,-2.6249,-2.6416,-2.6775,-2.6808,-2.6785,-2.6701,-2.6616,-2.6508,-2.637,-2.6323,-2.6298,-2.6106,-2.6106,-2.5965,-2.5758,-2.5588,-2.5447,-2.5377,-2.5423,-2.5426,-2.5491,-2.5995,-2.633,-2.6496,-2.6341,-2.6046,-2.5745,-2.5437,-2.5472,-2.5629,-2.5538,-2.5188,-2.4759,-2.4492,-2.4319,-2.4122,-2.4095,-2.4478,-2.4894,-2.4854,-2.4854,-2.5071,-2.5253,-2.5144,-2.4902,-2.4657,-2.443,-2.4131,-2.3615,-2.3131,-2.2595,-2.2021,-2.1583,-2.1421,-2.1356,-2.1388,-4.6448,-4.4837,-4.3156,-4.1953,-4.0891,-3.9688,-3.8082,-3.656,-3.5997,-3.4833,-3.3248,-3.2844,-3.2073,-3.1061,-3.0564,-2.997,-2.8883,-2.8426,-2.8168,-2.7969,-2.7427,-2.711,-2.6866,-2.6725,-2.6161,-2.5323,-2.5157,-2.5091,-2.501,-2.4862,-2.4699,-2.4803,-2.5136,-2.5043,-2.4382,-2.4338,-2.4321,-2.3817,-2.3052,-2.2319,-2.2108,-2.1965,-2.1922,-2.21,-2.257,-2.2994,-2.33,-2.3028,-2.3041,-2.3202,-2.3098,-2.2903,-2.2777,-2.2959,-2.3438,-2.4102,-2.4584,-2.5028,-2.5493,-2.5724,-2.5986,-2.6407,-2.6568,-2.6542,-2.6435,-2.631,-2.6132,-2.5909,-2.5767,-2.5767,-2.5684,-2.557,-2.5473,-2.5369,-2.5242,-2.5153,-2.5069,-2.5027,-2.5061,-2.5329,-2.5824,-2.6055,-2.6136,-2.5669,-2.5255,-2.5641,-2.536,-2.4905,-2.5136,-2.5586,-2.5375,-2.4754,-2.441,-2.4302,-2.4191,-2.4104,-2.4765,-2.5693,-2.5342,-2.5071,-2.5424,-2.5753,-2.5508,-2.5187,-2.513,-2.4901,-2.4697,-2.4415,-2.3883,-2.3233,-2.2443,-2.2001,-2.1954,-2.1725,-2.1595,-4.5614,-4.3756,-4.2377,-4.0549,-3.8611,-3.7987,-3.6807,-3.5097,-3.3999,-3.2937,-3.184,-3.1043,-2.9961,-2.8997,-2.8667,-2.8713,-2.8537,-2.7991,-2.748,-2.7144,-2.6442,-2.574,-2.5033,-2.472,-2.4756,-2.4318,-2.3827,-2.3908,-2.429,-2.4115,-2.3917,-2.3995,-2.4451,-2.4532,-2.3953,-2.4253,-2.4062,-2.3458,-2.2933,-2.2502,-2.2241,-2.2264,-2.2423,-2.2697,-2.3087,-2.3526,-2.3815,-2.363,-2.3723,-2.426,-2.3921,-2.3653,-2.3595,-2.3769,-2.3479,-2.3436,-2.3619,-2.423,-2.498,-2.5301,-2.5556,-2.6028,-2.637,-2.6475,-2.6284,-2.6021,-2.5826,-2.5716,-2.5456,-2.5303,-2.5268,-2.5102,-2.4962,-2.4896,-2.4862,-2.4804,-2.4723,-2.454,-2.4575,-2.4615,-2.4951,-2.5342,-2.5604,-2.496,-2.4485,-2.4955,-2.5228,-2.4882,-2.4733,-2.5269,-2.5484,-2.486,-2.4619,-2.4497,-2.4386,-2.4268,-2.4983,-2.6162,-2.5884,-2.5403,-2.5713,-2.5938,-2.5591,-2.5362,-2.5368,-2.5343,-2.5137,-2.4839,-2.4479,-2.3905,-2.3161,-2.2801,-2.2605,-2.231,-2.2112,-4.351,-4.2102,-4.0592,-3.8859,-3.7091,-3.6228,-3.5082,-3.3828,-3.2694,-3.1562,-3.0475,-2.996,-2.9075,-2.814,-2.7964,-2.7815,-2.7661,-2.7019,-2.6411,-2.605,-2.5382,-2.4765,-2.4469,-2.4357,-2.421,-2.3968,-2.3664,-2.3685,-2.3791,-2.361,-2.3356,-2.3511,-2.3919,-2.4126,-2.3831,-2.4376,-2.4471,-2.4201,-2.3745,-2.3098,-2.272,-2.2765,-2.3017,-2.3109,-2.3603,-2.4024,-2.4284,-2.4342,-2.44,-2.479,-2.4602,-2.4201,-2.3754,-2.3665,-2.3616,-2.2773,-2.2924,-2.3571,-2.4444,-2.4776,-2.5179,-2.5542,-2.5852,-2.5875,-2.5824,-2.5659,-2.5427,-2.5237,-2.494,-2.4782,-2.4829,-2.4672,-2.4524,-2.4442,-2.4345,-2.4253,-2.4183,-2.4076,-2.3997,-2.404,-2.4118,-2.4557,-2.496,-2.4849,-2.4432,-2.4575,-2.514,-2.5295,-2.5106,-2.5232,-2.5243,-2.4964,-2.4843,-2.4783,-2.4641,-2.4567,-2.5149,-2.6006,-2.6167,-2.5862,-2.6025,-2.6058,-2.5773,-2.5561,-2.5502,-2.5457,-2.5462,-2.513,-2.4684,-2.4302,-2.3948,-2.3654,-2.3391,-2.3407,-2.3357,-4.1018,-3.9757,-3.8436,-3.7055,-3.5671,-3.4413,-3.3296,-3.2317,-3.1508,-3.034,-2.9111,-2.8538,-2.7984,-2.7551,-2.7185,-2.6905,-2.6381,-2.5874,-2.5356,-2.4829,-2.4399,-2.4207,-2.412,-2.4239,-2.4284,-2.4462,-2.3991,-2.3793,-2.3607,-2.3434,-2.3315,-2.3207,-2.3794,-2.3943,-2.4199,-2.4566,-2.4838,-2.4791,-2.4472,-2.3886,-2.3363,-2.3465,-2.3603,-2.3741,-2.4007,-2.4345,-2.4693,-2.4778,-2.4778,-2.4969,-2.5158,-2.4725,-2.3924,-2.3884,-2.3595,-2.2916,-2.293,-2.3396,-2.3989,-2.4395,-2.4726,-2.5054,-2.5381,-2.5512,-2.5329,-2.5205,-2.4944,-2.4703,-2.4368,-2.4209,-2.4169,-2.4079,-2.387,-2.3798,-2.3798,-2.3628,-2.3615,-2.3784,-2.3916,-2.4011,-2.4036,-2.3856,-2.4258,-2.4592,-2.4554,-2.4376,-2.4787,-2.5525,-2.5682,-2.5655,-2.5364,-2.5249,-2.5324,-2.5277,-2.5041,-2.5108,-2.565,-2.5946,-2.6115,-2.6195,-2.6314,-2.6306,-2.6147,-2.5947,-2.5726,-2.5597,-2.5513,-2.5204,-2.4922,-2.4865,-2.474,-2.4447,-2.4249,-2.4348,-2.4497,-3.8228,-3.651,-3.605,-3.5125,-3.3996,-3.2644,-3.1537,-3.0632,-3.0004,-2.8999,-2.7682,-2.6763,-2.6155,-2.5914,-2.6147,-2.5887,-2.5019,-2.5399,-2.4943,-2.4274,-2.3728,-2.3966,-2.405,-2.4048,-2.397,-2.4253,-2.4116,-2.392,-2.3821,-2.3789,-2.3458,-2.3216,-2.3877,-2.4157,-2.4422,-2.4755,-2.4969,-2.4969,-2.485,-2.4613,-2.4234,-2.4184,-2.4243,-2.4145,-2.419,-2.4309,-2.4526,-2.4706,-2.4957,-2.5182,-2.5403,-2.5105,-2.4253,-2.4149,-2.3719,-2.3151,-2.318,-2.3556,-2.3927,-2.4105,-2.4236,-2.4645,-2.5046,-2.519,-2.502,-2.4929,-2.4645,-2.4163,-2.3818,-2.3655,-2.3497,-2.3281,-2.3247,-2.3258,-2.3373,-2.3509,-2.3576,-2.3877,-2.4001,-2.4053,-2.4072,-2.4043,-2.4181,-2.4689,-2.4505,-2.43,-2.5246,-2.5963,-2.6387,-2.6384,-2.591,-2.571,-2.5891,-2.5817,-2.5557,-2.5623,-2.5592,-2.6083,-2.649,-2.6474,-2.6455,-2.6444,-2.6652,-2.6328,-2.6121,-2.5862,-2.5686,-2.5701,-2.5731,-2.5727,-2.557,-2.5293,-2.5429,-2.5697,-2.5664,-3.5818,-3.38,-3.2214,-3.1789,-3.2155,-3.0862,-2.9852,-2.908,-2.8279,-2.7309,-2.6274,-2.5869,-2.5756,-2.5825,-2.5783,-2.5824,-2.5521,-2.5245,-2.4852,-2.4487,-2.421,-2.4196,-2.4267,-2.4339,-2.431,-2.4476,-2.4337,-2.4091,-2.3959,-2.4207,-2.4246,-2.4237,-2.4342,-2.4297,-2.456,-2.493,-2.5099,-2.5111,-2.5076,-2.4933,-2.4826,-2.4526,-2.4454,-2.4418,-2.4236,-2.4309,-2.449,-2.479,-2.504,-2.5263,-2.5522,-2.5034,-2.446,-2.4332,-2.3829,-2.3215,-2.342,-2.3717,-2.4037,-2.4187,-2.445,-2.457,-2.4749,-2.4777,-2.4686,-2.4285,-2.3985,-2.3623,-2.3393,-2.3195,-2.3092,-2.2993,-2.2946,-2.2939,-2.3072,-2.3308,-2.3645,-2.4002,-2.4358,-2.4533,-2.4514,-2.4476,-2.4664,-2.4933,-2.4568,-2.4281,-2.5404,-2.6387,-2.6838,-2.7005,-2.6528,-2.601,-2.6099,-2.6283,-2.6072,-2.5759,-2.5444,-2.612,-2.6844,-2.6784,-2.6807,-2.7263,-2.7355,-2.6945,-2.66,-2.6471,-2.6444,-2.6526,-2.6489,-2.6385,-2.6315,-2.6159,-2.6465,-2.6956,-2.6973,-3.3453,-3.1424,-2.8899,-2.8822,-3.0096,-2.8857,-2.8021,-2.7583,-2.6857,-2.6051,-2.5222,-2.5222,-2.5313,-2.5487,-2.5513,-2.5306,-2.5177,-2.497,-2.4751,-2.4428,-2.4142,-2.4437,-2.4736,-2.4945,-2.4987,-2.507,-2.5112,-2.4971,-2.4911,-2.4978,-2.512,-2.5169,-2.5012,-2.4967,-2.4902,-2.5083,-2.53,-2.5264,-2.5194,-2.5147,-2.504,-2.4778,-2.4526,-2.449,-2.4345,-2.4345,-2.4598,-2.4862,-2.5229,-2.5401,-2.5453,-2.5153,-2.4703,-2.4249,-2.3851,-2.3563,-2.3539,-2.3865,-2.4157,-2.4447,-2.4734,-2.4908,-2.4804,-2.4696,-2.444,-2.3946,-2.3833,-2.3593,-2.3207,-2.2888,-2.2888,-2.2888,-2.2888,-2.2917,-2.3155,-2.3403,-2.392,-2.4321,-2.4733,-2.5056,-2.5011,-2.4986,-2.5152,-2.5412,-2.5633,-2.5345,-2.581,-2.6762,-2.74,-2.7452,-2.7149,-2.6629,-2.6203,-2.6406,-2.6546,-2.6156,-2.5909,-2.6515,-2.707,-2.7138,-2.727,-2.7805,-2.8029,-2.7617,-2.7336,-2.7166,-2.7173,-2.7303,-2.7178,-2.6986,-2.7094,-2.7332,-2.7559,-2.8003,-2.8236,-3.1046,-2.9432,-2.6609,-2.6612,-2.8101,-2.657,-2.5995,-2.6188,-2.5777,-2.5285,-2.4785,-2.4476,-2.4387,-2.4534,-2.4838,-2.4785,-2.4575,-2.4556,-2.4522,-2.4368,-2.4376,-2.4785,-2.5391,-2.5769,-2.5895,-2.6468,-2.6418,-2.619,-2.618,-2.6077,-2.6186,-2.6177,-2.5921,-2.5738,-2.5557,-2.5346,-2.53,-2.5324,-2.5264,-2.5218,-2.5111,-2.4885,-2.467,-2.4634,-2.449,-2.4454,-2.4634,-2.5111,-2.5465,-2.5707,-2.5475,-2.5227,-2.5,-2.4368,-2.3898,-2.3526,-2.3832,-2.4128,-2.4334,-2.4622,-2.4934,-2.5105,-2.5025,-2.4915,-2.4792,-2.4411,-2.3936,-2.3665,-2.3311,-2.3004,-2.2917,-2.2888,-2.2888,-2.3057,-2.3292,-2.3727,-2.4245,-2.4698,-2.5081,-2.5615,-2.5622,-2.56,-2.5702,-2.5916,-2.6512,-2.6628,-2.6659,-2.7133,-2.7832,-2.7779,-2.7419,-2.7141,-2.6606,-2.6735,-2.6873,-2.6488,-2.6439,-2.7026,-2.7457,-2.7668,-2.7976,-2.8494,-2.8534,-2.8292,-2.8161,-2.8043,-2.8043,-2.8083,-2.8247,-2.845,-2.8558,-2.8714,-2.8897,-2.9188,-2.9604,-2.8606,-2.6941,-2.4805,-2.4294,-2.4926,-2.5156,-2.5285,-2.5326,-2.4821,-2.4398,-2.4228,-2.4201,-2.4458,-2.4631,-2.4919,-2.5024,-2.4996,-2.4639,-2.4664,-2.541,-2.5211,-2.5923,-2.6568,-2.6852,-2.6948,-2.7103,-2.7121,-2.6994,-2.6739,-2.6782,-2.6645,-2.6543,-2.6405,-2.606,-2.5652,-2.543,-2.5324,-2.5324,-2.5324,-2.5288,-2.5218,-2.5016,-2.4837,-2.4849,-2.467,-2.4598,-2.4742,-2.5324,-2.577,-2.5867,-2.5578,-2.5261,-2.5046,-2.4458,-2.3825,-2.3739,-2.4037,-2.4332,-2.4706,-2.5047,-2.5272,-2.5301,-2.519,-2.5022,-2.4843,-2.4464,-2.407,-2.3808,-2.3553,-2.3253,-2.2981,-2.2917,-2.2958,-2.3263,-2.3626,-2.414,-2.4672,-2.5048,-2.5475,-2.6139,-2.6393,-2.6462,-2.6561,-2.6772,-2.7255,-2.7475,-2.7442,-2.7692,-2.833,-2.7945,-2.7534,-2.7444,-2.7168,-2.7243,-2.7211,-2.6986,-2.7205,-2.7874,-2.8298,-2.8604,-2.8928,-2.9186,-2.9498,-2.9461,-2.9176,-2.8906,-2.9149,-2.942,-2.9842,-3.0069,-3.0168,-3.0233,-3.0403,-3.0895,-3.151,-2.6607,-2.4872,-2.3352,-2.2852,-2.3134,-2.364,-2.4022,-2.4277,-2.4286,-2.4252,-2.4236,-2.4596,-2.507,-2.5379,-2.5618,-2.5986,-2.6104,-2.5814,-2.5902,-2.6689,-2.6583,-2.7072,-2.7597,-2.7888,-2.7868,-2.7888,-2.7789,-2.7656,-2.7623,-2.7323,-2.7053,-2.6816,-2.6611,-2.6094,-2.576,-2.5575,-2.5708,-2.5744,-2.5805,-2.5853,-2.5625,-2.5361,-2.5146,-2.504,-2.4897,-2.4814,-2.5099,-2.5524,-2.599,-2.5934,-2.5668,-2.5288,-2.5018,-2.4463,-2.385,-2.392,-2.4271,-2.4563,-2.499,-2.5355,-2.5522,-2.5605,-2.527,-2.5184,-2.5122,-2.4885,-2.4589,-2.4283,-2.3923,-2.3529,-2.3224,-2.3161,-2.3177,-2.3473,-2.4017,-2.4557,-2.5029,-2.5429,-2.5902,-2.657,-2.6974,-2.7155,-2.7382,-2.7725,-2.8039,-2.8149,-2.8174,-2.847,-2.8685,-2.8334,-2.7967,-2.7807,-2.7751,-2.7763,-2.7753,-2.7678,-2.8051,-2.8704,-2.9035,-2.9353,-2.9371,-2.9531,-3.0117,-3.063,-3.0369,-3.0261,-3.0504,-3.082,-3.122,-3.1566,-3.175,-3.184,-3.1948,-3.2388,-3.2955,-2.5092,-2.3429,-2.2236,-2.2266,-2.2781,-2.2555,-2.2606,-2.3039,-2.4386,-2.4821,-2.4687,-2.5405,-2.5889,-2.6373,-2.6502,-2.686,-2.7138,-2.698,-2.7239,-2.7495,-2.7515,-2.8026,-2.8297,-2.8514,-2.8546,-2.8643,-2.8605,-2.8379,-2.8536,-2.8206,-2.7706,-2.7105,-2.6943,-2.6308,-2.5917,-2.5888,-2.5985,-2.5889,-2.5949,-2.5925,-2.5733,-2.5636,-2.5385,-2.5195,-2.5076,-2.5111,-2.5359,-2.5711,-2.6148,-2.6047,-2.5648,-2.5442,-2.506,-2.446,-2.4098,-2.4067,-2.4476,-2.4848,-2.5132,-2.5467,-2.5494,-2.5492,-2.5382,-2.5603,-2.5656,-2.5367,-2.5105,-2.4756,-2.4376,-2.3956,-2.3621,-2.3512,-2.3425,-2.3865,-2.4354,-2.4881,-2.5351,-2.5824,-2.6297,-2.6788,-2.7152,-2.7463,-2.784,-2.8204,-2.8463,-2.859,-2.8637,-2.8803,-2.8967,-2.899,-2.8649,-2.8392,-2.8335,-2.8249,-2.8242,-2.8244,-2.8555,-2.9135,-2.9566,-2.9866,-2.9872,-3.0063,-3.063,-3.1157,-3.1447,-3.1558,-3.1646,-3.2076,-3.2617,-3.2892,-3.3021,-3.3094,-3.3051,-3.3431,-3.3918,-2.375,-2.2504,-2.176,-2.1742,-2.2332,-2.3417,-2.3886,-2.3988,-2.4706,-2.5152,-2.5659,-2.6391,-2.681,-2.682,-2.7309,-2.7598,-2.7533,-2.7462,-2.7677,-2.7977,-2.8339,-2.8678,-2.9014,-2.9267,-2.918,-2.9145,-2.9109,-2.9031,-2.8806,-2.8637,-2.8139,-2.7359,-2.7344,-2.6671,-2.6145,-2.6081,-2.5781,-2.5588,-2.5707,-2.5792,-2.5721,-2.5541,-2.535,-2.5266,-2.5288,-2.5359,-2.5606,-2.5941,-2.6264,-2.6095,-2.5607,-2.5318,-2.5205,-2.4454,-2.3949,-2.4218,-2.4622,-2.502,-2.5134,-2.4943,-2.4886,-2.4911,-2.4581,-2.4993,-2.535,-2.5597,-2.5367,-2.4857,-2.4484,-2.3992,-2.37,-2.3575,-2.3597,-2.389,-2.4479,-2.5172,-2.5641,-2.6107,-2.6578,-2.7049,-2.7437,-2.779,-2.8162,-2.8494,-2.8779,-2.892,-2.9059,-2.9198,-2.9266,-2.9289,-2.9066,-2.8828,-2.8818,-2.8712,-2.8754,-2.8746,-2.9113,-2.9513,-2.988,-3.0302,-3.045,-3.0709,-3.1245,-3.1786,-3.233,-3.2585,-3.2684,-3.3228,-3.4041,-3.3973,-3.4071,-3.4103,-3.4235,-3.4651,-3.5091,-2.2931,-2.1892,-2.1795,-2.2098,-2.2799,-2.3959,-2.474,-2.5326,-2.5824,-2.6207,-2.6555,-2.7399,-2.7751,-2.7821,-2.8225,-2.8388,-2.8337,-2.836,-2.8524,-2.8814,-2.9254,-2.9893,-3.027,-3.0498,-3.0665,-3.045,-3.0203,-3.0127,-2.9485,-2.8951,-2.8471,-2.7393,-2.7713,-2.6901,-2.6131,-2.5742,-2.5517,-2.5385,-2.5384,-2.5589,-2.5589,-2.5529,-2.5552,-2.5419,-2.5465,-2.5641,-2.5791,-2.6168,-2.6106,-2.6037,-2.5601,-2.52,-2.5064,-2.4498,-2.4184,-2.4421,-2.4736,-2.5103,-2.5217,-2.4751,-2.4612,-2.4363,-2.3924,-2.4113,-2.444,-2.4685,-2.4625,-2.4397,-2.417,-2.394,-2.3744,-2.3603,-2.3702,-2.3798,-2.4625,-2.5403,-2.587,-2.6336,-2.6817,-2.7335,-2.7715,-2.8063,-2.8429,-2.8756,-2.9036,-2.9152,-2.9312,-2.9515,-2.9582,-2.9582,-2.9293,-2.8919,-2.9048,-2.9166,-2.9177,-2.9209,-2.9513,-2.9762,-2.9967,-3.0335,-3.079,-3.1347,-3.1865,-3.2607,-3.3417,-3.3684,-3.4018,-3.4777,-3.5415,-3.5328,-3.543,-3.5745,-3.5858,-3.5859,-3.6423,-2.2572,-2.1535,-2.2329,-2.3152,-2.3857,-2.4483,-2.5588,-2.7042,-2.7554,-2.7631,-2.7661,-2.8469,-2.9044,-2.926,-2.951,-2.9494,-2.9476,-2.947,-2.9594,-2.9794,-3.0602,-3.1226,-3.17,-3.2292,-3.189,-3.2022,-3.1768,-3.0922,-3.0215,-2.9481,-2.8571,-2.7434,-2.7782,-2.7237,-2.6044,-2.5784,-2.5608,-2.5539,-2.5793,-2.6154,-2.6022,-2.6045,-2.6116,-2.5738,-2.5805,-2.599,-2.603,-2.602,-2.5861,-2.5852,-2.5641,-2.5145,-2.4886,-2.4707,-2.4558,-2.4593,-2.485,-2.5103,-2.5025,-2.4505,-2.4257,-2.4037,-2.3843,-2.349,-2.3569,-2.4028,-2.4076,-2.4046,-2.3821,-2.3786,-2.3641,-2.3768,-2.3918,-2.4326,-2.5013,-2.5596,-2.601,-2.6525,-2.7104,-2.759,-2.7989,-2.8308,-2.8525,-2.885,-2.9198,-2.9366,-2.9493,-2.9738,-2.988,-2.9848,-2.9621,-2.92,-2.9416,-2.9578,-2.9437,-2.9545,-2.9859,-3.0065,-3.0282,-3.0662,-3.1239,-3.1855,-3.2497,-3.3439,-3.4441,-3.5105,-3.5628,-3.6124,-3.652,-3.6745,-3.6951,-3.7494,-3.7576,-3.7445,-3.7638,-2.2869,-2.2427,-2.3865,-2.4499,-2.4708,-2.6509,-2.7446,-2.7923,-2.9364,-2.9732,-2.9648,-3.0211,-3.069,-3.0825,-3.0974,-3.0895,-3.0671,-3.0478,-3.0763,-3.0979,-3.1642,-3.2238,-3.2568,-3.2952,-3.2759,-3.2291,-3.1886,-3.1415,-3.0377,-2.9568,-2.8859,-2.7854,-2.809,-2.7626,-2.6402,-2.6238,-2.6124,-2.6009,-2.605,-2.6116,-2.5779,-2.586,-2.5879,-2.5816,-2.599,-2.6223,-2.6286,-2.628,-2.6052,-2.5832,-2.5573,-2.5232,-2.4916,-2.4758,-2.4763,-2.4905,-2.4962,-2.5131,-2.4914,-2.4259,-2.3716,-2.339,-2.3065,-2.2713,-2.2763,-2.332,-2.3614,-2.3587,-2.3555,-2.3548,-2.3576,-2.3811,-2.4173,-2.4743,-2.5319,-2.5705,-2.6147,-2.6788,-2.7386,-2.7815,-2.8235,-2.8477,-2.8637,-2.8943,-2.9321,-2.9515,-2.9671,-2.9848,-3.0,-3.0044,-3.0065,-2.9804,-2.9945,-2.9989,-2.9783,-3.0021,-3.0369,-3.0642,-3.0849,-3.1285,-3.1755,-3.2829,-3.3872,-3.4618,-3.5442,-3.6095,-3.6628,-3.6892,-3.73,-3.7836,-3.8212,-3.8622,-3.9127,-3.9118,-3.9236,-2.3088,-2.3243,-2.4567,-2.5724,-2.6633,-2.7859,-2.8694,-2.9524,-3.0676,-3.1329,-3.1456,-3.1545,-3.1657,-3.1809,-3.1858,-3.1846,-3.1482,-3.1261,-3.1454,-3.183,-3.2441,-3.3013,-3.3372,-3.3794,-3.3839,-3.3456,-3.2491,-3.1744,-3.0527,-2.9962,-2.9369,-2.8359,-2.8407,-2.8361,-2.7352,-2.7103,-2.6965,-2.6955,-2.6556,-2.6119,-2.5816,-2.6025,-2.6223,-2.6267,-2.6371,-2.6568,-2.6476,-2.6468,-2.6235,-2.6057,-2.5955,-2.5686,-2.5461,-2.5336,-2.5204,-2.5072,-2.5075,-2.5104,-2.4804,-2.4177,-2.3393,-2.3284,-2.304,-2.2956,-2.3031,-2.3537,-2.3342,-2.3287,-2.3096,-2.3036,-2.3059,-2.3236,-2.3948,-2.4575,-2.5147,-2.5586,-2.6376,-2.7203,-2.7665,-2.7989,-2.8356,-2.8614,-2.8826,-2.9137,-2.9434,-2.9614,-2.9738,-2.9881,-3.0065,-3.0248,-3.0269,-3.0312,-3.0333,-3.0049,-2.9625,-3.018,-3.1011,-3.1264,-3.1418,-3.221,-3.2918,-3.4205,-3.5308,-3.5719,-3.6319,-3.7119,-3.7578,-3.792,-3.8563,-3.9239,-3.9469,-3.9664,-4.0184,-4.0809,-4.1023,-2.3621,-2.4189,-2.5091,-2.6757,-2.8724,-2.889,-2.9746,-3.1213,-3.197,-3.2676,-3.3212,-3.2669,-3.2407,-3.2313,-3.2192,-3.1976,-3.1914,-3.205,-3.2274,-3.289,-3.3539,-3.412,-3.4671,-3.5066,-3.4836,-3.42,-3.3221,-3.2196,-3.1114,-3.0589,-2.9849,-2.8826,-2.889,-2.924,-2.8621,-2.8187,-2.8013,-2.7712,-2.7318,-2.6737,-2.6627,-2.6645,-2.6645,-2.6748,-2.6909,-2.7011,-2.6832,-2.6627,-2.6425,-2.6361,-2.6369,-2.6156,-2.5934,-2.5809,-2.5483,-2.5295,-2.5159,-2.516,-2.4968,-2.4312,-2.4123,-2.3987,-2.3633,-2.3548,-2.3626,-2.3702,-2.3533,-2.3287,-2.3071,-2.2961,-2.2986,-2.3174,-2.3915,-2.4731,-2.5277,-2.5819,-2.6784,-2.7615,-2.789,-2.821,-2.847,-2.8779,-2.9059,-2.9344,-2.9525,-2.9681,-2.9836,-2.9979,-3.013,-3.0279,-3.0396,-3.0447,-3.051,-3.0137,-2.9671,-3.0426,-3.1492,-3.1682,-3.1968,-3.3005,-3.4057,-3.5234,-3.608,-3.6461,-3.7128,-3.792,-3.8612,-3.9064,-3.9807,-4.0494,-4.0809,-4.1023,-4.1622,-4.2237,-4.2754,-2.5181,-2.6069,-2.6683,-2.7698,-2.903,-3.0384,-3.1526,-3.2554,-3.3784,-3.4485,-3.4451,-3.4582,-3.4493,-3.4321,-3.4218,-3.3877,-3.3281,-3.3223,-3.3773,-3.4486,-3.4531,-3.5177,-3.5704,-3.5769,-3.5329,-3.4593,-3.3657,-3.254,-3.1783,-3.1184,-3.0555,-2.9916,-2.9971,-3.0062,-2.9696,-2.9354,-2.9118,-2.8751,-2.8273,-2.779,-2.7258,-2.7113,-2.685,-2.6918,-2.7019,-2.7079,-2.6994,-2.6934,-2.6742,-2.6628,-2.66,-2.6526,-2.6331,-2.6173,-2.5845,-2.5408,-2.5272,-2.5132,-2.4857,-2.442,-2.4286,-2.4259,-2.4014,-2.4229,-2.4473,-2.4965,-2.4686,-2.4326,-2.4133,-2.3996,-2.3969,-2.397,-2.4547,-2.5602,-2.6367,-2.6865,-2.758,-2.789,-2.8113,-2.8398,-2.8732,-2.9013,-2.9312,-2.9547,-2.9681,-2.9836,-3.0011,-3.013,-3.0227,-3.0354,-3.0501,-3.063,-3.0746,-3.0593,-3.039,-3.1007,-3.1867,-3.2067,-3.2683,-3.3998,-3.5138,-3.6141,-3.6854,-3.7328,-3.7928,-3.8646,-3.9306,-4.0127,-4.0761,-4.1438,-4.2032,-4.2499,-4.3086,-4.3505,-4.388]}]]